GFSGL_925_thetae_000.txt.gz
Theta_e
327 327 327 328 327 324 324 323 322 322 322 322 323 323 323 326 327 327 329 327 327 327 329 330 329 329 329 328 330 330 329 329 330 329 329 328 328 328 327 325 324 324 323
327 326 327 328 328 326 325 323 324 323 323 323 325 325 325 327 327 327 328 328 327 327 329 329 329 328 327 329 329 329 329 329 329 328 328 328 328 327 326 324 323 322 321
325 326 327 328 327 326 325 324 324 324 324 325 327 327 326 327 328 328 328 327 326 327 327 328 328 328 328 328 328 328 329 329 329 328 327 327 327 325 324 323 321 319 316
324 324 327 327 327 326 326 326 325 325 325 326 327 327 326 327 326 325 327 327 326 327 328 328 328 328 328 328 328 328 328 328 328 327 327 325 325 325 324 324 324 323 319
323 326 327 326 326 324 325 325 325 326 326 327 327 327 326 325 325 325 325 325 326 327 328 328 328 328 327 328 328 328 328 327 328 327 326 326 326 325 326 324 324 321 319
322 326 327 325 325 325 325 325 326 326 326 327 327 326 327 326 325 325 324 325 326 326 328 328 327 328 327 327 327 328 328 327 327 327 326 325 325 326 325 323 321 321 317
322 326 327 325 325 325 325 325 326 326 326 326 327 327 326 326 326 324 325 325 326 326 327 327 327 327 326 327 327 327 326 326 327 327 327 327 326 327 326 320 318 315 319
321 325 325 325 324 325 325 325 325 325 326 326 326 328 328 327 326 324 326 327 327 326 327 327 327 326 326 326 327 327 326 325 325 325 326 326 326 327 325 317 316 318 320
320 323 324 323 325 324 326 325 323 326 326 325 325 327 327 327 326 325 327 327 327 327 328 327 327 327 326 325 326 327 327 327 327 327 326 322 321 322 321 318 320 320 322
320 321 324 322 324 324 325 325 322 324 325 325 325 327 326 326 325 325 325 327 327 327 327 327 326 326 325 326 327 325 321 324 327 327 326 324 327 323 320 320 321 322 318
320 320 322 321 324 325 324 324 322 321 324 323 324 325 327 327 327 327 326 326 327 327 326 325 324 325 326 324 326 321 321 324 326 326 326 325 326 326 326 323 325 324 314
320 320 320 320 323 322 323 323 322 320 323 322 322 322 324 327 327 327 327 326 326 327 327 326 325 325 325 326 326 320 316 315 315 320 316 312 312 313 313 314 314 315 315
319 319 319 319 321 324 323 324 321 320 319 319 320 320 322 325 327 327 327 327 327 327 326 326 326 326 326 326 325 320 317 314 316 317 317 316 316 315 315 313 310 309 307
319 319 319 318 319 325 324 324 322 319 318 318 318 319 320 322 323 325 326 326 326 325 322 320 320 321 321 320 319 318 318 317 317 318 319 319 314 312 310 309 308 307 307
319 318 318 318 318 322 325 324 323 322 322 320 320 319 319 319 323 324 322 323 323 323 320 318 316 318 318 318 318 318 317 316 317 318 319 317 311 309 308 308 308 307 304
317 316 317 317 317 318 323 324 324 324 325 324 324 323 322 321 321 322 322 322 322 320 317 318 318 316 316 316 316 316 315 315 316 318 317 314 311 308 306 306 306 306 303
317 316 316 316 317 318 320 323 323 324 325 324 325 325 324 325 324 320 319 318 317 320 319 318 318 319 318 317 316 317 317 315 314 317 317 316 312 308 305 305 304 302 300
318 318 316 315 316 318 320 320 322 323 323 325 326 326 325 325 326 326 322 316 310 311 314 316 318 316 316 318 318 316 316 311 310 315 316 314 310 307 304 303 303 302 299
317 317 316 316 316 318 319 320 321 322 323 323 324 326 326 325 325 324 323 320 317 312 310 311 312 314 315 314 315 315 315 312 311 312 314 312 308 305 303 303 302 301 298
318 318 317 316 317 318 320 320 321 321 321 322 323 324 324 321 320 321 320 320 319 318 317 314 310 310 312 314 312 311 309 310 310 312 313 309 306 305 304 303 301 299 298
319 318 318 317 318 319 320 321 320 320 320 320 322 322 322 321 319 319 320 320 320 319 319 319 318 314 309 311 313 310 307 306 308 311 311 307 305 303 303 301 299 298 297
320 319 317 318 319 320 320 321 321 320 320 319 320 321 321 320 319 318 317 319 320 319 318 320 320 319 319 311 310 313 310 305 306 309 308 305 303 302 300 298 298 297 297
321 319 318 318 319 320 320 321 321 321 320 320 319 319 320 320 320 319 320 320 318 318 318 318 318 319 319 317 313 311 314 313 312 310 309 304 302 302 300 298 297 298 297
322 320 319 318 318 319 320 320 320 321 320 320 320 320 320 320 320 320 320 320 320 320 320 319 317 316 317 316 315 312 312 313 313 309 308 303 301 300 300 300 299 298 296
323 322 320 319 318 318 319 319 319 320 320 320 320 320 320 320 320 320 321 321 320 320 319 318 316 315 314 313 312 311 310 311 311 307 303 302 301 300 300 300 300 296 294
324 322 321 321 321 319 319 318 319 319 319 319 319 319 319 320 320 320 321 320 319 318 316 315 314 313 312 311 310 309 309 309 309 305 303 303 301 300 300 302 298 294 291

GFSGL_925_thetae_003.txt.gz
Theta_e
328 330 330 331 328 326 326 325 324 324 323 324 325 326 327 328 329 329 329 328 328 330 331 329 330 332 332 332 331 330 330 330 330 330 330 328 327 328 326 326 325 324 323
329 328 330 331 329 327 327 326 325 324 324 325 326 327 327 328 329 329 329 327 327 328 328 329 328 330 332 333 332 332 331 330 330 329 328 328 327 326 325 324 323 322 322
327 327 331 331 330 329 328 326 326 326 325 326 328 328 328 328 329 329 329 328 327 328 330 328 330 330 331 331 331 331 331 329 329 329 328 327 326 325 323 322 321 321 316
326 327 330 330 329 328 327 326 326 327 327 329 329 328 328 328 327 329 329 327 327 327 328 329 330 328 330 331 330 331 332 329 328 327 327 325 324 324 322 321 320 320 317
326 328 329 329 328 328 328 327 328 328 328 328 329 328 328 327 327 327 328 328 329 327 329 329 330 329 328 328 329 329 330 328 327 326 325 324 323 323 323 324 324 322 320
326 328 327 327 326 327 328 328 328 328 329 329 328 328 328 327 324 324 326 328 329 330 330 329 327 328 328 328 328 328 328 327 326 326 325 325 324 326 326 325 323 321 320
325 328 327 327 327 327 327 328 328 328 329 329 329 329 329 327 324 324 324 328 327 329 330 329 329 327 328 328 328 327 328 327 326 327 328 327 327 327 325 325 321 320 322
324 328 327 326 327 327 327 327 327 327 329 329 329 329 329 326 324 324 325 326 326 327 330 330 328 329 328 329 327 327 327 327 327 327 327 327 327 327 325 321 322 323 322
322 327 326 326 326 327 327 327 324 327 327 327 328 329 329 326 325 326 327 325 326 328 329 329 329 328 327 326 327 328 328 326 326 326 326 326 327 327 323 319 319 322 323
322 324 325 325 326 327 328 324 323 327 327 325 327 329 328 326 325 326 329 329 329 329 327 327 325 326 325 326 329 328 327 326 327 326 322 321 323 325 322 322 323 325 324
322 322 325 325 327 327 326 323 321 325 325 324 325 326 328 326 325 325 327 326 328 329 328 328 326 326 326 326 323 323 326 326 327 326 325 325 322 321 320 319 322 325 323
322 321 323 324 325 326 325 323 324 325 324 324 324 324 326 326 327 326 326 327 326 326 327 326 325 325 323 325 321 319 324 325 324 324 323 323 323 321 321 322 323 321 317
322 322 322 323 325 326 326 325 323 325 324 323 324 324 324 325 327 326 326 326 326 327 326 325 325 325 325 325 325 319 315 318 323 323 321 317 317 316 314 315 313 312 310
323 323 322 322 324 325 325 325 324 323 323 321 322 324 323 323 325 326 326 326 326 326 325 325 325 325 325 326 325 321 318 318 320 320 320 318 315 315 314 311 309 307 304
324 323 322 321 322 326 326 325 325 324 323 323 321 321 324 322 322 324 325 325 325 324 322 321 320 320 321 321 319 318 317 318 320 321 320 316 315 313 312 311 310 309 308
323 323 322 320 320 323 326 324 324 324 322 322 323 322 320 321 323 323 322 323 323 323 321 319 319 320 320 319 319 317 317 318 320 319 318 316 314 313 312 311 311 311 308
323 322 322 320 320 321 324 326 326 322 322 321 321 321 322 322 320 322 323 323 322 321 322 321 320 318 317 317 317 317 317 319 320 319 318 317 315 314 310 311 310 308 306
322 321 321 320 320 320 321 322 324 326 326 325 324 324 324 322 323 322 320 319 316 316 321 322 321 321 321 320 318 317 317 316 318 318 317 316 315 313 311 311 308 306 302
322 320 320 321 320 319 320 321 321 322 324 326 326 323 325 325 325 325 325 319 317 317 317 318 319 319 320 319 319 319 318 317 316 317 316 315 314 313 312 310 307 302 301
322 320 320 320 320 319 320 321 322 322 322 323 324 324 320 323 321 321 322 318 321 320 318 317 316 315 316 317 317 317 317 316 315 315 315 314 314 312 311 307 302 300 299
322 320 318 320 320 321 320 321 321 322 322 322 322 322 322 321 324 324 320 320 321 321 321 319 318 316 315 314 314 314 314 315 315 315 314 313 312 310 308 303 301 300 298
323 322 318 320 321 321 322 322 322 322 322 322 322 321 321 321 323 322 321 320 319 320 320 320 320 318 317 316 314 313 312 313 313 313 312 311 310 307 303 302 301 300 298
323 323 320 321 322 322 322 323 323 323 322 322 322 322 318 318 321 321 320 320 319 319 320 320 320 319 319 318 317 316 314 312 312 312 310 308 307 306 303 302 300 299 300
324 324 322 321 322 322 323 323 324 324 324 323 323 323 322 318 319 320 321 320 319 318 318 318 318 318 318 318 317 317 316 315 312 311 309 307 306 304 302 301 300 300 300
324 324 323 322 322 322 323 323 324 324 324 324 324 324 324 322 321 321 321 320 320 319 319 319 319 319 318 317 317 316 316 314 314 311 308 306 304 303 302 300 301 301 301
325 325 324 323 322 322 323 323 324 324 325 324 324 324 324 324 324 322 321 320 320 319 319 319 319 319 318 317 316 315 314 313 312 311 308 305 303 301 301 301 302 300 298

GFSGL_925_thetae_009.txt.gz
Theta_e
332 331 332 332 332 332 332 330 329 329 327 327 327 328 328 329 331 332 333 332 331 332 332 333 333 334 332 333 333 334 331 331 328 326 325 325 323 323 323 324 322 325 324
331 331 331 333 333 333 332 330 329 328 327 327 327 328 328 329 331 333 331 331 331 332 333 332 333 334 334 334 332 331 329 328 326 326 325 325 324 323 322 323 323 321 320
331 331 332 332 333 333 332 330 328 327 327 327 327 327 329 331 332 331 331 331 332 333 333 333 333 334 335 333 331 331 329 328 326 325 327 325 324 323 326 324 325 324 323
330 330 331 332 332 333 330 329 328 326 326 328 328 329 329 330 331 331 329 331 332 332 332 334 334 335 334 332 331 329 328 327 326 327 326 326 325 326 324 325 324 323 322
329 330 332 332 332 331 330 329 328 327 328 328 328 329 330 330 330 332 332 332 330 331 332 333 332 333 333 331 328 329 328 327 327 326 326 326 325 325 324 322 321 321 318
329 330 331 331 331 330 330 330 329 330 329 329 328 329 330 329 329 329 331 332 331 331 330 328 328 329 331 330 330 328 328 327 326 326 326 325 325 325 323 319 319 319 321
329 330 329 330 330 330 330 329 329 329 329 329 329 329 331 327 324 328 329 333 333 333 332 331 329 329 330 330 330 329 327 326 326 325 325 325 324 325 322 322 322 322 322
329 329 329 330 331 330 330 331 332 333 332 332 331 331 331 326 324 327 330 333 333 333 332 331 330 330 330 330 329 329 327 327 325 324 324 324 323 324 325 322 322 324 322
328 329 329 331 331 331 331 332 333 334 334 333 332 332 330 326 325 327 330 332 331 332 332 331 331 330 329 328 329 327 327 326 325 323 322 323 320 326 326 323 326 325 322
328 329 329 330 330 330 331 332 333 333 332 333 332 332 330 328 327 328 330 331 332 331 331 331 330 330 329 329 329 328 326 326 325 324 323 325 327 327 324 324 325 324 323
326 329 329 330 330 332 331 332 332 331 331 333 333 332 331 330 328 329 330 332 332 331 330 329 328 328 329 329 326 326 326 326 326 327 326 325 327 327 324 324 324 327 326
325 329 330 330 330 332 332 330 329 330 332 333 333 331 330 330 327 328 330 332 330 330 328 328 326 326 327 329 330 330 329 328 328 328 329 329 328 321 321 326 326 328 328
324 328 329 331 330 332 332 329 329 329 332 333 333 332 331 330 327 327 329 330 331 332 329 327 325 322 321 327 329 328 326 327 326 325 325 325 324 322 325 330 330 326 323
324 327 328 329 330 331 330 328 326 327 330 331 332 332 331 331 329 328 328 329 329 329 328 326 325 326 325 325 326 326 328 327 327 327 326 325 326 330 329 329 325 321 318
325 325 327 328 329 330 329 328 326 325 325 328 329 330 331 331 331 329 329 329 330 329 328 327 327 328 327 322 323 325 327 327 328 326 324 326 327 328 326 324 321 319 316
326 326 326 327 329 329 330 330 326 325 323 322 324 327 329 329 329 329 329 329 329 328 328 328 327 327 328 326 325 325 324 324 325 324 324 323 323 322 322 321 320 318 318
327 327 326 325 327 330 329 330 330 326 324 322 321 321 323 328 329 329 329 328 328 327 329 328 328 328 328 327 326 325 324 324 324 325 325 323 322 322 321 321 320 319 320
328 326 325 324 324 325 329 330 330 330 328 326 325 322 321 322 321 326 327 326 325 323 327 328 328 328 327 327 326 325 324 323 324 325 324 324 323 322 321 320 320 319 320
327 326 325 324 323 323 323 326 329 329 329 327 324 323 322 321 321 322 322 323 323 322 321 324 325 325 323 324 324 324 324 323 323 324 325 324 324 323 322 320 320 319 320
327 326 325 324 323 322 322 324 324 325 325 325 325 324 321 320 320 318 321 323 323 323 321 320 322 323 322 322 321 320 320 321 322 323 324 324 324 324 323 321 319 320 318
328 328 325 324 324 323 322 323 323 323 324 325 324 325 325 323 324 323 322 321 321 321 322 322 322 322 323 323 323 322 322 320 320 321 322 324 324 323 323 322 320 319 314
330 329 326 325 323 323 323 322 323 323 323 324 324 325 325 324 323 324 325 323 322 322 322 323 323 322 321 321 322 323 323 323 322 322 322 321 322 323 323 322 321 318 312
332 331 330 326 324 324 323 322 322 323 323 323 323 324 324 326 324 323 324 325 325 323 322 323 324 324 323 321 321 320 321 322 323 322 323 323 322 322 322 322 321 313 311
333 332 332 329 326 325 325 325 323 322 323 323 324 323 324 325 325 323 323 324 326 326 325 323 323 323 323 323 322 321 320 319 319 320 321 322 322 322 322 321 320 314 311
332 333 334 331 328 326 326 326 325 325 323 323 324 324 323 324 325 324 323 323 325 326 327 326 325 323 322 322 322 321 320 319 318 318 318 319 320 321 321 320 319 312 310
331 332 334 333 330 329 328 328 327 327 327 326 325 324 324 324 324 326 326 325 325 325 326 326 326 325 323 322 322 322 321 321 321 320 321 322 321 320 320 319 317 313 306

GFSGL_925_thetae_012.txt.gz
Theta_e
335 335 332 332 332 332 332 330 330 328 328 328 328 328 328 329 331 332 331 333 332 332 333 332 333 332 330 330 331 331 332 327 325 325 325 324 323 322 322 322 323 323 323
333 332 333 332 332 333 332 329 329 328 327 327 328 328 329 330 332 332 332 331 332 332 333 332 333 332 329 332 331 331 328 326 325 324 323 323 322 322 323 324 323 323 322
334 333 332 332 332 333 331 329 329 328 327 328 327 329 329 332 330 330 331 331 332 332 333 332 331 331 331 332 331 328 326 325 325 324 323 323 322 323 324 324 324 322 323
334 331 333 332 332 333 331 329 328 327 327 327 328 328 330 331 331 331 331 331 331 330 331 331 331 331 331 330 330 328 326 326 326 324 324 323 324 324 324 323 322 322 321
331 332 331 332 331 332 329 329 327 327 327 328 328 329 331 331 331 331 332 330 330 331 332 331 333 331 330 329 328 327 326 326 325 324 324 324 325 325 324 323 323 323 323
331 333 332 331 332 329 329 329 328 329 329 328 329 329 331 328 329 330 331 329 330 330 328 330 331 331 330 328 327 326 326 326 326 326 325 325 324 323 322 320 321 319 321
331 331 331 331 331 330 329 329 329 329 329 329 328 331 329 324 326 329 332 331 331 330 329 328 329 328 328 328 327 326 326 326 326 325 325 325 323 321 319 320 318 320 319
330 330 331 331 331 330 330 330 330 329 330 330 329 331 330 323 324 329 332 332 332 331 329 329 330 330 329 328 327 326 326 326 325 325 325 324 323 318 317 317 321 322 319
329 330 330 331 331 331 330 331 330 330 329 331 332 332 330 324 326 330 331 332 332 331 330 330 330 330 329 328 327 326 325 325 325 324 324 323 324 320 318 320 325 324 323
329 329 331 331 331 330 332 333 332 331 331 331 333 331 329 326 328 330 330 331 332 331 331 330 329 329 329 328 326 326 324 325 324 324 324 324 325 322 324 323 324 323 323
329 329 331 331 332 332 332 333 332 332 331 333 331 330 330 328 328 330 330 330 331 331 329 329 329 329 329 328 327 326 325 325 324 324 323 322 323 326 324 325 326 323 324
329 330 332 331 333 333 332 332 331 332 331 332 331 330 331 329 329 330 331 331 331 330 329 328 329 329 328 327 327 326 324 324 323 323 323 325 326 326 325 324 325 327 327
329 331 333 330 335 334 332 331 331 332 331 333 333 331 331 328 329 330 331 330 330 329 328 326 327 329 326 328 326 326 326 326 327 327 326 327 328 326 322 326 327 327 326
329 332 333 332 335 334 332 329 330 331 333 334 333 332 331 329 327 329 330 331 330 329 326 322 321 325 328 329 328 327 327 328 329 328 328 329 327 320 324 330 328 323 322
328 332 333 332 332 333 331 328 329 327 330 333 333 333 331 331 329 329 330 329 329 327 325 325 326 324 327 328 328 327 328 329 327 327 327 326 326 328 330 330 326 321 318
328 331 331 331 331 332 331 327 326 326 323 324 331 332 331 332 330 329 330 330 330 328 327 328 329 327 324 325 326 326 327 329 329 329 328 329 330 330 330 328 324 320 317
328 328 329 330 330 332 331 332 330 323 323 322 322 326 329 330 328 328 329 329 329 328 330 329 328 329 328 325 325 326 325 326 327 326 324 325 325 327 326 324 322 320 319
328 328 328 327 331 330 331 332 331 328 326 323 321 321 328 329 328 328 328 328 327 328 329 330 330 328 329 328 327 326 325 324 324 325 326 324 324 324 324 323 322 321 320
329 327 327 327 327 329 331 331 332 331 329 327 323 321 327 328 328 327 328 328 328 328 327 329 330 330 329 329 328 327 326 325 324 324 326 326 324 323 323 322 322 321 320
330 327 327 328 325 326 326 329 331 332 331 329 326 323 323 326 326 327 327 326 324 324 323 325 326 327 327 328 328 328 327 326 325 325 324 326 326 325 324 323 322 321 320
328 328 327 326 328 324 325 325 326 328 331 331 329 326 323 321 321 323 324 325 324 324 323 322 321 321 323 325 324 323 323 324 324 324 325 325 325 326 326 325 324 321 321
329 329 327 327 326 326 324 324 325 326 326 327 327 327 324 323 323 323 322 322 323 323 324 324 324 323 321 322 324 324 323 321 320 321 321 323 324 325 325 325 324 323 320
332 331 330 328 327 326 325 325 324 325 325 325 326 325 323 323 325 324 325 324 323 322 321 321 323 325 324 323 322 323 325 324 324 323 322 321 322 323 324 324 324 323 316
335 333 332 330 328 326 326 325 325 324 325 325 325 325 323 325 326 325 325 326 326 325 324 324 323 323 324 325 324 323 321 322 324 324 324 323 323 323 322 322 323 323 315
333 334 334 333 330 327 327 326 325 325 324 324 324 324 325 326 327 327 326 325 325 326 327 326 324 324 323 323 325 324 324 322 321 321 321 323 323 323 323 322 323 321 314
333 334 334 335 334 330 328 327 327 325 325 324 324 325 325 327 327 327 327 325 324 324 327 328 328 326 325 324 322 323 324 323 322 321 320 320 320 321 322 323 323 317 310

GFSGL_925_thetae_015.txt.gz
Theta_e
335 333 333 332 332 331 331 330 328 329 328 329 328 328 328 328 329 329 329 329 330 330 330 330 330 329 330 330 330 331 329 327 325 324 325 326 327 325 323 322 319 320 321
334 334 332 332 332 332 330 329 328 328 327 328 328 328 329 330 329 329 329 330 332 330 329 330 331 330 329 329 331 327 325 325 324 323 323 323 323 323 323 320 319 319 320
334 331 332 332 332 332 330 328 328 328 327 327 328 328 329 329 330 329 331 331 331 330 330 329 331 330 332 331 327 325 325 323 323 322 322 323 323 324 323 323 321 319 318
333 332 332 333 332 331 330 328 328 327 327 328 329 330 330 331 331 330 331 330 330 330 330 331 330 329 330 328 325 325 323 323 322 322 323 324 323 323 323 322 321 319 318
333 332 332 332 331 330 328 327 328 327 327 328 329 330 331 331 331 331 329 330 329 329 330 330 330 330 329 327 325 325 324 323 323 323 324 324 323 323 322 322 320 319 319
333 332 332 330 330 330 329 328 326 328 328 328 330 331 329 328 329 330 329 330 329 330 330 330 330 329 328 327 325 326 324 324 323 323 324 324 324 323 323 322 322 321 320
332 332 333 332 329 328 327 327 327 328 328 329 330 330 327 325 328 331 330 331 329 329 329 329 328 327 327 326 326 325 324 323 323 325 324 324 323 322 322 321 320 320 320
332 331 331 331 329 328 329 329 329 329 328 329 330 329 323 323 329 331 331 332 331 329 329 329 328 326 326 326 325 325 325 324 325 324 324 323 322 321 321 321 320 319 320
330 331 331 330 329 330 330 330 329 329 330 329 331 330 327 324 329 331 332 331 329 329 330 328 328 327 326 326 325 325 325 325 325 324 323 323 322 320 318 317 320 317 318
330 330 331 330 329 330 330 330 330 329 329 330 331 330 325 326 329 331 332 331 331 330 330 329 328 327 326 326 325 325 324 325 324 324 324 322 319 316 318 321 318 320 320
330 330 331 330 331 332 332 331 331 331 331 331 330 329 326 328 329 330 331 330 330 329 329 328 328 327 327 326 325 325 325 324 324 323 324 322 317 318 319 324 321 322 320
329 332 332 331 333 332 332 332 332 330 331 330 330 329 327 328 330 331 331 330 329 328 328 328 328 328 327 326 326 325 325 324 324 323 324 324 324 322 324 324 322 321 318
330 332 332 332 331 330 331 332 331 331 331 330 331 330 328 328 329 331 330 331 329 328 328 329 329 328 327 326 326 325 325 324 324 324 322 322 321 324 325 326 327 325 323
332 331 333 333 332 331 330 332 331 331 330 331 331 330 328 328 330 330 330 330 329 328 328 328 327 326 327 327 326 325 325 323 323 323 321 323 325 325 326 325 326 326 326
333 331 331 334 333 331 329 330 329 332 332 332 331 330 328 328 329 330 330 329 327 326 325 325 326 326 327 325 325 324 324 323 324 323 322 323 325 327 325 325 326 324 324
333 332 331 334 334 332 330 325 327 325 331 333 332 330 329 327 329 329 330 329 327 323 322 324 323 327 327 325 324 324 326 327 326 326 326 325 327 327 322 328 328 324 322
332 333 332 331 333 332 330 325 321 321 328 332 333 331 330 330 327 329 329 328 327 324 325 327 325 326 328 328 327 326 326 328 328 328 328 328 328 325 325 329 327 325 320
330 331 330 331 330 332 330 329 325 321 319 322 329 332 331 331 328 329 330 330 327 326 325 326 328 325 324 325 325 326 326 326 327 328 326 326 326 327 328 329 327 324 321
327 329 329 328 330 329 331 331 329 325 323 320 323 328 330 329 327 329 328 328 328 327 329 329 326 327 328 325 324 324 324 325 325 325 327 327 328 329 328 327 326 325 321
328 327 327 327 327 329 329 330 331 327 325 323 320 325 328 328 327 327 327 328 327 327 327 329 329 329 327 327 328 325 326 324 325 324 324 325 324 324 323 324 324 323 322
328 327 327 327 328 326 328 329 330 330 328 326 323 321 323 327 326 326 327 327 327 327 328 327 328 329 327 328 328 328 328 327 326 325 324 323 324 325 324 323 323 322 321
327 327 326 326 326 326 324 326 326 330 330 328 326 323 321 324 325 325 326 326 327 327 324 322 323 324 326 325 322 327 328 328 327 326 325 325 324 324 326 325 323 323 322
332 328 326 326 326 325 325 324 324 324 326 330 329 325 322 322 322 322 323 323 323 322 321 323 324 322 321 320 320 320 323 325 324 323 323 324 325 324 324 325 325 325 323
326 332 329 326 326 325 324 324 324 323 324 325 326 326 324 321 320 320 320 320 320 320 319 318 319 323 323 323 323 322 321 321 323 323 322 321 320 322 324 324 324 325 324
320 326 332 333 327 325 325 324 325 323 323 324 324 324 324 323 322 323 323 323 322 322 321 321 320 319 317 319 322 324 324 323 322 321 323 324 323 322 321 321 322 323 323
318 319 325 332 333 328 326 325 324 324 323 322 323 324 324 323 323 324 324 324 324 324 324 324 324 324 324 324 322 319 321 324 324 324 322 322 324 324 323 323 322 321 321

GFSGL_925_thetae_021.txt.gz
Theta_e
331 332 331 331 331 331 331 331 329 327 326 326 327 326 328 328 328 329 329 328 327 328 327 328 328 328 327 328 328 327 327 326 324 325 327 329 330 327 328 328 329 329 328
332 332 331 331 330 329 329 328 327 327 327 328 328 327 327 328 328 329 329 329 328 328 328 329 329 328 328 328 329 328 326 326 324 325 325 324 322 322 323 322 321 322 321
332 331 330 329 329 329 329 327 328 328 327 327 327 327 329 329 329 328 330 329 329 329 329 328 329 329 329 328 327 326 325 324 325 325 323 321 319 319 320 319 319 321 318
332 331 330 330 330 329 328 328 326 327 326 326 328 329 329 330 330 330 329 329 329 329 329 329 329 329 328 326 324 324 324 324 323 322 320 320 319 317 317 316 317 317 317
331 331 331 331 330 329 328 327 327 327 326 328 330 329 329 329 329 329 328 328 329 329 329 329 329 329 327 326 324 323 323 324 323 321 320 319 320 319 319 318 317 316 316
332 331 331 331 330 329 327 327 327 327 327 329 330 329 327 329 330 329 329 329 329 328 328 328 328 327 325 324 324 323 323 323 323 322 320 320 320 320 318 318 317 318 317
332 331 331 330 328 326 326 326 326 326 327 329 329 328 324 327 329 330 329 328 328 328 327 327 325 325 324 323 323 323 323 323 323 321 321 320 320 319 318 318 318 317 317
332 331 331 329 328 327 326 327 326 328 327 329 328 325 323 328 330 330 329 328 327 327 327 326 325 324 323 323 322 323 323 323 323 322 321 320 319 319 318 318 318 317 316
331 330 330 329 327 327 327 327 327 328 329 328 327 325 323 328 331 331 330 328 326 326 326 325 325 324 323 322 323 322 323 323 323 322 321 320 319 319 319 318 318 316 314
330 330 330 329 327 327 327 328 328 328 328 328 327 326 324 329 331 330 329 329 327 325 323 325 324 324 323 322 323 323 322 323 323 322 322 320 320 320 319 319 318 315 314
330 330 330 328 327 327 328 328 328 328 329 329 328 326 325 329 331 330 329 328 327 325 324 324 324 323 323 323 323 323 323 323 323 323 322 321 321 320 320 319 317 314 315
330 330 330 329 328 328 329 329 329 328 329 329 327 325 326 328 330 330 329 328 327 326 324 325 324 324 323 323 323 323 323 323 323 322 321 320 320 320 320 319 318 316 316
329 329 330 329 328 329 329 329 329 329 328 327 326 325 326 328 330 330 329 327 327 326 326 325 324 324 324 323 323 324 323 323 322 320 320 320 320 320 319 318 317 316 315
329 329 330 329 329 330 330 330 330 329 328 327 326 325 326 328 330 330 328 327 327 327 326 325 325 324 324 324 323 323 323 323 323 322 321 319 317 317 319 322 323 318 315
328 329 329 330 330 331 331 330 330 329 329 329 328 327 326 327 329 329 328 327 327 326 326 325 324 324 324 324 323 323 323 322 322 321 318 316 316 319 322 323 323 323 320
329 329 329 330 331 330 330 329 330 329 329 329 329 328 326 328 329 329 329 327 327 326 325 323 323 323 322 322 322 323 323 323 323 321 319 318 319 319 322 324 324 325 324
329 329 330 330 330 329 328 329 328 327 329 329 329 329 327 328 329 328 328 327 327 327 325 323 323 323 323 323 322 322 323 323 323 322 322 323 322 322 323 324 324 324 324
329 330 330 330 330 329 327 326 327 326 323 324 330 330 329 326 328 328 328 326 325 326 325 325 323 323 323 322 322 323 324 324 324 323 323 322 322 321 321 323 324 324 324
328 329 330 330 330 330 328 325 324 323 324 325 329 330 329 327 328 328 327 326 324 324 325 325 325 325 325 324 325 325 324 324 323 323 323 323 322 322 322 322 322 323 324
328 328 330 330 330 330 329 327 325 323 321 324 328 330 329 328 326 328 327 326 324 323 324 323 324 325 325 326 325 324 324 324 324 323 323 323 324 324 324 324 324 323 324
326 328 328 328 329 330 329 329 328 325 321 321 324 327 330 330 328 326 328 327 326 326 324 323 323 324 325 323 326 325 324 323 323 323 323 324 326 325 326 326 325 325 325
324 325 327 327 327 328 329 328 328 327 325 322 321 322 325 328 328 327 326 327 327 328 328 327 326 325 324 326 325 324 325 325 324 324 324 324 325 324 323 323 324 324 324
319 324 323 325 326 326 326 327 327 327 327 327 326 324 321 321 327 328 328 328 326 326 327 327 328 328 327 326 324 325 326 325 324 324 324 323 323 322 322 322 323 323 322
316 318 320 325 323 323 324 324 325 326 326 327 327 326 326 325 322 323 325 325 326 326 325 325 325 324 325 326 326 326 326 326 326 326 326 326 326 325 325 323 322 322 321
314 315 317 319 321 325 327 322 322 322 323 324 326 326 326 326 324 324 324 324 324 325 324 324 324 324 323 322 322 323 325 325 326 327 327 327 326 325 323 323 323 322 322
312 313 314 316 318 318 320 323 326 325 321 320 321 323 325 325 325 324 324 324 324 324 324 324 324 323 323 322 321 320 320 319 318 318 319 319 320 319 319 320 321 321 321

GFSGL_925_thetae_024.txt.gz
Theta_e
334 333 333 332 332 332 331 331 330 328 326 327 326 326 327 328 328 328 328 328 328 327 327 327 327 327 326 326 326 326 324 325 325 325 327 329 330 330 329 328 330 332 332
331 331 330 330 330 331 331 330 328 326 326 326 327 327 327 327 327 327 328 328 328 327 328 327 328 328 327 327 327 327 326 325 325 326 324 323 324 327 327 327 327 325 323
330 330 330 329 329 328 328 327 326 326 327 327 326 326 329 328 328 328 328 329 328 328 328 328 328 328 327 327 326 326 325 325 325 324 321 320 320 321 321 320 321 319 321
330 329 329 328 328 329 327 327 327 327 326 326 328 328 328 329 329 329 329 329 329 328 328 328 328 328 327 327 325 325 324 324 324 321 319 319 319 319 319 319 318 317 317
329 329 329 329 328 328 327 327 326 326 325 328 329 329 328 329 328 329 328 328 328 328 329 329 328 328 327 326 324 324 324 323 322 321 320 318 318 318 318 317 317 317 317
330 330 330 330 329 328 327 326 326 326 326 329 329 328 326 329 329 329 328 329 327 328 328 328 329 326 325 324 324 324 324 322 321 320 319 319 318 317 317 317 316 316 316
330 330 330 330 329 327 327 326 326 326 328 329 328 327 323 328 329 329 328 328 327 327 326 326 325 324 324 323 323 323 323 322 322 320 320 319 319 318 317 317 316 317 316
331 331 331 329 328 327 325 326 326 326 328 329 328 324 324 329 330 329 328 327 327 327 327 326 324 324 323 323 323 323 323 322 320 320 320 319 318 318 318 317 317 316 316
331 331 331 328 327 327 327 326 326 327 328 328 326 324 324 329 330 328 327 327 327 326 326 325 324 323 322 323 323 322 321 321 321 320 319 319 318 318 318 317 317 316 314
331 331 329 328 327 326 326 326 327 327 328 327 325 325 325 330 330 328 327 326 325 325 325 324 324 322 322 323 322 321 321 320 320 319 319 319 319 319 318 318 317 316 314
331 330 329 328 326 326 326 327 327 327 327 327 326 325 326 329 330 328 328 326 324 324 323 322 322 322 323 322 322 322 321 321 320 319 319 319 319 319 318 318 317 316 315
330 329 329 328 327 327 327 327 327 327 327 326 326 324 326 328 330 329 328 327 324 323 323 323 322 322 323 323 323 323 322 322 321 320 320 320 319 318 318 318 319 315 314
329 329 330 328 327 327 328 328 328 327 327 326 325 325 326 328 330 329 327 326 326 324 323 322 322 323 323 323 323 323 323 322 322 320 319 319 320 320 319 318 317 315 314
329 329 329 328 328 328 328 328 328 328 326 326 325 324 325 327 327 328 327 326 326 325 323 323 323 323 323 323 322 322 322 322 322 321 320 321 320 319 319 318 318 317 316
328 328 329 329 328 328 328 329 328 328 328 328 327 325 326 326 328 328 327 326 326 325 324 323 323 323 322 322 322 322 322 321 321 321 321 320 319 319 319 321 320 317 317
327 328 329 329 328 329 329 328 329 329 328 328 328 327 326 327 329 328 326 326 326 326 323 322 323 322 321 321 321 322 322 322 322 321 321 319 317 318 318 321 321 322 322
327 328 328 329 329 329 328 327 326 327 329 328 328 328 326 327 328 328 326 326 325 325 324 323 323 323 322 322 321 322 322 322 322 321 319 315 315 317 320 321 323 323 323
327 328 328 329 330 329 327 327 327 325 323 326 328 328 327 327 328 328 326 326 325 325 324 324 323 324 323 323 322 322 322 323 322 320 318 317 316 317 319 321 322 322 322
327 328 328 329 330 329 328 326 325 324 323 323 327 328 328 326 327 327 327 326 324 324 324 323 324 324 323 323 322 322 322 323 323 322 322 322 322 322 321 321 321 321 323
326 328 329 329 329 329 328 326 323 322 322 322 326 328 328 326 326 326 326 326 325 326 325 324 324 324 324 323 322 323 323 323 323 323 323 323 322 322 322 322 321 321 321
325 326 327 328 329 329 329 328 326 324 322 322 323 327 330 329 327 327 327 327 327 325 325 325 325 324 324 325 324 323 323 323 323 323 322 322 322 322 322 323 323 323 323
323 323 325 327 328 328 328 329 329 327 326 324 323 322 325 328 328 327 326 327 327 327 327 325 324 324 323 323 323 323 324 324 324 324 324 323 323 323 323 323 324 324 324
319 321 321 323 325 326 327 328 328 328 328 328 327 324 321 322 326 327 328 328 327 326 326 326 327 326 325 324 323 324 324 322 323 324 323 323 322 322 322 323 323 323 323
316 317 318 321 322 321 323 324 325 326 327 327 327 326 325 324 323 323 323 325 326 327 327 327 326 325 326 326 327 326 324 324 324 323 321 323 323 323 322 321 321 321 322
314 315 316 317 318 319 321 322 321 320 322 323 325 325 325 325 325 325 325 324 324 324 325 325 325 325 325 325 324 323 323 325 326 325 324 324 324 323 323 322 322 322 321
307 308 309 313 315 318 321 323 325 325 324 323 321 319 320 323 324 324 323 323 323 323 324 324 324 325 325 325 324 324 323 322 321 322 324 324 324 324 324 324 323 322 322

GFSGL_925_thetae_027.txt.gz
Theta_e
336 336 336 335 335 335 335 334 333 330 330 330 329 329 329 330 331 329 329 329 330 331 330 330 330 330 328 327 328 328 328 330 330 328 329 329 329 329 329 330 329 330 332
336 335 335 334 334 334 333 332 330 329 329 328 329 329 329 329 330 330 330 330 329 331 330 330 330 330 330 329 329 330 328 329 329 328 325 326 327 327 328 328 331 331 331
333 333 333 333 333 333 332 330 329 328 328 329 329 329 331 331 331 331 328 329 329 331 331 330 330 331 331 330 329 330 330 329 329 326 321 322 322 325 324 324 324 322 322
332 332 332 332 331 331 329 329 328 329 329 328 329 331 331 331 331 330 330 329 329 331 331 331 331 331 330 328 328 329 329 329 327 323 321 320 320 320 320 320 320 320 320
331 331 331 331 330 329 329 329 329 328 328 331 331 331 330 330 328 329 331 329 328 330 329 331 331 330 328 328 328 328 328 326 324 322 321 320 319 319 319 319 319 319 319
331 331 331 330 330 330 329 328 329 328 330 331 330 329 329 328 329 329 328 329 328 330 328 330 326 326 326 325 325 326 327 325 323 321 320 319 319 318 318 318 317 317 317
332 332 332 331 330 329 328 328 328 329 329 328 330 327 327 329 329 328 328 328 327 326 326 326 324 324 324 324 324 324 324 323 323 321 320 319 318 318 318 318 318 318 317
332 332 332 330 330 329 328 328 329 329 329 329 329 326 328 330 329 328 327 326 327 326 326 325 323 323 324 324 323 323 322 322 321 322 321 319 318 317 317 318 318 315 315
334 333 331 329 329 328 328 329 328 326 328 328 328 326 329 329 328 327 327 327 326 325 325 324 324 323 323 323 323 322 321 321 321 320 320 319 318 318 317 317 316 317 316
334 333 330 329 329 329 329 329 327 327 328 328 327 326 328 329 328 326 326 326 325 324 324 323 323 322 322 323 322 320 319 319 320 319 318 318 317 317 317 318 318 319 317
333 332 330 330 329 329 330 329 330 328 329 328 327 328 327 328 328 327 326 325 325 322 323 322 322 322 322 322 322 320 319 319 319 318 318 317 318 317 318 320 321 321 319
332 331 331 330 328 329 330 330 330 330 330 329 328 328 325 328 328 327 326 325 324 323 321 322 322 322 322 322 322 320 319 320 320 319 318 318 319 318 320 321 320 319 319
332 332 331 330 329 330 330 330 330 331 330 329 329 328 327 327 328 327 327 324 323 323 321 322 322 322 322 322 321 320 321 321 321 321 321 322 322 322 321 321 320 318 318
332 332 330 331 330 330 330 330 330 330 330 329 329 328 328 326 327 326 326 324 323 322 322 322 322 322 321 321 321 322 324 323 323 323 323 322 322 321 321 320 320 319 317
332 332 331 331 331 331 331 330 331 331 330 330 329 329 328 327 326 326 325 323 323 321 322 322 323 321 320 322 323 324 324 324 325 324 323 322 322 322 322 321 320 319 319
332 332 332 331 331 331 330 327 328 328 328 328 328 328 327 329 328 327 326 326 324 322 323 323 323 323 323 324 325 325 324 323 324 324 324 324 323 322 321 321 321 319 318
332 332 331 331 331 331 330 330 330 327 328 328 328 327 326 328 328 326 326 326 324 323 324 324 323 323 323 324 326 325 325 324 324 324 323 322 321 320 320 323 323 323 324
331 330 332 331 331 332 330 329 330 330 331 329 327 326 326 328 328 327 326 325 324 326 326 325 326 326 325 325 324 326 326 325 325 324 323 321 321 321 322 323 324 324 325
330 329 330 331 332 332 330 328 329 329 328 330 326 326 325 327 327 327 326 325 325 325 326 325 326 325 326 326 326 325 326 326 325 324 323 321 320 319 320 321 322 323 324
329 329 330 331 331 331 330 329 327 327 327 327 330 329 325 326 323 324 325 328 327 327 327 327 326 326 325 325 326 325 325 325 325 326 325 324 324 323 323 323 324 324 324
328 328 328 331 331 331 331 331 329 326 326 327 328 329 329 328 327 325 325 327 328 328 327 327 327 326 326 326 326 325 323 324 326 326 326 326 326 325 325 325 325 325 324
325 328 328 329 330 331 331 331 331 330 329 328 327 326 328 328 330 329 328 327 328 328 327 327 327 327 327 326 326 326 326 326 327 326 326 326 326 326 326 326 325 325 325
324 325 326 328 329 329 330 331 331 331 331 330 329 325 322 326 329 329 330 329 329 328 328 327 327 327 327 326 326 326 326 325 326 327 327 327 327 326 326 325 325 325 326
322 323 324 324 325 326 327 328 329 328 329 331 331 329 326 324 325 327 328 329 329 329 329 328 328 328 327 327 326 326 326 326 326 325 325 325 326 326 326 325 325 325 326
315 318 319 320 322 326 328 328 326 324 324 325 326 327 327 327 326 325 325 326 327 328 328 328 328 328 328 328 328 327 326 326 326 326 326 326 325 324 324 324 324 325 326
308 309 309 310 310 311 313 313 313 316 317 317 318 321 322 322 324 325 324 324 324 325 325 326 326 326 327 327 327 328 327 326 325 324 325 326 326 326 326 325 325 325 325

GFSGL_925_thetae_033.txt.gz
Theta_e
348 348 348 347 345 345 344 344 343 342 340 339 338 337 336 334 333 333 334 333 333 335 335 333 333 334 331 330 329 327 326 327 333 331 333 334 332 332 334 333 332 329 329
347 346 346 346 344 343 341 341 339 338 337 336 335 333 332 331 333 334 334 333 333 334 334 332 332 332 332 330 330 331 329 332 329 333 332 332 333 332 331 331 331 329 329
345 344 343 342 341 341 340 338 337 336 334 332 331 330 330 331 333 334 334 334 334 333 332 332 331 332 332 332 333 334 333 331 331 332 328 328 330 330 328 328 329 329 330
341 341 341 341 340 338 337 336 334 332 331 330 330 330 330 332 333 334 334 333 334 330 334 332 331 332 333 333 334 334 334 334 331 329 326 325 325 326 326 325 324 326 323
338 338 338 337 337 335 334 333 332 331 330 330 330 332 332 334 333 335 335 334 334 333 333 333 333 332 332 333 333 333 334 332 330 326 325 323 323 324 324 323 321 321 321
334 334 333 333 332 332 332 332 331 330 330 330 330 332 334 331 329 329 333 333 332 331 333 333 333 331 331 331 331 332 332 331 328 326 326 323 323 323 322 321 321 321 320
332 332 332 332 332 333 332 331 330 331 331 332 331 331 334 330 329 329 331 332 333 332 334 334 333 331 330 329 329 330 331 330 329 328 325 324 322 322 322 322 321 321 319
332 332 331 331 332 332 331 330 331 332 333 334 333 334 334 328 329 328 330 331 331 331 331 332 332 330 330 329 330 330 329 329 328 327 326 323 322 322 322 322 320 319 318
332 332 331 331 330 329 329 330 331 332 333 333 333 334 334 329 327 328 329 327 327 327 329 330 329 329 327 328 329 328 326 327 327 326 324 323 322 322 321 320 319 319 318
332 331 330 330 330 329 330 330 331 331 332 332 333 333 332 329 327 327 328 326 325 325 325 327 328 326 326 327 327 325 323 322 323 322 321 321 321 320 320 321 319 319 318
332 331 329 328 329 329 329 330 330 331 330 332 333 333 331 331 327 327 327 327 326 326 324 325 324 324 325 326 324 324 323 322 319 319 319 319 320 320 321 320 319 319 319
331 330 330 328 329 330 332 331 331 331 333 333 333 332 332 328 326 327 327 326 325 325 324 322 323 323 324 324 324 322 321 319 318 318 318 318 319 319 319 318 319 321 321
331 331 332 330 331 332 333 333 332 332 331 332 332 332 330 327 326 325 325 325 326 325 323 322 322 322 322 322 321 320 320 319 318 318 318 319 319 320 320 319 319 322 324
330 331 331 331 332 333 333 334 335 336 335 334 332 332 330 325 324 324 323 324 323 322 322 321 321 321 320 320 319 320 321 320 320 319 319 319 320 320 323 324 325 324 323
331 332 332 328 333 335 333 334 336 333 334 334 332 332 330 329 326 325 326 325 324 321 321 322 322 320 320 319 320 322 321 321 322 321 322 323 324 324 325 325 325 322 322
330 332 329 330 330 333 332 330 329 329 330 330 329 331 330 329 326 325 324 324 323 323 325 325 324 324 324 325 326 325 325 324 325 325 325 325 325 326 326 326 324 322 321
332 331 329 329 332 331 331 331 330 327 328 328 328 329 329 327 326 325 323 323 322 324 326 326 325 325 326 326 326 326 327 326 326 326 325 326 326 326 324 323 321 320 320
332 328 329 330 328 332 331 332 331 330 330 327 326 328 328 327 326 324 323 322 323 325 326 326 326 327 327 327 327 327 327 327 328 327 327 326 325 324 323 323 322 322 322
329 329 329 330 330 329 330 332 332 332 331 328 324 327 326 326 326 325 323 325 326 327 327 327 327 328 328 328 328 327 328 327 327 326 326 326 326 326 325 324 322 322 322
329 329 330 330 329 328 329 330 332 332 331 330 330 328 323 324 323 322 324 327 328 329 329 328 328 328 328 328 328 328 327 328 327 327 326 326 325 324 322 322 321 321 322
329 328 330 330 328 329 327 327 329 330 332 332 330 329 328 329 327 326 328 328 329 329 330 329 329 329 329 329 328 328 328 328 328 327 327 327 326 326 325 324 324 324 323
328 326 327 329 328 329 329 328 326 326 327 330 329 327 328 328 330 330 330 330 330 329 329 331 330 330 330 329 329 329 329 329 329 329 328 328 328 328 327 327 327 326 326
329 327 326 327 329 329 329 329 329 328 327 327 330 328 328 330 331 329 329 329 330 330 330 330 330 329 328 328 328 329 330 330 330 329 329 329 329 329 329 329 329 329 329
328 330 330 331 329 328 328 330 332 331 329 328 330 329 328 328 329 331 331 331 330 330 330 330 329 329 328 329 328 327 327 328 328 328 329 330 329 329 329 328 328 328 329
313 314 317 321 323 323 324 322 321 322 322 321 321 323 323 322 321 321 322 325 324 325 325 323 324 324 323 323 324 325 328 329 328 328 328 329 329 328 328 328 328 328 328
305 306 305 305 306 308 309 309 308 308 308 308 309 308 309 309 309 310 311 313 315 316 316 314 311 308 309 316 318 320 323 325 326 328 328 327 328 328 328 328 328 327 327

GFSGL_925_thetae_036.txt.gz
Theta_e
349 350 350 351 350 350 349 348 348 345 345 344 342 340 339 338 337 335 334 334 334 333 331 330 333 332 331 331 329 328 328 327 330 327 329 329 331 330 331 331 326 328 328
348 349 349 347 346 346 345 345 345 343 342 341 340 337 336 335 334 334 333 334 333 333 332 330 333 332 330 331 330 327 325 327 329 331 331 330 331 331 331 332 330 329 329
347 347 346 344 342 342 342 342 340 339 338 336 335 334 332 332 332 332 334 334 333 333 332 331 332 331 332 330 330 330 329 328 328 329 329 331 331 331 330 329 326 329 330
345 344 344 343 342 341 340 339 337 335 334 332 331 331 331 333 333 334 334 333 334 333 333 331 331 331 331 331 332 332 331 330 329 329 328 327 328 328 326 325 324 325 326
342 341 341 339 339 338 337 335 334 332 331 331 332 332 333 333 335 334 335 335 332 332 330 330 331 332 332 332 332 333 332 331 329 326 326 325 325 325 325 323 321 322 322
342 341 339 339 337 336 334 332 332 332 331 332 332 333 332 330 329 329 332 333 332 330 329 332 332 331 331 331 331 331 331 330 328 326 324 324 325 324 323 322 321 321 320
336 335 335 334 334 332 331 331 332 331 330 330 332 332 334 328 328 328 332 333 331 332 333 332 332 332 331 330 331 331 332 329 327 326 324 324 324 324 323 322 322 321 320
332 332 334 334 333 331 331 333 331 331 332 333 333 334 330 329 328 329 331 332 333 332 333 332 332 331 331 330 331 330 329 329 327 327 325 325 324 324 324 323 321 320 320
333 332 333 333 332 331 331 332 332 331 333 334 334 334 330 327 328 330 330 329 330 330 330 331 330 329 328 329 329 329 328 328 328 326 325 325 325 324 323 321 320 320 319
333 332 332 332 331 333 331 331 331 331 334 333 333 333 329 326 327 328 327 326 326 327 328 328 328 327 327 329 328 327 325 325 325 324 323 323 323 322 322 322 320 320 319
331 332 331 330 329 331 330 331 331 332 333 333 333 331 330 327 327 327 327 327 326 326 326 325 325 326 327 327 326 325 324 323 323 322 322 322 321 321 321 320 320 320 319
330 330 332 331 332 331 330 329 331 332 332 333 332 331 328 327 327 327 327 327 326 325 324 324 324 326 325 324 324 324 323 321 320 320 320 320 320 321 320 320 320 320 320
332 330 329 329 329 331 332 331 331 331 333 333 333 332 328 326 326 326 325 325 326 324 323 323 323 324 324 324 323 322 321 320 319 319 319 320 320 321 321 320 320 321 321
333 331 330 332 333 332 334 333 333 333 333 333 333 332 327 325 324 324 324 325 323 322 322 322 322 322 321 320 320 320 320 319 319 319 319 320 320 319 319 319 320 322 322
333 333 332 332 333 332 332 333 332 333 334 333 333 331 328 326 325 324 324 324 322 322 321 320 320 319 318 319 321 321 320 320 320 320 320 320 320 321 323 320 322 323 325
332 332 332 333 335 332 330 327 329 328 330 331 331 331 329 328 326 325 325 324 322 322 323 321 321 320 320 320 322 323 321 322 321 321 321 321 323 323 325 325 326 324 323
332 331 332 333 333 333 332 330 326 326 328 329 330 331 330 326 325 324 323 323 323 324 326 324 323 323 324 325 323 324 324 324 324 324 324 325 325 325 326 326 326 326 322
332 331 332 332 332 332 332 331 330 330 329 325 327 327 326 325 324 324 323 323 323 325 326 325 325 326 326 326 327 327 325 325 326 326 326 325 326 327 327 327 326 323 322
330 330 329 333 333 330 333 331 331 331 328 324 323 325 325 325 323 323 323 325 327 326 327 326 327 327 327 326 326 327 328 327 326 327 327 327 327 327 326 323 323 322 322
329 330 330 332 332 332 332 332 332 331 329 329 328 323 324 324 323 322 323 326 326 328 327 327 327 327 328 328 328 328 328 326 328 328 327 326 326 327 326 325 324 323 323
328 329 330 328 332 332 332 332 333 333 331 332 329 326 325 325 324 324 325 327 328 329 329 328 328 328 328 328 329 328 327 327 327 328 327 327 326 325 324 324 324 323 321
329 329 330 330 328 331 331 331 334 333 331 331 330 327 327 327 326 327 328 328 329 330 330 330 329 329 329 329 329 328 328 328 327 327 328 328 327 326 326 326 325 325 325
329 327 328 329 330 330 330 328 328 333 331 329 329 327 327 328 329 329 331 330 328 330 328 327 329 328 328 327 328 327 327 328 327 329 329 329 328 328 328 328 328 329 329
326 328 330 328 329 329 326 328 324 324 329 328 329 328 325 323 324 324 323 321 318 318 319 316 318 319 319 322 322 322 324 327 326 327 329 330 329 329 330 330 330 330 330
312 313 315 319 320 320 319 317 318 316 315 316 316 316 315 315 314 315 317 316 314 312 308 308 305 309 313 315 317 318 322 325 326 328 327 327 327 328 330 330 330 330 329
307 306 305 305 304 305 306 307 308 308 307 306 306 306 306 306 306 306 307 308 307 306 304 303 305 308 309 309 310 313 316 320 322 323 324 323 322 322 324 324 324 326 327

GFSGL_925_thetae_039.txt.gz
Theta_e
346 346 346 348 351 349 347 344 343 341 341 341 342 343 342 340 339 336 335 335 334 332 332 332 331 331 331 329 330 328 329 327 324 328 328 327 325 326 329 328 329 326 329
348 349 349 351 350 346 343 346 343 345 344 342 343 341 340 338 337 334 334 334 334 333 332 330 328 330 331 330 329 326 325 328 327 328 329 329 330 330 330 330 328 328 328
349 349 349 349 348 346 348 348 346 345 343 341 339 338 336 335 333 332 331 334 333 333 332 330 328 332 330 330 330 327 325 328 328 329 329 331 329 329 328 328 328 327 328
346 344 344 345 345 345 343 342 341 340 339 337 335 334 333 333 332 331 334 334 333 332 332 330 331 332 331 331 330 329 328 328 329 328 329 329 328 327 327 324 324 326 327
344 342 342 341 341 340 339 337 335 333 333 332 332 333 333 334 334 334 334 334 333 333 332 330 331 331 331 330 330 331 329 329 328 327 327 326 325 325 324 323 322 324 324
342 341 340 340 338 336 334 334 333 331 330 333 333 332 332 331 331 331 332 333 332 332 328 331 328 330 331 331 330 331 330 329 327 326 325 325 325 324 323 322 322 323 321
340 339 338 337 336 333 330 330 332 332 333 333 332 332 330 328 328 329 332 332 330 330 329 328 330 330 330 330 330 331 330 330 329 326 325 324 324 324 323 322 323 322 321
338 336 336 332 330 329 329 332 331 331 332 332 332 331 327 328 328 330 332 331 331 331 331 330 331 330 330 330 331 330 329 327 327 326 325 324 324 324 324 323 322 321 321
333 333 331 330 330 330 332 332 331 332 332 332 332 329 328 328 330 330 330 330 330 330 331 331 331 330 330 330 330 328 327 327 326 326 325 324 324 324 324 323 321 320 320
332 332 330 329 330 332 332 332 331 330 331 332 331 329 327 327 327 328 328 329 328 327 329 329 328 328 328 329 328 327 327 326 325 324 325 324 324 324 324 324 322 320 320
332 332 331 331 330 331 331 330 330 332 333 332 330 328 326 327 327 326 326 326 327 327 327 326 326 326 328 328 327 326 325 325 324 323 323 323 323 322 322 323 322 321 320
332 332 331 331 332 331 331 330 331 332 332 331 330 328 327 327 327 327 327 326 325 325 324 325 326 327 327 326 326 325 324 323 323 321 321 320 320 321 321 321 321 320 320
331 331 331 331 330 329 330 332 332 332 332 330 329 327 325 326 326 326 326 326 325 325 324 324 325 325 324 324 324 324 323 322 321 320 320 320 321 321 321 320 320 320 321
331 330 331 330 330 330 329 331 331 331 332 331 330 326 324 325 324 325 325 325 323 323 323 323 324 324 323 322 321 321 321 321 320 320 320 320 321 321 321 320 320 320 320
330 331 331 332 332 331 331 332 332 332 333 332 331 327 325 324 324 324 323 322 321 322 321 321 321 320 319 320 320 320 320 320 320 320 320 320 320 320 320 319 320 321 322
332 331 332 332 330 328 329 327 328 332 332 332 331 330 326 325 324 324 322 321 321 321 321 320 318 319 320 321 321 320 320 320 320 320 320 320 320 321 321 319 320 321 322
331 332 333 332 330 328 326 326 324 325 331 331 331 329 327 325 323 323 322 321 323 322 321 321 320 320 321 322 322 321 321 320 320 320 320 320 321 323 322 320 321 324 325
332 331 333 333 332 329 327 327 327 326 324 323 328 328 325 324 323 322 322 323 323 324 322 321 321 321 322 322 323 322 322 322 321 322 321 323 322 323 324 325 325 325 325
332 332 332 333 331 330 329 328 328 326 321 320 323 324 324 324 323 322 323 324 325 326 325 324 325 326 326 325 325 325 324 325 324 324 324 325 325 324 325 325 325 325 325
330 330 332 331 332 331 330 330 326 324 323 323 322 322 323 323 322 322 324 325 326 326 326 326 327 327 326 325 326 327 325 324 325 325 324 325 325 326 326 327 326 325 324
329 329 330 331 331 332 332 329 327 327 326 325 323 324 324 323 322 323 324 325 326 328 327 327 327 327 328 328 328 327 328 328 327 327 327 326 326 327 326 325 324 324 323
329 330 330 331 332 331 332 331 329 329 329 326 324 324 325 324 323 323 324 326 327 328 329 329 328 327 328 328 328 328 328 327 327 327 327 327 327 326 326 324 324 324 323
329 329 330 330 328 330 332 333 331 331 329 326 324 325 326 326 325 327 324 324 324 324 322 325 322 324 322 324 327 326 326 328 327 327 327 328 327 327 327 327 326 327 327
324 325 324 322 323 321 324 324 326 328 328 326 325 321 320 320 317 314 312 312 310 310 313 314 315 316 318 319 320 322 323 322 325 327 327 328 328 329 329 329 328 328 328
316 311 313 316 313 315 312 311 311 311 311 311 310 309 309 309 310 309 307 305 306 307 307 308 309 310 311 312 314 317 318 321 322 323 322 324 323 324 322 321 319 320 320
313 308 306 306 305 305 305 305 304 304 304 304 304 304 303 303 302 302 301 300 298 298 298 298 299 300 301 301 304 307 310 314 316 318 319 318 317 315 314 311 310 309 309

GFSGL_925_thetae_042.txt.gz
Theta_e
332 337 339 342 342 341 341 344 347 346 344 342 341 341 340 341 340 341 339 337 336 335 333 333 332 331 331 330 329 329 328 328 323 326 328 329 327 327 327 328 326 326 328
338 341 341 342 344 345 347 347 345 343 342 341 341 341 341 341 340 338 336 336 335 335 332 332 331 330 331 330 330 328 328 327 326 325 327 327 327 326 328 329 327 326 329
342 344 347 347 348 347 345 343 342 341 341 341 343 342 341 339 338 335 334 333 333 333 332 331 330 328 330 330 330 326 325 327 327 328 329 328 327 328 327 328 327 327 328
347 347 347 347 347 344 343 343 344 344 342 342 340 339 338 337 335 333 331 332 333 333 332 332 330 329 331 329 330 327 326 328 328 329 328 327 326 326 326 323 324 326 328
345 344 345 344 344 344 345 345 344 342 339 338 337 336 335 334 332 331 332 333 333 333 332 332 330 330 331 329 330 328 327 328 328 328 326 326 325 324 323 323 323 325 326
342 341 341 341 340 340 338 339 340 337 334 333 332 333 333 333 334 334 333 333 333 332 332 331 330 330 331 330 330 330 328 327 326 326 325 326 325 324 323 322 323 323 321
340 340 338 337 336 334 333 332 331 331 331 332 332 331 331 331 330 331 331 331 331 331 330 329 329 327 329 331 331 330 329 327 327 328 326 326 324 324 323 323 324 323 322
339 338 336 335 334 333 332 331 331 332 332 331 330 328 328 328 328 330 332 331 329 329 330 328 327 329 330 330 330 330 329 328 327 327 326 325 325 324 324 324 323 322 323
337 336 334 331 328 329 331 331 332 333 332 330 328 327 327 328 330 331 331 331 330 330 330 328 327 329 330 330 330 329 328 327 327 327 326 325 325 324 325 324 322 322 321
333 331 330 328 328 329 331 331 331 331 331 330 327 327 328 328 328 329 330 329 329 330 330 330 329 329 330 329 329 327 325 325 324 324 324 324 324 324 324 325 323 321 320
331 330 329 329 330 331 331 331 331 331 331 329 326 326 326 326 327 326 328 328 327 328 328 327 327 327 327 328 328 327 326 325 324 324 323 323 323 323 323 323 323 323 320
330 329 330 331 331 331 330 330 331 332 329 327 326 325 326 326 327 326 326 327 327 327 326 326 326 327 327 327 326 326 325 324 323 323 322 321 322 321 322 323 322 321 321
330 330 330 331 331 331 330 331 331 331 329 327 324 322 324 325 326 327 326 325 325 325 325 326 326 326 326 326 325 325 324 323 322 321 321 321 321 322 322 321 321 321 321
330 330 331 331 331 330 330 331 331 330 329 327 323 323 323 324 325 325 325 325 324 324 325 325 325 323 323 323 322 323 322 322 322 321 321 321 321 321 321 321 320 320 320
330 330 330 330 330 329 330 329 331 331 330 329 327 325 324 323 323 325 325 323 322 323 323 322 322 321 320 320 320 321 321 321 321 321 321 321 321 321 320 320 320 320 320
329 330 329 328 327 326 326 325 328 330 331 330 329 327 325 324 324 323 322 322 322 321 321 320 319 319 320 320 320 319 320 320 320 320 321 321 321 320 320 319 320 320 320
330 330 329 328 327 326 326 324 318 322 331 331 329 326 324 324 322 321 321 321 321 321 321 320 319 320 320 321 321 320 320 320 320 320 320 320 320 320 320 319 320 320 321
331 331 330 328 327 326 326 325 325 326 325 325 326 325 323 322 322 321 321 322 322 321 321 320 320 320 321 321 321 321 320 320 320 320 320 320 321 321 323 320 320 320 322
331 331 331 329 328 327 326 326 324 323 320 321 324 324 323 322 322 321 323 324 323 322 321 321 322 322 321 322 322 321 321 321 320 320 320 320 322 321 323 323 323 323 324
330 331 331 330 328 327 327 324 322 321 321 322 321 322 323 322 321 321 322 323 325 325 324 323 324 324 325 324 323 324 322 323 321 322 321 322 323 323 322 323 324 324 324
331 331 331 330 329 328 327 324 323 323 322 321 320 319 320 321 321 321 321 325 327 327 327 326 326 326 326 325 326 326 324 324 324 324 324 324 324 325 325 325 326 326 326
330 330 330 330 329 329 326 325 325 324 322 322 321 322 322 322 322 322 323 322 323 325 325 326 326 326 326 327 327 327 326 327 326 326 326 326 327 327 326 326 326 325 324
329 330 330 329 330 329 327 327 327 325 323 323 323 324 323 323 323 321 317 315 315 318 317 319 320 322 323 322 323 325 326 325 325 325 326 328 328 328 327 327 327 328 327
325 324 323 323 326 327 328 328 326 324 323 321 318 317 315 313 311 311 310 308 308 309 311 312 312 313 316 317 318 320 321 323 324 325 326 326 325 323 324 322 322 322 321
320 319 317 315 314 315 316 316 316 315 311 309 307 308 308 306 305 303 303 303 304 304 303 305 306 307 309 312 313 316 319 321 320 319 320 319 317 317 315 313 312 312 311
310 309 309 311 309 307 308 307 307 307 305 304 303 302 302 300 299 298 299 299 297 296 296 296 297 298 299 299 301 303 306 309 313 314 311 306 306 303 302 301 302 303 302

GFSGL_925_thetae_045.txt.gz
Theta_e
318 322 327 328 329 331 334 335 338 343 344 345 345 343 341 341 341 340 339 338 338 337 335 334 332 331 331 331 330 328 328 327 322 325 327 328 328 327 328 327 327 326 326
319 323 326 328 333 337 339 342 343 344 345 344 343 341 341 341 339 340 339 338 337 334 334 333 331 331 331 330 328 328 327 327 326 324 327 327 327 327 327 328 326 327 327
328 333 338 340 341 341 341 341 342 344 344 342 341 340 340 340 340 340 338 335 335 334 333 332 331 331 330 329 328 328 326 326 326 327 326 325 326 326 327 326 326 329 328
339 341 342 342 341 342 344 344 344 343 341 341 340 340 340 339 339 336 334 333 333 333 332 331 331 330 328 328 329 327 325 327 327 327 327 326 324 325 325 325 324 325 327
342 343 343 344 344 345 345 343 341 341 340 341 341 341 340 339 336 334 331 332 332 332 332 332 331 329 329 330 329 327 326 327 328 326 326 325 324 324 324 323 323 323 324
344 343 344 344 344 343 342 341 342 340 341 340 339 338 337 335 332 330 331 331 332 332 332 332 331 330 330 329 329 328 327 327 327 326 325 325 325 323 322 322 323 324 322
341 340 339 338 337 338 338 339 339 337 337 336 335 334 333 332 332 333 333 332 332 332 331 331 330 329 329 330 330 329 327 327 327 327 325 324 324 324 323 322 323 323 321
339 337 336 335 334 335 336 336 335 333 332 331 331 330 330 331 331 331 330 330 330 330 330 329 329 328 328 330 330 330 328 327 327 327 328 326 325 324 324 323 323 323 323
337 336 335 332 331 330 330 331 331 330 330 329 328 328 328 328 329 330 331 330 329 328 329 328 327 326 328 329 329 329 328 326 326 326 326 326 326 324 323 323 323 322 321
336 334 331 332 331 331 331 331 331 331 329 327 326 326 327 329 330 331 330 329 329 328 329 328 326 327 328 329 329 328 326 325 326 325 325 325 324 323 323 323 323 322 321
333 331 330 330 331 330 331 331 330 329 327 326 326 326 327 327 328 329 328 328 328 328 328 328 329 329 329 329 329 328 326 324 324 324 324 323 323 323 323 323 323 323 322
329 328 328 328 329 330 330 330 330 328 326 325 325 323 323 325 326 327 327 327 327 328 327 327 328 328 327 327 327 326 325 324 323 323 322 322 322 322 323 323 323 322 322
328 329 329 330 330 330 330 329 328 327 324 323 323 323 324 326 326 325 326 326 326 326 325 325 325 326 327 326 326 326 324 323 323 322 321 322 322 323 322 322 322 321 321
328 329 330 330 329 329 329 329 329 327 324 323 323 323 323 324 326 326 325 325 325 325 325 326 326 326 325 325 323 323 323 322 323 322 321 322 322 322 322 322 321 320 321
328 329 329 328 328 328 328 328 329 328 328 324 323 323 323 323 324 325 325 324 324 324 324 323 322 322 321 321 321 322 322 322 322 321 321 321 321 321 321 321 321 320 320
328 327 326 325 324 324 325 323 328 329 328 328 327 325 324 324 324 324 324 323 323 323 321 321 320 320 320 320 320 320 320 321 321 321 321 321 321 321 320 320 320 320 320
329 326 325 325 324 322 321 323 320 323 329 328 326 325 324 323 323 322 322 321 320 321 321 320 320 320 320 320 320 319 319 320 321 321 321 321 321 321 320 319 320 320 320
329 328 326 325 325 324 324 323 323 326 323 323 324 324 322 321 321 321 321 321 321 321 321 320 320 320 321 321 320 320 320 320 320 320 321 321 321 321 321 320 320 320 320
329 328 328 327 326 325 324 324 325 324 321 321 322 322 321 321 320 321 322 321 321 321 320 320 320 320 320 321 321 320 320 320 320 320 320 320 321 321 321 322 320 320 320
330 329 328 327 325 324 323 323 322 322 321 320 319 320 319 320 320 321 322 324 323 322 321 321 321 321 322 321 322 322 320 321 320 320 320 320 321 321 321 322 322 322 322
330 329 328 326 325 323 322 322 323 323 322 320 317 319 321 321 321 321 323 323 324 324 324 324 325 324 324 325 323 323 322 322 321 321 321 321 321 322 323 323 322 322 323
329 328 327 327 326 324 323 323 322 322 320 319 319 320 321 321 320 320 316 316 317 318 319 321 322 323 323 324 325 325 325 324 324 324 324 324 324 324 324 324 324 325 324
329 329 328 327 326 325 324 323 322 322 320 321 321 321 320 319 316 312 310 310 311 312 313 314 314 315 316 318 320 322 323 324 323 323 324 325 326 326 325 325 325 325 324
328 328 328 327 326 325 325 323 322 322 322 318 317 315 313 311 309 306 305 305 307 307 308 308 308 309 311 313 314 316 318 319 320 322 324 322 322 320 321 320 318 316 315
324 324 323 324 323 323 322 321 314 312 310 309 307 306 303 302 302 301 301 300 301 302 302 303 302 302 303 306 307 308 309 313 314 315 314 314 313 312 311 309 307 305 304
316 317 316 315 315 315 312 308 306 305 303 302 301 300 300 298 296 296 296 297 297 296 295 295 295 296 297 298 300 301 302 303 303 304 303 303 301 300 300 300 300 300 300

GFSGL_925_thetae_048.txt.gz
Theta_e
325 331 325 319 325 329 332 331 330 331 333 336 339 345 345 345 344 343 341 341 339 338 336 335 334 332 329 328 328 328 328 326 326 324 326 327 328 328 327 327 328 327 327
328 333 325 319 325 329 330 330 332 333 337 339 344 345 345 343 341 341 340 338 338 336 336 334 332 331 330 330 330 328 327 327 325 326 325 325 327 327 327 327 327 327 327
331 331 320 320 326 329 331 333 335 337 341 343 344 343 342 340 340 339 339 338 338 337 335 332 331 330 330 330 328 327 326 326 325 326 325 325 324 326 326 326 328 327 327
336 329 327 329 330 332 335 339 341 342 342 343 342 341 340 340 339 339 339 337 336 334 333 332 331 330 330 329 328 327 325 325 326 326 325 323 323 324 325 324 324 325 325
334 334 336 336 337 338 340 340 341 342 342 342 341 340 340 339 339 339 335 334 333 333 333 332 330 330 329 328 327 327 325 327 326 326 325 323 324 324 324 323 323 323 325
338 339 339 339 340 341 340 341 342 342 341 340 340 340 339 339 338 335 333 331 331 331 331 331 331 331 329 328 329 328 326 327 326 326 326 325 324 324 323 322 322 323 323
341 340 341 342 341 340 340 340 340 340 340 340 339 340 338 337 334 331 330 330 331 331 331 331 331 331 330 329 328 328 326 326 327 327 326 325 324 324 323 322 323 324 323
340 340 340 339 339 338 337 336 337 338 340 338 336 334 333 331 331 331 331 331 331 330 331 331 330 329 329 329 328 328 326 326 327 327 327 326 324 324 323 322 323 322 323
337 336 336 335 334 334 333 332 334 335 332 331 331 330 331 331 331 331 330 329 329 329 329 329 329 327 327 329 329 327 326 326 326 326 326 326 326 324 323 322 322 321 320
335 334 333 333 333 333 332 332 330 330 327 328 327 327 328 329 330 330 330 329 327 327 328 328 327 326 326 327 328 328 324 324 325 325 325 325 324 323 323 323 322 322 321
333 332 332 332 332 332 331 329 327 326 326 325 325 326 327 329 329 329 329 328 328 327 328 326 327 328 327 326 328 328 327 325 324 325 324 324 323 323 323 323 323 323 323
331 331 330 330 330 330 329 327 326 325 324 323 324 324 324 326 327 328 328 328 328 327 327 328 328 328 328 328 327 327 326 324 323 323 322 322 322 322 323 322 322 322 322
330 330 329 329 329 329 328 325 324 324 323 322 323 323 323 323 325 327 326 326 327 327 328 327 327 326 326 326 325 324 324 323 322 322 321 321 322 323 323 323 323 322 322
328 328 328 328 329 328 327 326 324 323 323 323 323 323 323 324 324 325 325 325 325 325 325 324 325 326 325 324 324 323 323 322 323 322 321 322 322 322 322 322 322 321 321
329 328 328 328 327 326 325 326 325 324 324 323 323 323 323 323 324 325 325 325 325 325 324 324 323 322 321 322 323 323 322 322 322 322 322 322 321 322 321 321 321 321 321
328 327 326 324 322 321 321 322 324 326 324 324 323 324 324 324 324 325 324 324 324 323 322 321 320 321 321 321 321 321 321 321 322 322 322 321 321 321 321 320 321 320 320
325 324 323 323 322 321 322 322 318 323 325 324 324 323 323 324 324 324 323 323 323 322 321 320 320 320 321 321 321 320 320 321 321 321 321 321 321 321 321 320 320 320 320
325 325 324 323 322 322 323 323 324 323 321 319 322 323 322 321 321 321 320 320 320 321 321 320 320 320 321 320 320 319 320 320 320 321 321 322 321 321 320 320 320 320 320
326 325 324 324 324 323 324 324 324 323 318 314 319 320 320 320 320 321 321 321 321 321 321 321 320 320 321 320 320 319 320 320 320 320 321 321 321 321 321 321 320 320 320
326 325 325 323 323 324 324 324 322 319 319 319 317 318 320 320 321 322 322 321 321 321 320 320 320 320 320 320 321 320 320 320 320 320 320 320 321 321 321 321 321 320 320
324 325 325 324 322 323 322 323 322 322 320 317 317 319 320 320 317 317 316 317 318 320 321 322 321 321 321 322 321 322 321 321 320 320 321 321 321 321 321 321 321 322 322
326 325 324 323 322 323 323 324 322 320 319 317 317 318 320 319 314 311 310 311 312 314 316 317 319 320 322 323 322 324 323 322 322 322 322 323 322 322 322 323 323 324 324
326 326 324 324 322 322 323 323 321 320 319 318 317 317 318 313 310 307 305 305 307 310 311 313 313 314 314 317 319 321 323 322 322 322 322 323 324 324 324 323 323 321 319
327 326 324 323 322 322 322 321 320 321 319 315 312 310 309 308 304 302 302 302 303 304 305 307 307 308 309 311 314 316 317 319 320 322 322 321 319 318 317 314 312 311 312
326 325 324 323 322 321 318 315 314 312 310 308 305 305 302 302 300 298 299 299 298 298 298 299 300 301 303 304 305 307 311 314 313 314 312 311 308 306 305 303 302 301 300
319 319 319 319 316 313 310 308 306 305 303 302 301 300 299 298 297 296 295 294 294 293 293 293 294 296 298 299 300 301 302 304 304 303 304 303 301 299 298 298 297 295 295

GFSGL_925_thetae_051.txt.gz
Theta_e
318 322 325 326 330 331 332 335 336 337 337 332 334 337 342 346 346 345 345 344 343 341 339 339 338 337 335 334 333 332 331 331 332 330 329 327 328 328 328 329 328 331 329
319 322 326 329 330 331 331 333 335 337 335 337 340 342 345 346 346 345 345 342 341 339 338 337 337 334 334 333 332 332 332 331 331 332 328 327 327 327 326 327 327 329 330
318 324 328 331 330 331 331 333 335 337 338 340 342 344 346 346 345 343 343 341 338 338 337 336 336 335 334 333 333 333 331 330 330 330 328 326 326 326 327 327 328 329 327
321 327 331 334 331 331 333 336 337 338 340 342 344 345 346 345 342 340 339 338 339 337 336 336 335 334 334 334 332 331 330 330 330 330 328 326 325 325 326 325 326 326 326
322 329 334 336 332 332 335 337 339 341 342 343 345 345 344 342 340 340 340 340 339 337 336 335 334 333 332 333 331 331 330 330 329 328 327 325 324 324 326 325 326 325 326
328 333 337 336 334 336 339 341 342 343 344 344 344 343 342 340 339 338 339 338 337 336 335 334 333 330 330 329 328 328 330 329 328 327 326 326 326 325 325 325 325 326 327
329 335 339 337 338 339 341 342 342 343 343 343 341 340 340 338 338 338 334 335 334 335 335 335 334 333 331 330 328 328 326 327 329 329 326 325 325 325 325 325 326 325 326
328 338 338 340 341 340 342 344 344 343 343 341 340 338 338 338 335 333 330 333 334 334 334 334 334 334 332 331 328 328 328 328 328 329 330 326 326 325 326 326 325 325 323
328 337 338 341 340 342 343 342 340 337 336 335 337 336 335 333 331 330 331 334 333 333 332 333 333 332 330 329 329 330 330 327 326 327 328 328 326 326 327 325 325 324 323
334 339 340 340 340 341 339 336 334 333 332 332 331 331 330 331 331 331 331 331 330 330 329 328 328 330 328 328 328 329 328 326 326 326 325 326 325 324 324 325 325 324 323
335 340 340 339 338 335 333 330 330 329 329 328 327 327 327 329 329 329 329 330 329 328 329 327 326 326 327 326 328 327 328 324 325 328 327 324 323 323 323 323 325 325 325
335 337 336 334 332 331 329 327 326 326 326 326 326 326 324 328 329 328 328 329 328 329 327 326 327 326 325 326 327 327 326 325 326 324 324 323 324 323 323 325 326 325 325
334 333 333 332 330 328 327 326 326 326 327 327 327 326 325 322 327 327 327 327 327 328 327 327 327 327 327 326 327 326 325 325 324 323 322 322 322 323 323 323 323 322 322
332 332 332 330 329 328 328 327 328 327 327 327 327 326 325 324 322 323 325 326 327 327 326 324 325 325 325 324 323 323 324 324 324 323 322 321 321 321 322 321 322 322 324
332 332 331 330 329 327 327 329 328 328 328 327 326 325 325 325 326 326 326 326 324 325 323 322 324 322 321 322 323 323 324 324 323 323 323 322 322 321 321 321 322 323 323
330 330 326 324 324 324 323 323 325 325 325 325 325 325 324 324 324 324 325 325 324 324 323 323 322 322 322 322 323 323 323 323 323 322 322 321 321 322 321 321 323 323 323
329 327 327 326 326 325 324 323 317 321 323 323 324 323 324 324 324 324 324 323 322 323 322 322 322 322 322 321 322 322 322 321 322 322 322 322 322 320 321 320 321 322 321
328 327 328 326 325 327 327 326 323 323 318 318 322 323 324 323 323 322 322 322 321 322 321 321 322 323 322 322 321 321 321 321 322 322 323 323 322 321 320 320 321 323 324
329 327 327 327 327 327 326 326 324 320 316 316 319 319 320 320 320 320 321 321 321 321 321 321 323 323 321 321 321 322 321 323 323 323 324 322 322 322 321 321 321 321 320
328 328 327 326 326 326 326 324 320 318 320 321 319 318 320 321 321 320 321 322 322 322 321 322 321 321 321 322 323 322 322 321 322 322 321 321 321 321 321 321 322 322 323
325 326 326 327 326 326 325 322 321 321 321 320 319 319 319 316 313 315 317 317 317 319 319 320 320 320 321 323 323 322 321 323 321 320 321 320 321 322 322 323 325 325 325
325 325 326 326 326 325 325 323 322 321 320 319 315 315 317 311 308 307 307 309 310 313 315 317 318 318 319 319 321 322 323 323 323 322 322 323 322 324 325 325 325 326 326
327 325 324 325 325 324 323 322 321 320 319 316 314 311 309 305 305 303 303 305 305 306 308 307 308 307 311 316 318 319 318 318 320 323 325 326 323 322 322 321 321 319 313
328 324 324 324 324 323 322 321 321 319 316 314 310 308 305 304 300 300 299 299 299 298 299 300 301 303 310 313 315 317 318 315 319 321 321 316 313 311 310 307 307 307 307
327 323 323 323 323 321 320 319 316 313 309 307 304 303 302 301 298 296 295 295 294 295 295 296 298 302 304 305 306 309 312 314 313 312 311 310 305 304 301 300 300 299 298
323 322 321 318 316 314 313 310 309 307 304 302 302 300 299 296 294 293 293 293 292 293 293 294 295 297 298 299 301 303 304 305 305 305 303 302 301 298 297 295 294 295 295

GFSGL_925_thetae_054.txt.gz
Theta_e
319 320 321 323 326 329 333 337 338 343 343 343 345 346 346 345 346 347 348 349 349 349 347 346 344 340 340 340 339 338 337 336 335 335 333 331 332 332 332 332 332 332 329
317 318 319 322 326 330 332 336 337 339 342 343 344 344 343 343 347 348 349 348 349 348 346 344 341 341 340 339 338 337 334 334 333 335 331 331 331 330 330 330 332 331 331
320 319 319 322 326 330 333 336 337 337 340 343 343 342 342 343 347 348 349 348 347 345 342 342 341 340 340 338 336 335 334 334 333 333 332 330 328 328 328 329 331 331 331
322 321 321 323 328 331 334 336 337 337 339 342 342 342 341 344 347 348 349 346 344 342 342 341 340 340 338 336 335 334 334 333 332 332 331 330 329 327 327 328 329 330 329
324 323 323 324 327 332 336 336 336 337 338 341 342 342 344 346 346 348 346 343 342 341 340 339 339 337 335 335 334 334 333 332 331 332 330 329 329 327 329 327 329 329 327
322 325 326 328 330 332 337 336 338 339 340 341 343 344 346 345 345 343 342 341 341 340 340 339 337 335 334 333 332 333 333 333 333 332 330 330 329 329 329 328 328 328 329
321 323 327 329 332 335 337 337 339 341 343 344 345 345 346 343 341 340 341 340 340 339 338 337 335 333 333 332 329 328 330 331 331 332 330 329 328 328 329 329 328 329 328
321 323 328 330 334 337 337 340 343 346 346 346 345 345 345 339 339 338 338 338 336 336 335 335 335 335 335 334 332 331 331 330 330 331 332 330 327 330 329 328 329 328 328
321 325 329 332 339 339 340 343 346 346 346 346 345 344 340 336 337 335 332 336 336 336 335 335 335 335 335 333 333 332 332 331 330 330 331 329 328 328 329 329 329 327 326
320 326 329 334 339 340 344 344 345 345 344 343 343 341 337 336 334 330 333 333 335 335 334 335 334 334 333 331 333 332 332 332 329 328 328 326 326 327 327 328 328 326 326
322 327 328 336 339 341 342 342 343 342 340 340 337 334 334 333 331 331 334 334 333 333 332 332 330 331 328 328 331 331 332 331 330 330 330 329 328 327 326 328 326 326 326
323 329 332 337 339 339 338 339 340 339 336 334 332 333 333 331 330 330 330 332 332 332 331 331 328 327 327 327 328 328 328 330 330 330 330 329 328 327 327 326 327 327 327
329 330 336 337 336 336 335 336 334 333 332 333 333 332 330 329 327 328 329 329 331 332 330 328 326 325 325 326 327 327 327 329 329 329 329 328 327 327 327 328 328 328 327
330 334 334 334 334 335 334 333 332 332 332 332 331 331 329 329 329 328 327 327 330 329 327 327 326 327 329 326 326 326 329 327 329 327 326 325 325 326 326 326 326 325 326
333 332 333 332 332 332 329 330 331 331 331 331 331 330 330 330 330 330 329 329 328 326 324 325 327 327 326 327 327 327 327 326 326 327 326 325 325 325 325 325 325 325 326
332 332 331 329 327 328 328 323 329 328 330 330 329 329 327 328 327 327 328 329 327 325 327 328 327 327 327 327 326 326 326 326 325 325 326 325 325 324 324 325 325 325 326
332 330 329 328 331 330 329 326 322 323 325 325 326 325 325 324 325 325 325 325 324 324 326 326 326 326 326 326 326 325 325 325 325 325 325 325 325 325 324 322 325 325 324
331 330 331 331 330 330 329 327 326 326 324 321 323 324 324 324 324 324 323 322 322 323 324 325 325 325 325 325 324 324 324 324 325 325 325 325 324 325 322 321 321 321 323
329 330 329 329 329 330 329 328 326 324 321 314 318 321 323 323 323 322 322 325 322 321 322 323 325 324 324 324 323 323 323 323 324 324 325 325 325 323 323 322 322 323 324
330 330 330 330 330 329 327 326 324 324 324 323 321 317 318 320 320 321 323 324 324 322 321 324 324 324 323 323 324 323 324 324 325 326 325 325 323 324 323 323 324 323 321
330 329 329 330 328 328 327 326 326 324 323 322 320 321 322 320 317 317 318 318 321 322 324 323 323 323 324 325 325 324 324 324 324 323 323 322 323 324 325 324 326 325 325
329 329 329 330 328 327 326 325 324 322 321 315 311 315 317 311 309 308 308 309 311 314 316 317 318 316 319 322 322 324 325 324 322 324 325 325 325 324 325 327 327 327 327
329 329 330 328 327 325 324 323 323 321 318 313 313 311 308 306 306 306 305 306 308 309 312 313 313 313 314 315 320 322 322 322 323 325 326 327 326 325 323 320 320 316 314
329 329 328 327 326 324 322 321 321 320 316 314 311 309 304 304 304 303 304 302 303 305 308 310 310 307 308 309 315 315 317 317 321 321 323 322 318 317 314 312 309 309 308
327 327 326 325 324 323 321 319 319 317 312 312 309 308 301 300 303 302 301 300 299 300 299 298 300 301 304 309 312 313 313 314 311 316 314 311 309 308 308 306 303 302 301
325 325 324 323 322 320 318 316 315 313 309 308 308 305 302 300 300 299 298 297 297 297 296 295 295 298 301 303 304 305 307 308 305 304 303 301 299 298 297 296 296 296 297

GFSGL_925_thetae_057.txt.gz
Theta_e
318 320 320 321 323 324 328 332 335 340 343 347 341 345 351 353 354 355 350 346 348 350 348 351 350 349 346 343 341 340 339 337 341 337 336 336 334 335 334 333 334 333 329
318 319 319 320 321 323 327 330 334 339 342 344 345 346 348 352 353 352 349 344 350 349 350 349 349 347 345 344 341 338 338 337 336 338 337 334 334 332 334 332 334 332 333
318 320 321 323 323 324 327 329 335 337 339 342 343 344 347 349 349 349 348 347 349 349 350 350 346 343 344 343 342 339 337 335 335 335 336 333 333 331 330 332 333 333 332
320 320 321 323 324 324 326 330 333 336 338 339 343 344 346 346 346 348 348 347 349 349 348 346 344 343 343 342 340 337 334 335 333 334 335 333 331 329 329 331 331 332 331
319 319 321 324 324 324 325 328 332 335 336 338 341 344 345 345 344 348 348 348 349 348 346 345 343 342 341 339 336 334 334 335 334 335 334 333 331 329 330 329 331 330 330
319 320 321 322 323 325 328 330 333 337 338 339 340 342 344 343 343 346 348 349 347 346 345 343 342 339 337 335 334 334 336 335 335 334 332 331 331 330 332 331 331 330 331
319 319 319 322 323 324 326 329 333 339 340 342 342 343 345 345 345 346 347 346 345 344 343 341 340 338 336 335 333 333 333 333 334 334 334 332 331 331 330 331 330 330 330
317 318 317 321 323 324 328 329 335 340 343 346 346 345 347 345 346 346 343 344 344 343 341 341 339 337 335 334 333 331 331 332 331 331 334 332 332 331 330 331 330 332 331
317 317 318 319 323 325 328 331 338 342 345 348 348 348 349 341 342 341 341 342 340 339 338 336 335 335 337 334 335 332 333 332 331 331 332 332 329 328 330 329 331 330 329
317 317 318 319 323 328 330 336 339 343 346 347 347 348 346 340 340 338 338 337 337 336 336 337 335 336 335 334 334 334 333 333 331 331 330 329 328 329 328 330 330 329 328
317 318 319 321 325 331 335 338 340 343 345 345 346 344 340 338 337 335 334 335 335 336 335 335 335 334 334 333 333 334 333 333 331 331 330 329 329 329 328 330 331 328 327
318 318 319 322 328 332 337 338 342 342 343 343 343 340 339 333 332 330 335 334 334 334 333 333 331 332 330 330 332 332 331 331 331 332 331 330 330 329 328 329 329 328 327
318 319 321 326 331 334 338 339 340 341 342 341 340 339 336 333 330 332 332 332 332 333 332 332 328 328 328 328 328 327 327 329 330 332 331 330 330 329 327 328 329 331 330
319 320 324 330 332 336 337 339 341 340 339 339 337 335 334 333 331 330 330 331 332 331 329 327 326 326 327 327 327 327 329 329 329 329 330 330 329 328 328 329 329 329 329
322 325 331 333 336 336 333 337 339 338 337 335 334 333 332 332 332 331 331 331 332 330 328 327 328 329 329 329 329 329 330 328 328 329 328 328 327 327 328 328 328 328 328
324 331 334 334 328 329 326 322 328 330 332 332 331 331 328 329 330 330 330 330 330 328 329 330 329 329 329 329 329 329 328 327 328 328 328 327 326 326 327 327 327 327 327
327 333 332 330 332 331 330 328 327 325 329 329 330 329 328 329 329 329 329 328 327 327 330 330 329 329 328 328 328 327 328 328 327 327 327 327 327 326 325 326 327 326 326
330 331 334 334 332 332 331 331 331 331 330 325 324 326 327 327 327 327 327 326 326 329 329 328 328 328 328 328 327 327 327 327 327 326 327 327 327 326 326 326 326 326 325
331 332 332 332 331 330 330 330 329 329 325 319 320 323 324 325 325 324 324 325 324 325 327 327 327 327 327 326 326 326 325 325 325 326 326 327 326 327 326 326 323 323 325
330 330 330 331 330 330 330 330 327 324 324 324 319 316 319 321 322 324 326 325 325 323 324 326 326 325 325 325 325 324 325 324 325 326 327 326 327 326 324 326 325 326 325
329 329 331 331 330 329 329 328 327 327 325 323 322 322 323 322 320 319 322 323 323 323 324 325 324 324 324 325 325 325 326 326 326 326 326 326 324 324 324 323 325 325 325
331 331 331 330 329 329 328 326 325 323 320 318 316 320 319 316 316 315 317 318 320 322 322 321 322 322 323 324 325 326 326 326 326 326 326 324 325 327 326 326 326 326 326
330 330 330 329 329 327 327 325 323 322 319 318 316 315 315 313 314 313 312 312 315 317 317 318 318 318 318 321 322 324 324 325 325 326 327 327 327 326 326 324 321 318 317
330 330 330 329 328 327 325 324 321 319 317 314 310 308 306 308 308 307 307 308 310 312 310 310 310 311 312 317 316 317 319 321 322 322 324 322 320 320 318 316 315 315 312
330 329 328 327 326 325 323 321 319 316 314 309 306 306 304 305 304 303 303 304 304 305 305 302 302 307 313 315 316 314 315 318 316 316 313 310 308 307 308 304 301 298 299
328 327 326 325 324 323 321 320 318 318 313 310 305 303 305 303 303 301 300 301 299 297 296 295 297 301 304 306 307 308 310 310 309 305 303 302 301 300 300 299 298 298 297

GFSGL_925_thetae_060.txt.gz
Theta_e
316 320 320 321 323 323 325 326 327 331 334 337 331 344 345 355 356 356 357 356 355 354 352 349 351 349 349 346 344 343 341 339 339 337 337 337 336 335 335 333 334 333 332
319 319 319 319 321 324 322 322 329 330 334 337 341 341 346 344 353 355 357 356 355 352 349 350 350 349 350 347 344 343 340 338 339 337 336 335 334 333 333 333 332 332 332
320 320 319 320 323 323 323 324 324 328 331 336 341 343 347 349 350 354 356 355 351 350 351 350 351 351 349 345 344 342 338 337 337 337 337 334 333 332 330 331 332 332 331
317 320 319 322 322 324 327 327 325 325 331 336 339 342 346 346 349 354 355 353 348 351 351 351 350 349 346 345 343 341 338 338 336 335 334 334 332 329 329 330 331 331 329
316 321 322 322 322 323 325 327 326 327 331 334 337 341 342 346 348 352 352 351 350 350 350 351 349 346 344 342 341 339 337 335 334 334 333 334 332 330 328 329 331 330 330
319 319 320 322 321 323 324 328 326 327 329 334 337 339 342 344 348 350 350 350 350 350 350 348 345 343 342 341 339 337 336 336 335 334 333 333 332 330 331 329 330 331 329
315 318 320 319 321 321 323 325 328 331 329 331 339 340 341 344 347 346 349 350 351 349 348 345 343 340 339 338 334 333 335 335 333 334 333 332 332 331 330 331 330 330 331
314 316 318 319 319 320 321 325 326 328 330 337 339 342 342 346 347 346 347 349 348 346 346 344 342 340 338 337 335 333 333 332 332 331 332 333 332 331 329 331 330 330 330
314 315 315 315 319 320 320 324 326 329 332 336 340 344 343 345 345 346 347 346 346 345 343 342 340 338 337 335 334 333 332 333 332 331 332 332 331 332 330 330 330 331 331
314 314 316 317 318 319 320 324 325 329 334 336 340 344 345 345 346 346 345 345 343 341 339 339 338 337 336 334 336 333 334 332 331 330 331 331 329 328 329 329 329 330 329
314 314 316 318 319 318 321 323 328 330 335 335 341 344 344 344 343 342 343 341 340 339 338 337 335 335 335 335 334 333 333 332 331 331 330 329 329 329 328 329 330 330 329
314 315 316 318 318 319 322 325 328 334 337 339 342 343 342 339 339 339 339 337 337 336 336 336 335 334 334 333 332 332 333 332 331 332 330 330 329 330 329 329 329 329 328
315 316 317 319 319 320 321 326 332 335 337 340 341 341 338 332 332 334 333 334 335 334 335 334 332 332 330 330 332 331 331 330 330 330 330 330 330 330 329 328 328 328 329
315 317 318 319 320 321 323 326 331 335 338 339 341 338 336 331 330 332 332 333 332 332 331 329 328 328 329 329 327 327 329 329 329 329 330 329 329 329 326 328 329 329 329
315 317 318 319 319 320 323 327 332 337 339 340 339 337 334 333 332 332 332 332 331 329 328 327 327 328 328 327 328 329 328 328 329 329 329 329 329 328 329 329 329 328 328
316 317 318 321 322 324 323 319 327 334 339 338 337 335 334 333 332 331 331 333 331 328 328 329 330 330 329 330 330 330 329 329 329 329 329 328 327 327 327 327 327 328 327
317 318 320 322 325 327 326 323 324 319 335 334 333 332 332 331 330 330 331 331 329 329 331 330 330 330 330 329 329 329 328 328 327 328 328 327 327 326 326 327 326 326 326
321 323 324 328 329 327 329 330 330 329 326 319 327 329 330 330 329 329 329 329 328 330 330 330 330 329 328 328 327 328 328 327 327 327 327 327 327 327 326 326 326 326 326
324 326 332 332 332 332 332 332 329 325 321 318 321 326 328 328 328 327 327 328 330 330 329 329 329 328 328 327 327 327 327 326 327 327 327 327 327 326 326 326 326 325 325
327 331 332 331 332 332 330 327 325 324 324 321 319 318 323 324 325 326 326 326 326 326 327 327 327 327 326 326 325 325 325 325 325 326 327 327 326 326 326 325 326 326 325
331 331 331 331 331 329 328 326 326 324 322 320 320 323 325 324 324 326 326 325 324 325 326 326 326 325 325 324 324 324 324 324 325 327 326 326 326 326 326 325 325 326 326
331 331 331 330 329 329 328 327 325 323 321 319 317 319 320 318 318 320 322 323 324 324 324 323 324 324 325 326 326 326 327 327 326 326 326 324 324 325 326 326 325 324 323
331 331 331 330 327 325 324 322 321 320 319 319 317 316 315 314 314 315 317 318 318 319 319 319 320 320 322 324 324 325 325 326 326 326 325 326 326 324 321 319 318 315 313
330 330 328 327 326 325 323 321 320 318 316 313 313 313 311 310 310 311 312 313 314 314 314 315 316 316 317 320 322 323 324 323 323 324 324 321 319 318 317 314 310 307 303
330 328 327 326 325 322 320 319 317 315 311 309 308 309 307 307 307 307 308 307 307 307 307 310 313 314 315 316 317 319 320 320 317 318 316 313 310 308 304 301 300 300 299
328 327 326 325 323 320 318 317 315 311 308 307 305 305 304 303 304 303 303 302 300 300 301 301 305 308 309 309 309 310 311 312 310 306 304 302 300 299 298 297 297 297 298

GFSGL_925_thetae_063.txt.gz
Theta_e
316 316 316 315 316 318 320 323 323 324 325 325 325 332 333 333 340 344 341 338 340 343 346 352 353 352 350 350 346 344 342 341 335 337 337 337 336 334 334 334 333 333 333
319 320 318 317 317 319 322 323 321 322 324 326 330 334 337 339 342 346 342 344 349 351 352 351 351 351 350 348 346 343 342 341 338 333 336 336 334 332 332 331 331 332 332
315 314 315 318 321 320 318 319 322 322 321 321 323 326 332 339 342 348 352 352 352 351 349 349 351 349 350 348 345 344 341 339 338 337 335 335 333 333 331 329 331 332 331
314 314 314 314 320 320 319 320 323 323 324 324 324 326 333 338 341 345 345 350 353 352 352 352 350 349 349 348 346 343 341 338 337 336 335 334 332 330 328 329 330 332 328
315 316 316 317 316 318 325 323 322 320 323 326 326 326 329 334 341 344 347 350 352 350 350 351 347 346 347 348 344 343 340 337 337 335 333 332 330 329 328 328 330 330 330
314 315 315 316 319 319 319 323 320 318 322 326 327 328 332 334 337 341 345 349 350 347 349 348 346 347 348 346 343 340 338 336 333 332 332 331 331 330 328 329 330 329 325
314 314 314 314 314 319 320 320 323 323 323 325 327 327 329 335 338 340 343 348 347 347 348 347 348 347 344 342 339 337 338 336 334 333 332 332 331 331 329 330 330 329 329
313 313 313 313 314 316 317 319 319 320 320 323 327 331 331 330 332 340 342 346 346 347 347 346 344 341 341 339 336 334 335 334 332 333 332 332 331 331 329 330 330 329 330
312 312 311 313 313 315 315 316 318 319 322 325 326 327 332 336 335 340 342 344 344 345 347 344 342 340 338 337 335 333 332 332 332 331 331 332 332 331 330 330 330 330 329
311 311 311 311 314 315 314 315 317 319 321 324 324 326 332 333 338 341 341 343 344 344 344 343 342 340 338 336 335 333 332 331 331 331 331 332 331 331 330 329 329 329 327
310 311 312 312 314 315 315 317 318 319 317 323 328 328 331 332 337 341 342 342 342 342 341 340 339 338 337 335 334 333 331 331 331 330 330 329 328 328 329 329 329 329 329
311 312 312 313 314 315 315 317 319 320 324 325 326 329 332 335 339 340 342 341 341 339 337 335 336 337 335 333 334 334 333 332 331 330 329 328 329 328 327 328 329 329 328
311 312 312 313 315 315 316 318 319 319 324 326 329 332 334 333 334 337 341 340 338 337 336 335 334 334 334 333 333 333 331 332 331 331 329 329 328 329 328 328 328 328 328
312 313 313 314 315 316 317 318 319 320 324 328 330 332 333 325 330 334 336 338 337 336 335 333 332 331 331 331 331 331 332 331 330 330 329 329 330 330 329 328 327 328 328
311 312 312 313 314 316 317 318 320 321 323 325 328 332 331 329 328 333 335 333 333 333 330 329 328 328 327 327 328 329 330 329 329 329 328 328 328 328 327 328 328 328 327
311 311 312 314 316 317 317 318 318 318 320 323 326 332 332 331 331 332 332 332 332 330 327 327 327 327 326 326 328 328 327 328 329 329 329 328 328 328 328 328 328 328 327
311 313 314 316 316 318 320 322 321 318 321 325 326 333 332 330 331 331 331 331 329 327 326 327 328 327 328 328 328 329 328 328 328 329 328 327 327 327 327 326 326 326 326
313 314 315 316 317 318 320 322 321 322 322 317 326 331 331 331 332 332 330 328 329 328 328 329 329 329 329 329 329 328 328 328 328 328 327 327 327 326 326 325 325 326 326
312 316 315 319 322 322 324 327 324 321 318 314 314 320 330 330 330 329 328 329 329 329 329 329 329 328 328 327 328 328 327 327 327 327 327 327 327 326 326 325 325 325 324
315 321 321 324 325 325 326 324 323 324 324 323 321 319 323 326 326 327 329 329 329 328 329 328 328 327 327 327 327 327 326 326 326 327 327 327 326 327 326 326 325 325 325
321 321 318 322 327 325 325 324 323 323 323 323 324 325 326 326 326 325 326 326 327 327 327 327 326 326 326 325 325 325 325 325 326 326 327 327 326 325 325 325 325 325 325
319 326 326 327 326 325 323 322 322 321 319 318 317 323 325 324 323 323 324 325 325 325 325 325 325 325 325 324 325 325 324 324 326 326 325 325 325 325 326 324 322 322 321
329 328 325 324 323 322 322 321 320 318 318 318 318 317 318 319 320 319 320 320 322 322 323 324 324 325 326 326 326 326 326 326 326 325 324 325 322 320 319 316 315 314 316
326 325 323 322 321 321 320 319 318 317 316 315 314 313 313 313 314 314 314 315 318 319 320 320 322 322 323 324 324 323 323 325 326 325 324 322 318 315 312 308 303 303 305
325 323 322 321 320 318 316 314 313 313 312 311 310 310 308 308 309 309 310 312 313 315 314 314 315 317 320 321 321 321 321 322 322 321 319 316 312 309 305 301 301 302 300
324 321 320 319 318 316 313 311 310 309 309 307 306 306 305 303 303 305 307 308 308 308 309 309 310 312 313 312 313 317 317 316 314 313 310 306 301 299 298 298 298 297 296

GFSGL_925_thetae_066.txt.gz
Theta_e
316 316 316 315 315 315 316 316 318 320 322 323 324 326 326 327 334 337 337 338 338 337 335 336 337 338 339 346 347 346 345 339 333 335 336 337 336 335 334 334 333 332 331
317 316 316 316 317 318 317 316 318 319 321 320 320 323 322 331 331 337 338 339 340 340 339 340 341 344 347 349 348 347 346 341 338 332 336 335 335 334 333 332 331 331 331
317 316 315 315 315 317 319 320 319 321 320 320 321 321 322 322 323 327 331 337 341 341 343 343 346 348 350 350 347 347 345 342 338 336 334 334 333 333 332 330 330 331 331
315 315 315 314 314 315 317 319 320 321 319 318 321 323 324 325 325 325 335 340 346 347 348 348 349 349 348 347 346 346 344 341 337 335 333 333 332 331 330 328 330 331 328
314 314 314 314 315 315 318 319 318 320 325 323 324 320 320 325 326 327 331 336 342 346 348 349 349 349 347 346 345 346 342 339 336 334 331 331 330 329 328 327 329 330 327
314 314 314 314 314 314 315 315 316 318 319 322 323 321 320 324 327 328 327 332 338 345 345 347 347 345 347 345 345 344 341 340 335 333 331 330 330 330 328 328 329 329 327
313 313 313 313 313 312 313 312 310 311 317 319 322 322 323 322 322 323 327 329 336 340 344 345 345 344 344 344 344 343 342 339 336 335 332 332 331 331 329 328 329 328 327
312 312 312 313 313 312 311 311 311 313 315 318 319 320 321 321 320 323 327 330 329 338 342 343 342 342 343 342 344 341 339 337 335 333 332 332 331 331 330 328 328 329 328
311 311 312 312 312 312 312 312 313 314 314 316 317 320 321 322 325 326 324 333 334 339 341 342 341 343 342 343 340 336 334 333 333 332 332 332 331 331 330 329 329 328 326
310 310 311 311 311 311 311 311 311 313 314 315 318 320 320 324 326 324 328 332 335 338 341 340 341 342 341 339 337 333 331 331 331 331 331 331 331 331 330 329 329 328 326
310 310 310 311 311 310 310 311 313 314 314 316 317 318 318 319 325 328 329 333 336 339 337 339 340 340 339 336 335 334 332 331 331 331 331 331 331 331 330 329 329 329 328
310 310 310 310 310 310 311 312 313 314 316 317 318 320 323 323 322 322 327 332 335 338 338 340 339 338 337 335 334 333 332 331 330 329 330 329 328 328 329 329 329 329 329
308 309 309 310 310 311 311 313 313 314 316 319 320 322 322 324 326 327 332 334 337 338 338 339 338 337 336 334 334 333 331 330 330 329 328 328 328 327 327 328 328 328 328
308 309 310 310 312 312 313 314 314 315 316 319 321 323 325 327 325 327 331 334 337 337 336 335 336 335 334 332 333 333 332 331 330 329 328 328 328 329 328 328 328 328 327
308 309 310 311 311 312 313 314 315 316 317 319 321 324 325 326 326 328 331 330 335 336 332 331 332 332 331 331 331 331 331 331 330 329 329 329 329 329 328 327 327 328 326
308 309 310 312 312 312 313 314 316 317 318 319 320 321 321 323 326 328 328 330 335 332 329 327 325 326 327 328 329 329 330 330 330 329 329 328 328 327 327 328 327 327 326
308 309 310 311 311 312 314 315 315 314 317 317 317 317 317 318 322 328 326 332 331 330 327 325 325 325 325 326 327 328 328 328 328 328 328 328 328 328 328 327 327 326 325
309 310 311 311 311 313 315 316 317 318 318 317 319 322 321 322 324 326 327 327 326 326 326 325 325 326 326 327 327 327 327 327 328 328 328 327 326 326 326 326 325 325 325
310 311 311 314 315 315 316 317 319 320 319 316 313 319 322 323 327 327 326 327 325 325 326 326 326 326 326 327 328 328 327 328 328 328 327 326 326 326 325 324 324 325 324
309 310 315 314 315 316 318 320 321 316 314 315 318 312 312 315 321 326 327 326 325 326 327 328 328 328 328 328 328 328 327 327 327 326 327 327 326 326 325 325 324 324 323
311 314 318 321 320 322 322 322 320 319 320 316 317 317 324 326 326 325 325 326 327 327 328 328 328 328 327 327 327 327 326 326 327 327 327 326 326 326 325 325 325 325 325
320 320 321 325 325 323 323 324 323 323 321 320 319 325 326 325 324 324 325 326 327 327 327 327 327 327 327 327 326 325 325 325 326 326 326 326 325 325 324 324 324 322 322
321 324 325 323 322 322 321 322 322 322 322 322 322 322 322 322 321 321 322 323 325 325 325 325 325 324 324 324 324 323 324 325 326 325 325 324 324 324 322 319 319 318 316
323 323 322 322 321 320 320 318 317 317 317 317 317 318 317 316 316 317 319 321 323 323 324 324 325 324 325 325 326 326 326 326 325 324 324 324 320 315 313 312 310 307 305
321 321 320 318 317 317 317 316 315 314 313 312 311 312 312 312 312 313 315 318 319 320 321 322 322 323 323 323 324 324 325 325 324 324 322 318 313 307 303 301 299 299 299
319 318 317 316 314 314 313 312 311 311 310 308 307 307 307 307 307 309 310 311 313 314 315 317 318 319 319 320 320 320 322 323 322 319 315 309 303 301 299 297 297 297 296

GFSGL_925_thetae_069.txt.gz
Theta_e
318 317 317 317 316 316 317 316 316 316 318 320 321 321 322 324 325 327 330 334 336 336 336 335 334 334 333 334 335 337 338 339 338 338 337 337 337 336 335 334 334 333 332
317 317 316 316 315 315 315 315 316 316 316 318 320 321 321 322 322 325 332 332 335 338 338 337 337 337 338 338 340 344 343 342 338 335 335 336 336 335 334 334 333 331 331
316 315 315 315 315 316 317 318 319 319 317 318 321 322 321 321 321 323 325 327 331 334 335 335 340 340 341 343 344 342 344 343 339 336 333 334 334 333 332 331 330 330 330
315 316 316 317 317 317 316 318 319 319 319 321 321 320 320 321 322 321 322 325 327 328 336 339 342 344 344 343 344 344 343 341 340 335 333 332 332 332 332 330 329 329 330
315 315 315 315 314 314 315 315 316 317 317 317 319 320 324 325 323 322 321 325 327 328 329 335 336 344 344 344 344 346 344 341 338 334 330 329 329 329 329 328 327 328 328
312 312 313 312 314 315 315 315 315 314 313 312 311 313 314 319 321 320 322 323 323 325 329 331 336 340 342 345 347 345 344 342 337 334 330 329 330 330 329 328 327 327 327
312 312 313 313 313 313 313 313 312 312 312 311 310 310 310 311 319 322 320 320 322 324 327 329 333 338 341 344 343 344 343 341 341 339 334 333 333 333 330 327 328 327 326
310 311 312 312 312 312 312 312 312 312 311 311 310 310 310 311 318 321 320 322 325 325 324 330 331 335 341 342 342 341 341 341 340 338 336 335 333 332 331 330 328 328 327
309 309 310 311 311 311 311 311 311 311 311 311 310 311 312 310 317 320 321 324 325 323 324 330 334 338 340 341 341 340 340 338 337 335 333 332 331 331 331 329 327 327 325
306 307 309 310 311 310 311 311 311 311 311 311 311 310 312 312 315 320 320 325 327 328 330 332 334 338 339 339 339 340 334 335 334 332 331 331 331 331 330 329 328 327 325
307 307 309 310 310 310 311 311 311 311 311 310 310 312 314 314 317 318 321 322 322 325 329 334 335 337 336 337 336 338 336 334 332 332 331 330 330 330 329 329 329 328 327
307 308 308 309 309 309 310 309 309 310 310 311 311 313 314 315 316 321 321 319 320 326 330 334 335 334 333 334 336 335 335 333 331 330 330 330 330 330 329 329 329 329 328
305 306 307 308 308 309 309 309 309 310 311 311 313 314 315 316 319 321 318 318 323 329 330 334 330 327 332 335 332 333 332 331 329 328 328 328 329 328 329 329 328 328 328
306 307 307 308 309 309 309 309 310 310 311 312 313 314 315 318 318 320 318 318 322 328 330 333 330 330 333 333 331 331 330 330 330 329 328 328 327 327 327 327 328 328 328
305 306 306 306 307 308 309 309 310 310 312 313 314 316 317 320 319 320 321 322 325 326 327 327 324 326 325 326 329 329 330 329 330 329 328 327 327 327 327 327 327 327 326
306 306 307 308 309 309 310 311 312 313 313 313 313 314 315 318 321 322 319 318 326 326 325 327 327 327 327 327 327 328 329 329 329 329 328 328 328 327 327 327 327 327 326
305 305 307 308 310 310 311 311 311 313 314 315 316 317 318 319 318 316 315 320 326 325 328 327 326 326 326 326 327 328 327 327 329 329 328 328 328 326 326 327 327 326 325
306 307 308 309 310 311 311 312 312 312 312 312 316 317 318 318 317 316 316 323 321 324 327 326 324 327 327 327 328 328 328 329 329 329 328 328 327 327 327 327 326 325 325
306 308 309 310 310 310 311 312 312 313 314 315 315 315 316 317 318 318 320 323 326 326 326 324 325 326 327 327 328 328 328 328 328 327 327 327 327 326 326 325 324 324 324
307 308 309 310 312 310 311 312 314 316 317 315 313 312 314 315 312 314 318 327 326 325 324 324 325 326 326 326 326 326 326 327 327 327 327 326 326 325 324 324 323 323 323
309 310 311 311 312 314 314 315 315 316 316 316 313 314 319 318 316 319 324 325 325 324 324 325 326 326 327 327 327 327 327 327 327 327 326 326 326 325 324 324 324 324 323
309 310 312 311 314 316 316 317 319 317 315 317 315 317 321 324 325 324 323 324 325 325 326 325 326 326 326 327 327 327 326 326 326 326 326 325 325 325 324 325 324 324 323
316 321 322 322 322 322 322 319 319 318 316 317 316 316 320 324 323 322 322 324 325 326 327 328 327 327 327 327 327 325 323 324 325 326 325 325 324 324 323 321 321 320 318
323 322 322 321 321 320 319 319 320 319 320 321 320 320 318 317 317 318 322 323 325 325 326 326 326 326 326 326 325 324 324 325 326 326 325 324 323 320 319 317 316 313 307
319 318 318 318 317 317 316 315 315 316 315 314 312 311 311 312 314 315 317 320 322 323 324 324 324 324 324 323 323 323 325 325 324 324 324 323 319 316 314 308 305 301 299
316 316 316 315 314 314 313 312 311 310 309 309 309 309 310 310 310 312 315 318 320 321 322 322 322 324 324 325 325 325 325 324 323 322 320 316 311 305 302 299 298 296 295

GFSGL_925_thetae_072.txt.gz
Theta_e
318 318 316 315 316 316 317 317 317 317 317 319 320 320 320 321 323 324 323 327 331 332 331 332 335 335 334 334 333 333 332 333 335 336 337 338 337 337 336 335 334 333 332
316 316 315 315 316 316 316 316 316 315 316 317 318 321 321 320 321 321 322 323 325 325 325 330 332 335 336 336 335 334 333 334 336 337 337 336 336 335 335 334 334 333 330
315 315 315 316 316 315 315 315 315 316 316 316 317 318 321 321 321 320 321 320 321 321 324 328 330 336 338 336 334 336 339 339 338 338 335 334 334 334 334 334 333 330 330
314 315 313 315 315 314 314 315 317 317 319 319 319 320 320 320 320 320 322 322 321 322 324 326 329 335 338 340 339 340 335 338 338 335 333 332 333 333 332 331 330 329 328
311 312 315 315 314 314 315 316 318 318 318 318 318 319 319 320 322 323 323 322 320 322 322 322 325 329 332 335 341 342 340 339 338 334 331 329 329 329 330 330 328 327 327
312 311 312 313 314 314 315 314 316 317 317 315 313 312 312 312 311 311 312 320 322 323 321 319 322 324 329 329 332 341 342 341 337 334 332 330 330 331 331 329 326 327 329
308 310 311 312 311 312 313 315 316 315 314 313 312 311 311 311 311 311 310 313 320 320 320 321 324 323 325 331 331 337 342 341 341 337 332 334 333 334 332 327 327 327 327
307 307 307 309 311 313 313 313 313 312 312 311 311 311 311 311 310 310 310 310 318 320 322 324 322 323 327 332 335 339 341 340 339 337 338 338 336 334 333 330 329 327 326
306 307 307 308 309 310 311 312 312 311 310 310 309 309 309 309 309 309 308 310 317 321 323 322 322 327 329 331 337 339 337 337 337 336 337 335 334 332 331 329 327 328 328
306 306 306 307 308 309 309 310 310 310 309 309 309 310 310 310 310 309 309 311 317 322 324 320 320 326 328 333 338 334 333 335 334 336 334 332 331 330 330 330 328 328 327
304 305 305 305 306 307 308 309 309 309 309 309 309 309 310 310 310 310 311 313 317 319 323 319 319 325 327 334 336 336 335 334 334 333 331 330 330 330 329 329 328 328 327
303 304 304 305 306 307 308 309 309 309 309 309 309 310 310 310 310 310 314 314 316 322 322 317 322 325 329 335 335 335 335 334 332 331 330 329 329 329 329 329 328 328 328
303 304 304 305 306 307 308 309 308 309 309 309 309 310 310 310 310 310 313 314 316 322 320 319 327 330 333 333 332 333 333 333 332 329 327 328 329 329 329 329 328 328 328
303 303 304 305 306 307 308 308 308 307 308 309 310 311 311 311 312 312 312 315 321 319 319 322 326 327 331 331 329 330 333 333 330 328 328 328 328 328 329 329 328 328 327
302 303 303 304 305 305 306 307 308 308 309 309 310 310 311 312 313 312 313 317 320 320 323 322 323 325 323 324 328 331 331 329 327 328 327 327 326 326 326 327 327 327 327
302 303 304 305 307 307 307 307 308 309 309 309 310 311 312 312 313 315 318 321 321 321 322 321 322 325 325 325 326 326 326 326 327 327 327 327 326 326 326 326 326 326 325
303 304 304 304 305 306 307 307 308 309 309 309 310 311 312 314 313 314 318 321 318 322 323 325 324 327 328 328 326 326 327 327 327 328 327 327 327 326 326 326 325 325 324
303 303 305 306 307 308 309 309 310 311 311 311 312 313 313 314 314 317 319 318 317 319 322 327 326 325 327 327 326 326 327 328 328 328 327 327 327 327 325 325 325 324 324
305 305 305 307 308 310 310 311 311 311 311 311 311 311 312 314 316 317 317 313 317 318 322 325 325 325 325 326 326 326 327 326 326 327 328 328 327 326 326 326 325 324 324
305 305 308 309 309 310 310 311 311 311 311 311 312 313 312 311 310 310 312 313 320 323 324 324 324 325 324 327 327 327 327 327 326 326 327 327 326 326 325 324 324 323 323
306 306 307 309 311 310 310 310 309 310 312 312 313 314 314 313 314 312 312 316 324 324 324 324 325 325 326 327 327 326 327 326 327 327 326 326 326 325 324 323 322 322 322
308 309 308 309 310 311 312 311 311 313 315 315 315 314 314 313 315 317 318 324 324 325 326 326 325 325 327 326 325 326 326 326 326 326 326 325 325 324 323 323 323 323 321
308 310 311 311 311 312 313 312 313 315 315 316 315 314 314 317 321 322 322 323 325 326 327 325 325 326 326 326 326 326 326 326 326 326 326 325 324 324 324 323 322 320 317
309 310 310 310 312 312 314 316 317 317 317 316 315 316 320 320 319 321 323 323 324 325 324 324 325 325 326 326 326 325 324 324 325 326 325 324 323 323 322 320 318 313 308
318 318 317 317 317 318 318 318 317 316 317 316 316 317 317 314 315 322 322 323 323 323 325 326 326 326 326 326 325 323 323 324 325 325 325 324 322 320 318 312 306 301 298
313 313 314 314 313 313 312 313 313 312 311 310 311 312 313 315 315 317 316 319 321 322 324 324 324 325 324 324 324 324 325 325 325 324 324 322 320 314 310 305 300 296 295

GFSGL_925_thetae_075.txt.gz
Theta_e
327 326 325 324 324 323 323 322 320 319 319 322 327 330 330 330 332 334 334 334 334 335 335 334 333 335 333 335 333 334 333 333 334 337 339 339 339 338 336 335 335 336 333
322 322 322 323 319 317 317 317 317 317 317 322 324 325 326 327 330 330 329 329 330 330 329 332 332 332 335 337 336 335 333 333 335 339 338 340 337 336 335 336 337 334 334
317 317 319 320 322 322 319 316 316 316 316 319 321 324 325 326 327 328 328 329 329 328 328 329 331 333 334 336 338 337 335 335 335 335 337 337 335 334 334 334 335 333 331
316 318 318 318 318 320 319 316 316 316 319 319 319 321 323 325 324 325 326 327 328 326 327 329 327 329 332 334 337 339 337 337 333 338 336 337 334 333 333 336 335 331 332
315 316 318 319 318 317 318 316 315 316 320 322 322 323 324 324 324 326 327 328 327 327 327 327 325 324 321 324 332 336 340 340 337 337 337 336 333 332 333 336 336 335 332
311 314 314 316 317 318 317 318 319 321 322 323 324 324 324 320 318 313 313 319 320 322 325 326 325 320 323 323 323 328 332 339 342 341 340 338 336 334 334 335 336 333 335
309 309 310 314 314 316 317 318 320 322 323 323 322 320 319 318 311 311 311 314 317 318 319 322 324 322 324 327 328 331 335 334 336 342 342 337 336 335 334 335 334 334 333
308 309 309 310 312 315 316 317 320 321 321 319 318 317 317 315 311 311 310 311 314 315 317 320 324 326 326 324 329 334 337 339 337 338 337 337 335 336 334 335 334 333 331
308 308 309 309 310 311 315 317 318 318 318 317 316 316 316 315 310 309 309 313 313 314 316 318 324 326 327 321 326 333 336 337 336 333 335 336 336 334 333 332 332 332 332
307 307 308 308 309 310 312 313 315 316 316 315 315 314 314 314 313 309 309 311 312 314 316 320 323 324 323 319 323 330 336 337 331 332 334 334 333 332 331 333 333 332 332
307 306 307 307 308 309 310 312 313 313 312 314 313 314 314 313 313 309 310 311 313 314 315 319 320 324 320 317 324 332 336 338 333 333 332 332 332 329 329 331 333 332 331
305 306 306 307 307 307 308 310 311 312 312 312 312 313 313 314 312 312 310 310 310 315 316 319 323 325 322 321 327 333 333 334 332 332 330 329 328 328 331 331 332 332 331
304 305 306 306 306 306 307 308 309 310 311 312 312 312 312 312 313 312 311 310 309 311 315 318 321 323 321 325 327 333 333 331 331 332 330 329 329 331 331 332 332 332 331
303 304 305 305 306 306 306 307 309 310 311 311 311 312 312 312 312 312 313 313 311 309 311 314 320 319 322 324 330 331 330 331 332 333 331 330 331 331 331 331 331 331 331
302 303 304 305 305 306 306 308 309 310 310 310 311 311 312 312 312 312 311 313 313 316 318 320 320 320 322 323 325 329 328 329 330 330 330 330 330 331 330 331 331 331 331
301 303 303 303 304 304 306 308 309 310 310 310 311 311 311 311 311 311 311 311 311 315 320 322 321 323 324 323 324 326 326 328 330 330 331 330 330 330 329 329 329 330 330
301 302 302 303 304 304 306 307 308 307 308 308 308 309 310 310 311 310 311 313 316 318 319 322 322 323 325 326 325 326 327 328 329 331 331 331 330 329 328 328 329 329 328
300 301 302 303 304 306 308 309 309 311 310 309 309 309 309 310 310 311 313 314 313 314 319 319 322 324 326 328 328 328 329 327 329 330 331 331 330 329 328 328 328 328 328
301 303 304 304 304 305 307 308 308 309 310 311 311 310 310 310 310 311 311 309 318 320 319 318 321 326 326 328 329 328 327 329 330 330 330 330 329 326 327 328 327 327 326
303 303 304 307 307 308 309 310 310 311 312 312 313 313 312 308 306 306 307 309 315 318 319 319 321 325 325 326 327 327 326 327 329 329 330 328 328 327 326 326 325 325 325
305 305 306 308 308 309 310 311 312 312 313 312 313 313 313 311 313 313 315 314 316 317 318 321 324 324 325 326 328 328 327 327 327 328 327 328 328 326 327 326 325 326 326
307 307 309 309 310 310 310 311 311 311 310 312 313 313 313 312 315 315 315 315 315 316 320 323 324 325 327 329 330 330 331 330 330 329 329 329 328 326 324 325 326 326 325
309 309 309 309 310 311 312 312 311 310 314 315 315 316 312 310 312 315 316 316 319 322 323 324 325 327 329 329 330 330 330 330 329 329 328 326 325 326 326 325 326 324 324
309 310 311 311 312 313 314 313 313 313 316 316 317 318 318 317 317 320 320 321 323 323 324 325 326 328 328 328 328 328 328 328 328 327 325 326 326 325 325 324 321 314 308
314 311 310 311 311 312 314 316 316 317 317 318 319 318 316 317 317 318 320 322 323 323 324 326 327 327 327 326 326 326 325 325 325 325 325 324 323 323 319 313 309 307 307
310 311 312 313 313 315 315 315 317 317 318 318 316 314 317 316 314 316 319 320 320 322 323 324 325 326 326 326 325 324 324 325 325 325 324 320 317 316 314 311 308 306 303

GFSGL_925_thetae_078.txt.gz
Theta_e
328 336 343 346 346 344 341 337 335 337 335 335 337 339 341 342 343 344 343 343 344 343 343 341 341 340 338 337 337 336 336 338 338 335 334 336 340 341 343 341 341 338 338
326 332 337 337 333 331 329 330 330 330 329 328 329 331 332 333 335 337 337 337 338 338 338 336 334 333 334 334 333 334 335 337 336 337 336 336 333 337 340 341 339 340 339
326 328 329 328 328 328 326 326 325 324 323 322 323 323 324 325 329 329 327 328 328 328 327 328 328 329 332 330 332 332 333 338 338 337 337 334 334 333 336 336 338 338 337
321 322 324 326 326 326 325 325 323 322 322 322 322 322 322 324 325 326 326 326 326 326 326 326 325 326 327 329 331 332 335 338 338 339 337 335 337 337 335 336 338 337 338
315 318 321 322 323 325 325 324 322 321 321 321 321 321 321 322 322 323 323 325 327 326 326 326 324 325 323 319 322 326 331 335 337 336 336 335 338 336 334 335 337 339 337
313 314 314 319 323 322 323 323 323 322 321 320 320 320 321 321 320 322 324 325 326 325 323 322 322 323 325 323 325 325 326 331 335 337 335 338 340 339 334 337 338 339 340
311 312 314 314 317 321 322 322 322 323 323 322 322 322 323 322 319 321 321 322 320 321 321 320 319 317 318 321 324 325 325 330 335 335 338 337 330 335 336 338 339 339 337
311 310 311 313 313 316 320 322 322 323 325 326 324 324 324 323 317 311 311 318 319 319 319 319 319 320 321 323 323 324 324 328 334 337 334 337 331 337 335 333 337 337 336
311 310 311 311 312 312 318 320 322 324 326 327 325 325 324 322 314 311 311 315 317 318 318 318 319 318 318 322 326 326 323 326 334 336 336 335 334 334 335 336 338 336 334
310 310 310 311 312 312 313 319 321 323 324 325 324 323 321 321 316 311 310 314 316 317 318 318 317 317 317 319 325 327 324 325 332 336 334 332 335 331 333 332 335 334 333
307 309 310 311 311 313 314 315 319 321 321 322 322 321 320 319 319 314 310 313 315 316 316 317 316 315 318 320 324 326 325 329 334 333 337 337 331 331 332 334 336 334 334
305 306 307 310 311 311 313 315 316 318 319 320 319 319 318 318 316 315 313 309 312 314 314 315 316 316 319 323 324 322 323 331 336 336 336 333 330 330 332 333 332 335 333
303 305 306 308 310 310 312 313 315 316 316 316 317 318 317 317 317 314 313 311 310 310 312 313 314 314 319 322 323 322 325 331 335 336 334 333 332 330 330 332 333 334 334
302 303 304 306 308 311 310 311 312 314 315 316 316 316 316 316 316 316 315 313 311 311 311 311 311 313 316 320 322 323 324 331 335 336 335 334 332 332 333 331 333 333 332
300 302 303 304 306 307 309 310 311 312 313 314 315 316 316 316 316 315 316 316 316 315 316 316 316 318 322 322 324 325 327 332 334 335 335 333 333 333 332 332 332 331 332
300 301 302 304 306 306 307 309 309 310 310 311 312 314 315 314 314 314 313 313 310 310 314 317 319 321 321 320 324 325 328 331 332 334 333 332 332 332 332 332 331 331 332
300 301 303 303 304 306 307 308 310 308 308 310 309 310 311 313 311 311 311 310 311 312 314 315 318 320 320 321 323 325 328 329 332 333 332 332 332 331 331 331 331 331 331
301 302 303 303 303 304 306 306 307 311 310 310 310 309 310 310 309 311 310 310 311 312 316 317 318 320 321 322 322 325 326 328 331 332 332 332 331 331 331 330 330 330 330
301 302 303 303 304 305 306 306 307 309 311 311 311 309 308 308 309 309 310 312 313 315 316 318 320 320 321 322 324 327 328 330 331 331 332 332 331 331 330 330 329 329 329
303 303 304 305 304 305 307 307 308 311 312 312 312 312 311 309 308 308 307 310 313 315 316 320 319 320 320 322 326 328 329 330 330 332 332 331 331 331 331 329 329 328 328
306 304 304 306 305 306 306 308 309 310 310 310 312 313 313 312 311 312 313 313 314 315 316 319 321 320 321 323 325 328 330 330 331 332 332 331 330 328 327 328 327 326 327
307 308 308 309 309 309 309 310 311 312 313 313 314 314 313 314 314 314 314 314 314 315 316 318 319 320 323 325 326 330 328 328 331 332 331 331 329 327 327 326 326 327 327
310 309 310 310 310 310 311 312 312 313 313 313 314 314 314 313 314 316 317 317 316 316 317 318 319 322 323 324 328 330 330 330 329 330 331 328 328 327 327 327 328 328 326
310 312 312 311 311 312 313 315 313 313 314 315 316 316 316 318 317 317 318 319 318 318 319 320 323 322 324 327 330 330 330 331 331 330 328 330 329 327 326 327 327 326 323
310 311 311 313 314 314 314 314 314 314 315 317 318 319 320 320 321 320 319 320 322 324 324 323 323 324 327 329 330 330 330 330 330 330 328 327 327 327 327 326 321 318 315
305 308 309 311 313 315 317 317 318 317 317 319 319 318 319 316 316 318 320 322 322 322 323 324 326 328 329 329 329 329 329 329 328 327 327 327 327 326 324 321 317 314 311

GFSGL_925_thetae_081.txt.gz
Theta_e
325 327 327 335 341 344 345 346 348 348 350 348 350 352 349 348 348 346 346 345 346 346 345 341 340 341 343 342 343 340 339 338 342 339 337 338 337 335 331 333 340 342 340
323 326 327 332 341 344 345 345 345 344 346 345 346 344 343 343 345 346 345 343 343 344 344 344 342 342 344 342 339 338 337 334 335 339 337 338 340 333 330 330 335 340 340
321 324 327 331 337 341 343 341 340 341 336 339 337 337 336 336 338 339 339 338 338 340 340 341 339 339 337 335 334 333 333 334 336 337 338 337 339 340 335 331 330 330 337
318 322 324 325 331 335 337 336 336 336 333 330 329 329 329 329 332 333 333 333 334 335 334 332 330 329 331 332 332 333 332 333 331 334 335 336 336 337 339 337 337 332 337
317 318 321 319 327 329 330 330 330 328 326 325 325 324 324 325 327 328 327 328 329 328 328 328 326 326 325 326 324 323 327 330 329 331 332 332 334 337 339 337 335 334 338
314 316 318 317 317 325 328 327 326 325 324 323 323 322 324 323 324 325 326 328 328 327 327 326 325 323 323 320 320 322 322 327 331 331 330 331 335 336 340 336 334 336 340
314 314 315 317 317 317 324 327 325 325 324 324 323 323 325 323 322 323 324 326 328 327 324 322 321 318 319 319 321 322 324 324 325 327 336 335 337 338 336 335 333 334 336
312 314 314 315 317 317 317 321 326 328 328 327 325 324 325 324 321 321 322 326 325 323 323 323 323 323 323 322 321 322 325 325 327 329 331 335 338 340 338 333 334 332 334
310 312 313 314 315 316 317 317 318 327 328 328 328 326 327 324 322 320 322 323 323 322 322 322 322 322 321 319 320 322 324 326 326 324 327 335 338 337 335 333 332 330 335
309 311 312 313 313 316 316 315 318 321 326 326 328 328 328 324 319 317 317 318 320 321 322 322 320 320 319 316 318 322 324 326 325 327 333 337 336 333 334 332 328 333 336
305 308 309 311 313 314 316 316 315 318 324 326 327 329 328 328 315 313 311 317 318 319 319 320 320 318 316 316 318 323 326 327 327 326 330 337 337 339 335 330 327 331 332
304 305 307 308 310 312 316 316 316 316 318 321 325 326 327 326 321 312 311 314 317 318 318 318 318 317 317 316 316 322 324 324 323 326 336 337 337 336 334 334 334 332 334
302 304 304 305 309 310 316 316 317 316 318 320 323 325 325 325 323 319 315 311 312 315 317 317 316 315 314 315 312 316 321 324 324 328 336 335 336 334 332 334 336 330 329
299 300 301 304 306 310 312 317 318 318 318 319 320 322 323 323 322 319 316 315 313 310 311 313 313 312 312 313 314 320 323 324 324 329 337 334 334 333 334 334 331 328 334
299 300 300 303 306 307 310 313 317 318 320 322 321 322 323 323 322 321 319 318 316 314 314 316 319 318 318 317 317 319 321 322 326 330 336 335 335 333 333 333 333 333 333
301 300 301 303 305 307 308 309 311 314 317 318 319 319 320 319 318 318 319 318 319 316 316 318 318 317 318 319 321 321 322 324 326 331 335 334 334 333 333 333 333 333 333
301 301 301 303 305 306 307 308 310 311 310 312 312 311 314 313 316 317 316 316 315 313 313 313 313 315 317 319 320 320 322 325 325 330 334 334 333 334 332 331 333 333 333
301 301 302 302 305 306 307 308 309 311 313 311 309 310 310 310 311 313 314 313 313 312 313 313 314 314 316 318 319 321 322 324 326 330 333 332 332 332 332 332 332 331 332
302 303 303 303 305 305 305 307 308 308 310 312 312 311 310 310 310 310 311 313 314 314 313 313 314 316 317 319 320 321 322 324 328 328 332 332 332 333 332 332 332 331 331
303 303 304 304 305 304 305 306 307 307 308 310 312 313 312 309 309 310 311 312 313 312 313 314 316 316 318 319 321 321 322 325 328 328 331 332 333 332 330 331 330 330 330
305 304 304 304 305 306 306 306 306 306 309 311 312 313 313 312 311 311 311 311 312 312 314 316 316 318 318 320 321 321 324 328 329 330 330 333 332 330 330 330 330 330 329
306 306 305 307 308 307 306 307 307 307 310 311 312 313 312 312 313 312 312 312 312 312 314 315 316 318 320 320 320 321 326 327 329 329 331 333 332 328 330 330 329 328 327
310 310 310 310 309 309 308 309 310 310 311 311 312 313 313 314 314 315 314 314 315 315 315 315 316 317 320 320 321 324 325 328 329 330 332 331 331 330 328 327 327 327 326
309 312 311 311 311 311 312 312 312 313 314 315 315 315 314 315 315 316 317 317 317 317 316 316 317 318 319 321 326 325 324 328 330 331 331 331 329 328 326 326 327 327 325
305 310 312 313 314 313 313 313 315 315 315 315 316 316 317 317 316 316 316 317 318 319 320 319 318 319 320 323 324 325 327 330 331 332 331 329 328 327 326 328 328 325 322
296 298 302 304 307 313 316 316 317 316 315 317 319 319 319 320 320 320 320 320 321 320 320 320 322 324 324 325 326 329 330 331 331 331 330 328 329 329 328 327 326 323 319

GFSGL_925_thetae_084.txt.gz
Theta_e
320 322 324 325 331 329 334 341 346 344 347 349 350 351 348 352 352 351 350 350 349 347 345 343 344 346 344 341 339 341 342 343 344 341 338 339 337 336 335 330 334 337 337
317 320 322 323 328 330 335 338 343 344 344 347 347 347 348 347 346 345 346 348 347 349 347 347 346 343 342 342 343 342 341 341 339 340 338 337 338 338 337 334 331 331 337
317 317 319 321 326 328 330 336 342 343 345 344 335 333 324 325 322 326 337 348 347 348 347 346 344 343 343 342 340 339 337 337 335 335 337 337 337 336 336 337 334 329 330
315 316 318 320 324 322 327 334 339 342 340 332 324 323 327 319 320 331 341 345 344 343 343 343 341 341 339 338 335 334 333 332 332 333 335 336 335 334 336 338 337 337 336
312 312 316 318 320 321 322 328 335 336 333 328 324 323 329 317 327 337 338 339 339 341 337 336 336 336 334 333 332 330 326 323 330 333 333 335 335 334 336 335 335 334 334
311 311 313 316 318 320 320 319 324 329 324 322 330 320 331 334 336 335 335 335 334 332 330 329 328 326 325 325 324 317 316 317 320 325 328 330 331 334 334 334 332 333 332
307 310 311 312 315 318 319 319 323 322 330 330 331 330 330 328 330 331 331 331 330 329 328 327 325 324 323 322 321 321 321 321 323 324 327 330 334 335 334 336 333 331 332
305 308 309 311 312 316 318 318 319 319 323 327 327 325 327 327 327 327 330 330 329 329 328 325 322 323 323 323 322 321 322 325 327 327 327 326 328 330 332 335 335 333 332
307 306 307 310 312 312 317 318 318 317 319 329 329 326 328 326 325 326 328 329 330 326 323 322 322 323 323 322 320 319 320 323 325 327 326 326 329 334 336 336 334 331 330
305 305 306 309 310 312 316 318 316 317 317 324 329 326 328 323 323 323 327 328 326 325 324 323 323 323 322 320 316 317 323 324 325 328 327 325 320 332 336 335 335 330 330
302 305 306 306 307 312 311 319 317 317 317 318 327 330 329 323 321 322 325 325 325 324 324 324 322 321 319 319 317 316 317 323 326 327 326 323 330 338 336 336 335 330 330
300 302 303 306 306 309 311 313 319 317 317 316 323 326 329 324 321 322 321 321 322 321 323 322 322 318 317 316 316 316 316 320 323 324 324 326 335 338 337 336 334 329 328
299 300 300 304 305 307 308 310 317 318 317 316 321 323 326 322 320 320 319 317 319 320 321 320 319 318 317 316 315 312 314 314 317 325 325 327 335 336 336 334 332 331 331
300 299 300 301 304 306 306 309 313 317 318 317 319 321 321 324 318 316 313 312 314 314 317 317 316 315 315 314 313 312 312 315 324 325 325 329 336 334 334 333 334 331 330
302 300 300 301 302 304 305 307 312 316 317 317 318 319 320 321 321 318 313 312 312 311 312 312 313 313 313 316 318 318 317 317 322 324 324 327 335 335 333 333 334 332 330
302 300 300 301 301 302 305 308 310 311 312 318 318 318 319 318 318 321 319 320 318 316 314 316 316 319 321 321 321 322 322 323 323 324 326 330 335 335 333 333 332 332 331
302 300 300 300 302 304 307 309 311 310 311 316 319 318 318 319 319 318 321 320 318 317 316 316 321 322 319 317 319 320 321 322 323 325 325 328 333 334 333 332 332 332 331
301 301 301 301 303 304 306 309 309 311 312 311 309 314 313 314 315 317 320 318 317 317 318 319 318 315 315 315 316 318 320 321 323 325 325 328 331 334 333 332 332 332 332
303 302 303 303 303 305 306 307 308 309 310 310 312 310 310 311 312 313 314 317 315 315 316 317 316 315 315 316 316 317 319 321 324 326 327 328 331 333 332 331 331 331 331
304 303 304 304 304 305 306 306 307 308 308 308 309 312 309 310 310 311 310 313 317 317 316 315 315 314 314 315 317 318 319 321 323 327 328 328 332 332 331 331 330 330 330
306 305 305 305 306 305 305 306 306 307 308 307 308 308 310 311 312 311 312 312 313 314 316 316 315 315 316 316 316 319 320 323 323 327 328 328 329 332 331 330 330 329 330
308 307 306 308 306 305 306 307 306 306 307 308 307 307 309 311 313 313 313 313 313 314 314 314 313 314 316 317 319 319 322 322 327 327 326 329 331 331 330 329 329 329 328
309 311 310 309 308 307 306 306 307 306 306 306 309 310 310 310 312 314 313 314 314 313 313 312 313 314 315 318 319 320 322 323 326 323 325 327 331 330 330 329 328 329 328
299 306 311 312 311 309 309 309 309 309 308 307 309 310 312 313 313 313 313 314 314 313 313 314 314 315 316 317 318 320 323 324 324 324 326 330 330 330 329 328 327 326 327
293 295 298 302 306 311 313 313 313 313 312 311 312 313 313 315 315 315 315 315 317 316 318 317 316 316 316 317 320 323 324 323 322 321 326 329 330 328 327 327 327 325 324
290 290 292 294 296 299 302 306 314 316 315 316 315 316 316 316 316 317 317 317 317 318 319 320 320 320 317 317 319 321 324 324 323 322 328 329 328 327 326 326 326 323 321

GFSGL_925_thetae_090.txt.gz
Theta_e
310 311 311 312 312 313 315 318 318 320 319 318 317 322 324 332 337 338 333 330 332 335 341 342 343 342 341 341 340 339 337 338 334 335 338 339 339 337 338 335 335 330 329
309 311 311 312 312 312 312 313 317 319 319 319 318 318 322 327 334 337 338 338 337 339 337 333 326 325 325 339 339 338 338 338 337 334 338 339 337 336 337 336 335 334 332
305 306 307 308 309 309 310 310 311 314 321 320 318 318 319 323 332 335 336 333 333 333 331 330 327 327 325 327 336 337 335 332 337 338 339 337 336 336 336 336 335 335 335
305 305 305 306 307 307 308 309 310 311 316 319 317 317 320 321 330 333 332 331 329 331 330 329 327 326 325 328 328 337 337 337 339 340 337 336 335 334 333 334 334 335 335
303 304 304 304 304 306 306 306 308 309 311 318 317 319 323 325 330 330 331 330 328 327 327 326 324 325 324 325 332 334 334 338 337 334 330 331 331 332 331 333 334 332 332
300 301 302 303 304 305 305 305 306 308 309 314 317 322 324 323 327 331 331 329 329 329 327 324 325 325 324 323 328 334 336 336 331 329 325 323 323 322 328 332 332 331 325
299 299 301 301 302 303 304 305 306 307 308 312 317 320 324 323 323 325 327 326 326 325 324 324 325 325 325 327 334 334 333 330 328 321 316 318 320 323 326 329 331 331 330
299 299 299 299 301 303 303 303 304 307 309 309 315 317 319 322 321 323 324 326 326 325 324 325 326 331 332 333 332 319 317 319 319 320 321 323 324 325 324 325 331 333 332
299 299 299 299 300 301 303 304 305 306 308 311 316 317 318 317 321 323 322 324 325 328 327 331 331 330 330 327 318 321 322 322 323 324 326 327 325 328 327 326 333 333 327
300 300 299 299 299 300 302 304 304 305 310 311 315 317 318 318 320 317 322 319 324 328 328 330 329 328 320 320 320 316 314 316 319 323 327 327 327 326 324 320 326 330 330
300 300 300 300 300 300 300 301 303 306 307 310 314 316 317 316 319 317 320 321 324 328 324 322 323 322 321 320 316 313 314 314 317 319 321 321 321 321 320 319 328 333 332
300 301 301 301 301 301 300 301 303 304 306 312 316 317 317 314 317 319 321 322 327 325 322 321 321 320 319 317 315 315 315 315 315 315 315 316 316 317 319 330 336 336 331
301 302 303 302 301 301 300 301 304 306 310 314 316 316 317 313 317 315 322 322 326 323 321 321 321 320 319 317 316 315 315 314 313 315 315 314 318 322 325 335 334 333 332
301 302 302 303 302 301 300 300 303 305 309 315 316 316 316 316 316 316 318 322 323 321 321 321 321 321 319 318 317 315 314 312 312 313 314 320 323 331 329 334 334 332 331
302 301 301 301 301 301 300 301 304 305 308 313 315 316 315 315 316 312 316 320 319 321 321 320 319 318 316 315 315 314 312 315 316 316 318 321 323 324 327 332 333 331 330
302 301 301 300 300 301 301 301 303 305 306 309 311 314 315 315 316 312 315 319 320 321 318 314 313 313 314 313 313 313 316 318 318 319 318 319 320 323 328 332 333 331 329
302 303 301 302 301 301 301 301 302 305 306 309 310 313 316 316 318 314 315 313 313 316 313 312 313 313 313 313 313 313 317 318 316 317 319 320 320 325 327 329 332 331 329
300 304 303 303 302 302 303 304 303 304 307 309 311 314 315 316 315 318 319 319 318 316 314 313 312 312 312 313 313 314 319 314 314 313 314 318 322 325 326 327 330 330 328
299 305 303 304 304 305 305 306 307 308 308 308 308 310 315 317 317 317 316 319 318 317 317 317 318 316 315 315 315 318 315 314 315 314 315 316 319 324 326 327 329 330 329
299 302 307 305 305 305 305 306 307 307 308 308 308 306 308 311 312 315 315 317 318 317 316 316 316 318 317 316 317 315 314 315 315 313 314 316 319 326 325 325 326 329 328
295 298 301 308 307 305 304 305 306 306 306 307 308 308 308 308 310 311 313 314 316 316 316 316 316 318 317 316 317 315 315 315 314 313 315 316 318 325 325 325 326 328 329
292 294 296 299 300 305 305 306 304 305 305 306 306 307 307 309 308 309 311 314 315 316 317 317 317 317 317 317 317 315 315 314 314 315 316 316 317 322 326 325 325 327 328
289 290 291 293 294 296 298 303 306 306 306 306 306 307 307 307 307 308 309 311 312 313 313 313 314 315 316 315 315 315 314 314 314 314 312 313 318 321 325 324 324 328 327
288 288 288 289 290 291 293 295 297 299 305 307 306 305 305 306 307 307 308 309 311 312 312 312 312 312 313 313 314 313 313 313 313 313 312 311 314 322 325 323 325 328 327
286 286 286 287 287 288 289 290 291 293 295 298 305 307 306 306 305 308 308 308 309 310 313 313 313 313 313 313 313 313 312 312 312 312 313 314 319 324 322 322 324 327 326
286 285 285 285 285 285 286 287 287 289 290 292 294 296 301 307 308 307 309 310 310 310 310 311 312 313 313 312 313 314 312 312 312 313 315 316 323 323 322 322 324 326 324

GFSGL_925_thetae_093.txt.gz
Theta_e
305 305 305 306 307 308 310 311 311 312 313 317 324 321 319 318 317 318 324 330 334 335 334 333 333 331 330 333 336 336 334 335 334 333 334 336 337 337 340 337 336 333 331
304 304 304 304 305 305 306 307 308 309 310 311 316 321 321 318 317 319 320 330 330 333 332 331 331 335 335 331 330 333 335 334 334 334 335 337 338 338 336 338 335 334 333
304 304 304 304 304 304 305 306 307 307 308 309 310 315 319 318 316 317 319 323 331 330 331 331 333 333 330 329 330 330 327 331 335 334 335 337 336 336 336 337 336 335 334
301 301 300 300 302 303 304 303 303 306 308 308 309 311 317 318 318 320 321 325 327 332 334 332 331 330 330 331 331 329 329 327 331 335 334 334 335 335 336 334 334 333 333
299 299 299 299 299 300 301 302 303 305 306 306 308 311 311 315 319 318 323 326 329 330 331 333 332 332 334 335 331 328 327 326 328 331 332 330 331 331 332 333 332 332 331
299 299 299 299 299 299 301 301 302 303 303 305 307 309 309 312 317 317 323 323 328 329 328 328 330 330 329 328 327 327 327 327 330 332 330 327 328 330 330 331 330 329 325
299 299 299 299 300 300 299 300 301 303 304 305 306 309 309 311 317 319 322 323 325 327 327 327 326 325 325 324 331 329 329 330 330 328 327 328 326 327 323 329 330 329 328
299 299 300 300 300 300 300 300 301 303 303 303 305 309 311 311 316 318 321 322 322 324 327 327 325 325 324 326 325 324 328 329 331 329 331 329 325 320 321 324 326 328 330
299 300 300 301 301 301 300 300 300 301 303 305 306 309 310 313 315 318 319 320 322 324 323 324 325 325 324 324 324 325 324 327 324 319 319 319 323 324 323 324 330 330 329
299 300 300 301 301 301 301 300 300 301 303 304 305 310 311 312 317 318 319 318 319 321 326 325 326 328 328 327 325 319 319 322 323 324 325 324 323 324 328 325 324 326 327
298 299 300 301 302 302 302 301 300 300 301 303 306 307 311 313 317 316 316 318 318 319 324 325 326 327 326 325 320 320 321 321 322 323 325 326 326 326 324 323 322 323 329
298 299 300 301 302 303 302 302 301 300 303 303 305 307 313 314 316 315 317 318 318 319 324 324 324 322 320 320 318 314 314 316 319 320 320 320 319 319 319 318 320 328 332
297 299 301 301 301 302 302 301 301 301 303 305 308 312 312 316 315 316 316 318 319 322 323 323 323 320 320 315 314 314 314 314 314 315 315 314 315 316 322 331 333 332 330
296 298 302 301 301 301 301 301 301 301 304 307 312 313 315 316 316 316 315 317 320 323 322 322 318 317 315 315 315 315 314 313 313 313 312 317 324 329 330 333 331 329 328
296 299 303 302 301 301 301 301 301 302 303 306 306 314 315 314 315 314 315 315 321 322 321 313 311 313 313 314 314 314 312 313 315 316 318 321 323 324 325 327 331 329 328
296 299 303 303 302 301 301 301 301 302 305 306 308 311 315 314 314 313 315 320 323 321 314 313 313 313 313 313 312 311 313 316 317 318 317 318 319 321 325 330 331 331 328
295 297 302 304 304 303 303 302 302 302 305 306 310 314 315 315 312 311 320 322 320 319 315 313 312 313 313 313 313 314 317 318 316 317 317 319 319 319 325 327 330 329 327
295 299 301 304 304 304 305 305 305 303 304 307 307 314 315 317 315 314 315 313 312 314 314 312 312 313 313 313 312 315 316 313 313 314 314 316 319 321 324 325 327 328 327
294 297 298 303 305 305 305 306 307 307 307 307 307 310 313 315 316 317 318 317 314 312 312 313 314 313 313 313 313 315 316 313 314 313 314 315 316 320 324 324 325 328 328
292 294 295 299 303 305 304 305 306 306 307 307 306 307 309 314 314 315 315 316 316 316 316 316 316 317 317 316 315 316 314 314 314 313 313 315 317 321 323 324 324 324 326
290 291 293 295 295 298 304 306 304 304 305 305 306 307 308 309 311 315 315 315 316 316 316 315 315 315 317 317 315 316 314 314 315 314 313 315 316 320 324 325 324 325 327
289 289 290 291 291 293 294 297 301 305 305 304 305 306 306 307 308 309 311 313 315 315 315 316 316 316 316 317 317 316 316 315 314 314 314 314 314 316 319 324 325 325 326
287 287 287 288 288 289 290 292 293 295 297 304 305 305 305 306 306 307 309 310 311 312 314 315 316 316 316 317 317 317 316 316 316 314 313 313 313 313 313 319 324 324 324
285 285 286 286 286 286 287 288 289 290 292 295 297 301 304 305 305 305 307 308 308 310 311 312 314 315 315 316 316 316 316 315 314 314 314 313 312 312 311 316 323 324 323
283 283 283 284 284 285 285 285 286 287 288 290 291 293 295 298 301 305 305 306 307 308 309 311 313 313 312 312 313 314 314 313 313 313 312 312 311 311 312 317 324 322 324
282 282 282 282 282 283 283 284 284 284 285 286 287 289 290 292 293 297 305 307 306 308 308 309 310 312 312 312 312 312 312 312 312 312 312 312 312 313 317 321 322 322 322

GFSGL_925_thetae_096.txt.gz
Theta_e
304 304 304 303 303 304 304 304 305 305 306 306 309 310 311 319 324 320 319 318 320 327 328 328 331 332 334 334 333 331 331 331 332 330 332 333 332 334 334 335 337 337 335
303 303 302 302 302 301 301 302 303 303 305 307 308 309 310 311 319 320 320 318 320 321 325 330 331 331 333 331 329 329 331 332 332 332 334 333 333 336 336 338 337 336 333
301 301 300 300 300 300 300 300 302 303 303 303 304 309 310 312 312 318 319 318 319 322 324 327 329 329 331 331 331 333 334 333 333 334 332 332 333 334 335 336 337 336 334
299 300 299 299 299 299 299 299 299 300 301 302 303 306 308 310 314 315 317 318 319 320 322 326 327 328 329 330 330 331 330 328 329 330 331 330 329 331 334 335 335 335 334
299 299 299 299 299 300 300 299 299 300 301 303 303 305 305 306 309 313 315 315 318 319 321 323 326 328 329 330 330 330 330 330 327 327 330 330 330 330 333 334 335 333 332
299 299 299 300 300 300 300 300 300 300 300 300 301 302 303 305 306 308 311 313 316 319 322 322 325 328 329 330 330 331 331 330 328 328 328 329 330 331 332 333 331 329 331
298 299 300 300 301 301 301 301 301 300 300 301 303 303 304 304 304 307 308 311 313 318 319 322 324 327 329 328 329 330 331 331 329 328 329 329 330 330 331 330 330 328 326
299 300 300 300 300 301 301 301 301 301 300 300 301 303 303 303 305 306 310 311 313 318 320 322 326 326 326 327 327 327 329 330 328 327 328 329 329 331 332 331 330 327 326
299 299 299 300 300 301 301 302 302 301 301 300 301 302 303 304 305 308 310 311 316 317 319 322 324 325 325 326 327 326 327 327 327 327 329 329 330 328 330 329 327 327 329
298 298 298 299 300 301 302 303 303 302 301 301 300 301 303 305 309 311 312 315 317 318 319 322 323 325 325 325 325 326 326 324 328 328 327 327 326 325 323 321 324 329 328
297 297 298 299 300 302 301 303 302 302 301 301 301 302 303 305 307 310 314 316 316 318 319 321 323 324 325 324 325 324 325 325 326 323 322 321 321 324 324 324 324 324 327
296 297 297 299 300 302 301 301 302 302 301 301 302 304 305 306 308 311 316 315 315 318 318 319 324 325 326 324 324 324 323 323 320 320 319 319 321 324 325 323 322 321 322
295 296 297 299 302 302 301 301 301 301 301 302 303 306 307 309 311 315 315 315 316 315 319 321 322 323 320 323 324 321 322 322 322 321 320 321 323 324 323 321 320 320 326
294 296 298 300 303 303 302 301 301 302 303 303 305 306 308 312 314 315 316 314 317 318 320 321 311 315 319 317 318 320 319 319 317 315 314 314 315 318 321 324 329 328 329
294 295 297 299 302 304 303 302 301 301 302 302 303 304 305 310 314 314 313 314 318 318 311 311 311 311 312 313 313 313 313 313 312 312 317 324 325 327 330 330 328 328 327
294 295 297 299 303 304 304 304 303 302 303 304 305 303 309 311 314 313 312 315 318 320 313 313 311 312 313 312 310 311 313 316 318 320 321 324 323 324 326 329 329 328 326
294 295 297 299 302 305 305 306 305 304 306 306 307 311 314 313 313 310 313 318 319 320 314 313 313 312 311 311 311 314 314 316 317 318 318 319 320 323 327 328 329 328 326
292 294 294 297 302 305 305 306 306 306 306 307 307 309 314 314 315 308 314 319 316 318 315 313 312 311 311 312 315 316 316 316 315 316 317 318 319 322 325 326 327 327 326
291 291 292 295 297 299 303 305 305 305 306 307 306 307 311 314 315 316 315 314 313 312 313 313 313 312 312 313 316 314 313 313 313 314 315 317 320 321 324 324 326 327 326
289 289 290 292 293 294 296 299 303 304 304 305 306 305 305 309 313 314 315 315 313 312 313 313 312 312 312 312 315 314 313 313 312 313 314 316 317 321 323 323 324 323 324
287 288 288 289 289 290 292 293 295 297 300 303 304 304 305 305 307 310 314 315 315 314 314 313 313 313 313 314 314 314 312 313 312 314 315 316 319 322 322 323 323 323 325
285 286 286 287 287 288 288 289 290 292 294 296 299 302 304 304 304 305 307 309 311 313 315 315 315 315 316 315 315 314 313 313 313 313 314 316 316 317 320 323 323 324 324
283 284 284 285 285 285 286 287 287 288 290 291 293 295 296 300 302 304 305 305 307 308 310 312 314 315 316 316 316 316 315 315 316 314 313 313 313 313 312 313 318 323 323
282 282 282 282 283 283 284 284 285 285 287 288 289 290 291 293 295 297 301 305 306 306 308 309 311 313 315 316 316 316 316 316 315 314 313 313 313 313 312 311 312 320 323
281 281 281 281 282 282 282 283 283 283 284 285 286 287 288 289 290 291 294 299 303 306 306 307 309 310 312 312 312 315 316 315 315 314 313 313 313 312 311 311 311 317 322
281 280 280 280 281 281 281 281 282 282 282 283 283 284 285 286 287 287 289 291 294 300 304 307 309 309 309 311 312 312 312 312 313 312 312 312 312 311 311 312 314 319 323

GFSGL_925_thetae_099.txt.gz
Theta_e
307 306 306 306 305 305 305 305 305 305 306 307 307 309 310 312 314 317 322 325 327 328 329 329 331 330 328 329 333 335 335 335 338 335 334 334 333 333 334 333 333 333 336
305 304 305 304 304 304 304 304 304 304 304 305 307 307 308 309 311 313 316 320 324 325 325 327 327 328 330 329 331 332 333 332 334 335 334 333 332 332 333 335 337 335 339
304 304 304 304 303 303 303 303 303 303 303 303 303 304 305 305 306 310 312 316 321 323 323 324 327 327 329 326 331 331 330 331 333 334 334 333 333 334 334 338 338 338 339
303 303 303 303 303 303 302 302 301 301 301 302 303 303 304 304 306 308 311 312 315 320 322 323 324 325 327 327 328 330 330 331 332 333 333 334 333 334 334 337 337 338 339
302 303 303 303 302 302 302 302 302 303 302 302 302 302 302 303 304 306 307 309 312 316 319 320 321 322 323 323 325 327 330 330 331 333 335 335 332 333 335 334 337 337 339
302 302 302 302 302 303 303 303 303 302 302 302 302 301 302 302 303 303 304 305 306 310 315 317 319 320 321 321 318 324 327 329 332 332 336 335 333 332 331 334 336 339 340
301 301 302 303 303 303 303 302 302 302 302 302 302 301 301 301 302 303 304 304 305 307 309 312 316 319 321 321 322 322 326 327 329 331 333 333 332 331 331 333 335 335 335
301 303 303 303 303 302 301 301 302 302 302 303 302 301 301 301 301 302 303 304 306 307 308 310 315 317 320 321 323 326 326 328 328 330 331 330 330 330 330 332 333 334 333
301 302 302 301 300 300 300 301 302 302 304 302 302 301 301 301 301 303 304 305 306 309 311 311 315 317 319 320 322 325 327 326 327 329 330 330 330 330 330 331 331 330 331
300 299 299 300 299 300 300 301 303 303 302 302 302 301 301 302 302 303 303 305 309 312 314 312 314 316 319 320 322 324 326 326 326 327 327 327 328 329 330 330 329 331 331
298 297 298 300 300 300 301 302 303 303 302 302 302 302 302 304 306 305 306 306 308 314 315 316 317 318 320 320 323 325 326 326 326 325 326 325 326 327 328 330 329 331 329
297 296 297 298 299 300 302 304 303 302 302 301 302 303 304 308 307 308 309 310 311 313 316 317 319 317 316 320 323 325 328 327 327 328 326 322 321 324 326 328 329 328 327
295 295 296 298 299 301 303 304 303 303 302 303 304 305 307 309 310 313 314 314 315 313 312 314 317 318 317 321 324 324 325 325 323 322 321 322 322 323 324 326 327 327 328
294 295 296 298 299 302 303 305 304 304 303 303 304 306 307 309 312 315 316 315 314 313 310 313 313 313 313 316 320 323 322 322 321 321 321 321 323 324 324 324 325 326 326
293 295 296 297 299 302 305 305 305 304 303 303 304 305 306 309 312 312 313 311 311 316 312 311 314 316 317 319 320 320 321 321 321 319 319 321 322 324 325 326 326 326 325
293 294 295 296 298 301 305 306 307 307 307 307 306 306 306 308 312 313 312 311 313 313 315 316 316 318 317 316 317 316 318 318 318 318 320 321 323 324 326 327 328 329 328
291 292 292 294 297 299 302 305 306 308 308 308 306 306 309 313 313 309 309 312 315 317 317 316 316 316 315 313 315 316 317 317 319 320 322 323 326 330 329 329 330 330 329
290 291 291 292 294 295 297 300 305 308 308 308 307 305 308 313 312 313 314 317 316 316 317 316 315 314 315 317 317 318 319 320 322 323 324 324 326 328 330 330 330 330 328
288 288 289 290 291 292 293 295 298 300 304 307 308 304 305 309 312 315 316 316 315 318 317 316 315 315 317 319 319 319 319 319 320 321 322 324 326 327 329 330 331 330 329
288 287 287 288 289 289 290 291 292 295 297 299 303 300 301 305 307 309 314 315 317 316 316 315 315 314 318 317 315 315 315 316 318 319 322 324 326 327 327 328 329 327 330
287 288 286 286 286 287 287 288 289 290 292 294 296 297 298 303 304 306 307 310 315 317 317 317 316 315 316 318 316 316 316 316 317 318 319 322 325 327 327 327 326 327 326
285 286 287 287 285 285 285 286 286 287 288 290 291 294 294 296 298 300 304 305 308 309 314 316 317 317 317 317 317 316 317 316 318 319 321 323 326 326 327 327 327 327 326
284 284 285 285 285 285 284 284 285 285 286 286 287 289 291 292 294 295 296 299 304 306 308 310 313 317 317 317 317 316 317 316 317 319 319 319 319 319 320 323 327 327 327
283 283 283 284 283 285 285 286 285 284 284 284 285 286 287 288 289 291 291 292 296 302 304 308 310 312 314 316 317 318 317 317 317 317 317 318 317 317 318 317 318 323 326
282 282 283 283 283 283 284 285 285 285 285 284 284 284 284 286 287 288 289 289 291 296 298 300 306 309 311 312 314 315 316 316 317 317 317 318 318 318 317 317 317 317 324
282 282 282 282 282 282 282 283 283 284 284 285 284 283 283 283 284 285 286 287 288 290 291 295 301 305 308 310 311 311 312 314 314 315 317 317 316 316 316 316 317 316 319

GFSGL_925_thetae_102.txt.gz
Theta_e
313 312 312 312 312 312 311 311 311 311 310 310 310 311 311 313 314 315 316 317 320 325 327 330 331 330 328 326 327 327 327 327 332 330 330 332 337 338 336 337 339 341 340
311 311 311 311 310 310 310 310 309 309 309 309 308 308 309 310 310 311 312 314 316 319 323 326 328 328 329 330 327 325 325 327 328 337 332 333 337 337 337 337 338 338 339
310 310 310 310 309 309 308 308 307 307 307 306 306 306 306 307 307 307 308 310 311 315 318 322 325 327 328 327 327 327 325 327 327 330 331 332 334 337 336 336 335 338 339
309 309 309 309 309 308 307 307 306 305 305 305 304 305 304 304 304 304 305 306 308 311 314 317 321 324 326 326 326 327 327 326 325 326 331 330 334 335 337 336 337 338 340
308 308 308 308 307 307 306 306 305 306 306 305 304 304 304 304 303 303 304 304 306 308 308 310 316 319 323 324 325 325 324 325 324 325 329 330 333 335 336 336 337 340 340
307 308 307 307 307 306 306 306 306 305 305 304 305 305 305 303 303 302 302 302 303 305 306 307 309 314 318 321 322 322 322 324 326 325 325 329 332 333 336 336 336 337 340
307 307 307 307 307 306 306 305 305 305 305 304 306 304 305 304 303 302 301 301 302 304 305 305 307 311 312 318 321 320 319 318 321 323 326 326 329 334 336 336 336 337 337
306 306 307 307 306 306 307 306 305 304 304 304 305 305 304 304 303 302 301 301 302 303 304 305 306 308 310 312 319 322 321 322 323 322 325 325 329 334 334 333 333 333 337
304 306 306 305 305 307 306 305 305 303 303 304 304 306 305 305 303 302 302 302 302 304 306 307 308 309 309 308 312 319 321 321 321 323 324 327 329 331 333 332 334 335 336
302 302 303 303 305 304 304 303 303 303 304 304 304 304 305 304 304 304 303 303 303 305 305 307 309 310 311 310 309 318 319 319 320 322 327 328 328 328 330 332 332 335 333
298 299 301 304 304 303 303 304 304 304 305 305 305 303 305 306 306 306 307 306 306 306 308 311 314 315 313 311 312 315 318 320 322 324 327 328 328 328 329 330 331 333 332
296 298 301 303 303 302 304 304 304 306 307 305 304 307 308 309 311 312 311 310 310 310 312 313 314 317 314 313 312 314 318 319 322 326 327 327 327 328 330 330 332 333 331
295 297 300 301 302 302 304 304 306 307 306 308 308 309 310 311 313 313 313 315 316 314 313 313 313 314 314 318 318 317 316 317 323 325 327 325 326 330 331 331 332 331 329
294 296 299 298 298 302 302 304 308 308 308 307 307 309 309 312 312 313 315 315 312 311 312 314 310 312 313 316 316 315 316 321 325 327 327 325 324 326 329 330 329 328 327
293 295 297 296 296 301 302 303 306 308 308 307 306 305 305 304 305 306 308 307 307 308 311 313 310 310 311 313 315 317 322 323 323 323 324 324 325 325 326 327 327 327 327
292 292 293 293 296 299 301 302 304 307 309 308 307 305 302 303 305 307 306 310 313 314 315 315 317 319 318 319 320 321 322 321 320 321 323 323 323 323 322 321 322 325 327
290 290 291 293 294 295 297 300 302 305 306 309 308 306 304 306 311 315 314 314 315 317 316 315 316 315 315 315 316 319 320 321 319 321 323 322 320 321 323 326 326 327 327
290 289 289 292 292 292 294 295 299 301 302 303 307 302 301 305 307 313 317 317 318 318 316 314 316 316 317 317 314 314 319 320 319 315 319 320 324 324 325 327 328 328 327
292 290 288 289 289 290 291 291 293 296 297 299 302 299 297 301 304 309 312 318 320 319 317 316 317 317 320 321 320 319 320 322 322 321 321 323 323 325 326 326 328 328 328
291 290 290 289 287 288 289 289 289 291 293 295 297 297 294 298 300 301 305 311 315 319 318 317 319 320 315 316 319 320 322 323 323 323 324 324 325 326 328 328 329 329 329
290 291 290 291 292 288 287 288 287 288 289 291 292 293 293 295 296 297 297 299 307 315 319 318 317 319 317 317 316 317 317 319 322 324 324 324 324 323 326 329 330 330 329
289 290 290 291 290 291 290 288 288 288 287 287 288 290 291 294 292 292 293 293 297 304 314 317 319 319 320 319 318 318 319 319 319 321 324 325 325 325 324 324 326 329 327
288 289 289 290 289 290 290 291 290 290 289 287 286 287 288 290 290 290 290 291 292 296 304 311 315 317 320 321 319 319 319 319 320 321 323 324 325 325 324 324 324 325 326
287 287 287 288 288 289 288 289 290 289 289 289 289 286 286 287 288 289 288 288 290 292 296 300 305 308 314 318 320 320 320 319 319 320 320 321 322 322 322 323 325 325 326
286 286 286 285 286 287 287 287 287 288 288 288 288 288 287 286 286 286 286 286 288 290 290 294 298 300 304 312 310 311 315 317 318 319 319 319 319 320 319 319 320 322 324
286 285 284 284 284 284 284 285 286 286 286 287 287 286 287 287 286 285 285 285 287 289 289 290 293 296 298 300 302 307 310 312 315 317 319 320 320 319 319 319 319 318 319

GFSGL_925_thetae_105.txt.gz
Theta_e
317 317 317 317 317 317 316 316 315 315 315 314 314 314 313 313 314 314 315 316 317 318 321 322 324 328 330 330 333 332 330 328 333 330 327 326 326 330 337 340 339 337 336
316 316 316 316 316 315 315 314 313 313 312 311 311 310 310 310 310 310 311 311 312 313 315 316 319 323 326 328 330 331 331 330 329 333 330 329 329 330 334 338 339 339 339
315 315 315 315 314 314 313 312 311 311 309 308 307 307 307 307 306 307 307 306 307 308 309 311 315 317 322 325 328 330 330 330 330 329 329 328 329 329 332 335 338 337 338
314 314 314 314 313 312 311 311 309 308 308 308 308 308 307 306 306 306 306 306 306 306 306 309 310 312 315 320 323 326 328 328 329 330 328 327 328 329 330 332 337 337 337
313 313 313 312 311 311 310 310 309 308 308 308 307 307 307 306 306 307 306 306 305 305 305 306 307 310 310 310 311 317 324 327 327 326 328 327 328 329 329 331 334 336 337
312 312 312 311 310 310 310 309 308 308 308 308 308 308 307 307 308 305 306 305 305 304 304 305 305 306 307 308 308 310 316 320 326 325 326 325 325 328 327 331 334 337 342
311 311 311 310 310 310 309 309 309 309 309 308 308 307 306 306 306 307 305 304 304 304 304 304 304 305 306 307 309 311 312 318 320 324 324 325 326 327 327 329 332 337 338
310 309 310 310 310 309 308 309 309 309 308 308 306 305 305 307 307 307 306 304 304 303 303 303 304 305 307 307 308 311 314 315 321 321 323 325 325 325 324 326 330 336 337
307 306 307 307 308 307 307 308 308 307 307 306 305 306 307 307 307 307 305 304 304 304 304 305 305 306 306 307 308 309 310 312 315 321 322 321 322 319 322 326 331 336 336
302 302 304 305 306 306 307 308 306 307 306 306 307 308 308 308 308 308 308 307 306 306 307 306 306 306 306 306 307 309 310 311 313 323 321 321 321 323 324 325 328 334 332
298 299 301 303 305 306 307 306 307 306 307 308 309 310 310 310 311 311 310 310 310 308 308 308 308 308 308 309 310 308 311 311 317 319 320 322 322 325 326 329 328 330 333
296 297 299 302 305 305 306 305 306 307 309 310 309 309 309 310 311 313 313 313 313 312 310 310 311 312 313 313 314 309 311 310 313 316 320 323 324 324 326 327 330 325 330
295 296 298 301 304 304 305 305 305 307 310 310 310 309 308 307 307 308 307 310 314 315 313 312 312 312 312 312 314 312 311 311 314 317 320 323 325 325 328 328 330 331 332
293 295 297 300 300 303 304 304 305 305 307 308 310 308 305 303 303 303 302 304 307 309 310 310 310 311 312 312 312 316 312 314 317 319 319 324 327 328 329 330 331 332 330
292 293 293 296 298 300 303 303 304 306 306 304 306 303 300 299 300 301 304 304 306 311 309 309 309 312 312 314 317 318 319 319 318 318 321 323 326 327 329 331 331 330 328
292 291 290 294 296 297 298 300 302 303 304 304 305 301 299 298 303 312 314 313 314 315 313 315 316 313 314 316 318 318 318 320 322 323 320 325 325 326 327 329 329 328 326
294 291 290 293 293 294 293 295 295 301 302 303 304 302 300 298 301 307 315 316 316 316 315 316 316 314 316 320 319 319 320 322 320 322 321 321 319 319 322 324 325 324 325
295 293 291 290 290 290 292 292 291 296 298 300 303 300 297 296 299 300 304 312 314 318 316 317 318 316 315 316 318 319 318 319 318 318 316 319 319 315 317 321 322 325 326
295 293 294 293 290 289 290 291 290 290 293 294 298 297 293 295 296 299 300 301 308 313 317 319 318 318 317 315 317 318 316 313 314 318 318 318 319 320 321 319 321 326 326
294 293 293 295 295 294 292 290 290 290 289 289 291 292 291 293 293 294 295 297 303 308 312 317 318 318 320 321 318 319 319 315 314 314 317 318 319 321 321 322 322 326 327
293 293 293 294 294 295 294 294 292 292 290 289 288 289 290 293 291 291 292 293 295 300 304 309 315 318 319 317 317 321 320 319 321 322 323 322 322 324 325 325 324 326 328
292 292 292 293 293 293 293 294 294 293 293 292 289 288 289 291 290 290 289 289 292 297 300 305 308 309 309 314 317 319 319 322 325 325 324 324 325 325 324 327 327 327 327
291 291 291 291 291 292 292 292 292 292 293 292 291 289 289 288 288 288 288 287 289 291 294 297 302 304 304 307 309 307 305 312 319 324 325 324 324 324 327 325 329 329 328
290 290 289 289 289 289 290 291 291 290 291 291 291 290 289 289 288 287 287 286 286 289 291 292 296 298 300 302 301 301 303 309 315 319 322 325 324 324 324 324 324 328 328
289 289 288 287 287 287 288 288 289 289 290 290 290 289 289 288 288 287 286 286 287 287 288 289 291 292 295 300 296 299 306 311 313 317 319 321 321 321 321 324 324 325 325
289 289 288 286 285 286 285 286 286 287 287 288 288 288 288 288 287 287 286 287 287 287 287 287 289 289 291 295 291 295 302 307 311 315 317 320 321 320 320 320 320 324 326

GFSGL_925_thetae_108.txt.gz
Theta_e
318 318 318 319 318 318 318 317 317 316 315 314 314 313 312 311 311 311 311 311 312 313 314 314 316 317 318 321 324 326 330 330 333 329 328 328 329 328 331 337 338 338 338
317 317 318 318 317 317 317 316 315 314 312 311 311 310 309 309 309 308 308 308 308 309 309 310 310 311 312 315 319 322 326 328 329 330 329 327 330 327 327 329 332 335 338
316 317 317 317 316 316 315 314 313 311 311 309 309 310 309 309 309 308 307 308 307 307 308 308 307 307 309 311 313 317 320 324 327 328 330 330 328 328 330 328 325 331 333
316 316 316 316 315 314 313 312 311 310 310 310 310 309 309 309 308 308 308 307 308 308 308 308 307 307 308 308 311 313 315 314 318 326 328 328 329 328 328 328 328 330 331
314 315 315 314 313 312 312 311 311 310 310 309 309 309 309 309 309 308 307 308 307 307 307 307 306 306 306 307 307 308 309 309 312 316 324 327 326 328 328 329 330 331 331
313 314 314 313 312 311 310 311 310 311 311 311 310 309 309 308 307 307 306 306 307 307 307 306 306 305 305 305 306 306 307 308 308 310 317 322 326 326 326 328 330 331 331
310 312 312 311 311 311 311 310 310 310 310 309 309 309 308 307 306 306 307 307 307 307 306 306 306 305 305 305 305 305 307 308 308 310 312 317 322 325 326 328 328 329 330
308 309 310 309 309 309 309 309 308 309 308 308 308 307 307 307 308 308 308 307 307 307 306 306 306 305 305 305 305 306 307 308 309 312 314 318 319 323 325 326 326 327 326
305 304 304 304 306 307 307 307 308 308 308 308 308 308 309 309 310 310 310 308 309 309 308 307 306 306 306 306 306 306 306 307 310 310 312 313 316 322 325 324 325 326 328
300 300 300 302 304 305 306 307 307 307 307 309 310 310 310 310 310 309 309 309 310 309 310 310 308 307 307 306 307 306 307 307 309 311 311 311 314 320 322 322 320 323 326
297 297 298 300 302 303 306 306 307 307 307 308 310 310 310 310 309 307 306 306 307 308 310 311 312 310 309 308 308 306 306 306 307 309 311 312 314 321 322 321 321 324 325
295 295 297 299 301 303 304 306 306 307 308 308 308 308 310 308 305 304 302 301 301 302 305 307 312 313 312 311 310 311 311 309 306 310 311 314 320 322 321 322 323 322 324
294 294 296 297 299 301 304 305 305 306 306 306 306 307 305 303 302 300 300 306 309 303 305 308 309 310 311 311 311 311 311 308 307 311 311 313 319 321 322 323 321 326 326
293 292 293 294 297 300 302 302 303 304 305 304 305 305 301 300 298 297 297 302 311 314 313 311 310 307 308 309 310 311 309 309 311 311 314 316 319 321 323 324 325 328 328
295 292 292 292 296 298 298 298 297 298 300 301 303 300 297 296 295 294 296 303 312 315 315 313 314 312 309 310 312 313 312 313 312 313 316 318 320 321 323 324 327 327 329
296 294 292 292 293 294 296 296 294 296 299 299 300 296 296 294 295 300 305 311 314 315 316 315 315 316 314 314 316 318 318 317 316 317 319 320 321 324 324 325 326 328 328
296 295 294 292 292 292 292 294 294 293 294 295 296 296 295 293 294 295 298 306 310 313 316 317 314 316 318 319 318 317 318 319 317 318 319 320 322 324 325 328 327 326 322
296 294 296 295 292 291 291 292 292 292 291 291 292 293 291 292 293 293 295 299 303 305 307 312 317 315 316 316 317 317 317 316 318 319 318 317 319 323 326 327 326 325 323
295 294 295 297 296 295 295 293 292 293 291 291 291 291 290 292 292 292 292 294 296 300 303 307 310 311 314 317 314 315 315 316 317 318 317 316 317 318 322 324 325 324 325
295 294 294 295 295 295 296 296 295 294 293 291 290 290 290 291 290 290 290 291 292 294 297 299 304 306 308 308 310 316 313 314 317 318 315 318 316 316 319 321 320 325 326
294 293 293 293 294 294 295 295 294 295 295 293 291 289 290 291 289 289 289 288 289 291 293 295 298 300 302 303 304 302 303 306 311 320 318 318 318 317 317 315 316 323 325
292 292 292 292 292 292 293 293 292 293 293 293 292 290 289 290 289 288 288 287 288 289 290 292 294 295 297 301 298 297 295 296 302 312 318 321 320 317 319 318 320 322 327
291 291 290 290 290 290 291 291 291 291 292 292 291 291 290 289 289 288 287 288 288 288 288 289 291 292 293 297 293 293 290 290 300 308 310 320 325 321 323 324 325 326 327
291 290 289 289 288 289 288 289 289 289 290 290 290 290 290 289 288 288 287 287 288 288 288 288 289 289 290 291 290 289 289 297 308 305 303 317 324 321 322 322 325 327 326
290 290 289 288 287 287 287 287 287 286 287 288 289 288 289 288 287 287 286 287 287 287 287 288 288 288 289 289 288 287 288 294 301 305 313 319 321 324 326 327 326 326 325
290 289 288 287 286 285 285 285 285 284 285 286 286 286 287 287 286 286 286 286 286 286 287 287 287 288 287 287 288 289 291 295 301 305 309 309 315 319 323 325 326 327 327

GFSGL_925_thetae_111.txt.gz
Theta_e
317 317 318 318 318 317 317 316 315 314 313 311 311 309 309 309 309 309 308 308 307 307 307 308 310 309 309 311 311 312 316 319 323 325 327 329 330 329 333 333 334 336 337
316 317 317 317 316 316 315 314 313 313 311 310 309 309 309 310 309 309 309 308 308 307 307 307 306 306 307 306 306 307 310 313 318 320 323 326 327 328 328 330 334 335 335
315 316 316 316 315 315 314 313 313 311 310 310 309 309 309 309 308 308 309 308 308 308 308 308 308 307 307 306 306 306 308 310 312 315 316 319 325 328 329 328 331 331 333
314 314 315 315 315 313 313 311 310 311 310 310 310 310 310 309 309 309 308 308 307 307 308 308 308 307 307 307 306 307 307 307 308 312 312 314 318 324 327 329 329 328 329
312 313 314 314 313 312 311 310 310 311 310 310 309 309 309 309 309 308 308 306 306 306 306 306 306 307 307 307 306 306 306 306 305 307 308 309 312 317 325 327 328 328 326
308 309 311 311 311 311 311 310 309 308 308 308 307 307 308 307 307 308 307 307 307 306 306 307 307 307 306 306 306 306 306 305 305 305 306 306 308 311 316 324 326 327 328
307 308 307 306 306 307 307 308 307 307 307 307 307 308 307 308 309 309 309 309 308 308 307 307 307 307 307 306 306 305 305 305 305 305 305 306 308 310 312 317 324 327 328
302 302 302 302 303 304 305 306 306 307 307 307 307 308 308 309 310 310 310 308 307 307 308 308 307 307 307 306 305 305 304 305 305 306 307 308 308 309 310 316 319 325 327
299 299 299 300 301 303 304 305 306 307 307 307 308 309 309 310 310 310 307 305 305 305 306 308 309 310 309 308 306 305 305 305 306 306 306 307 308 310 313 317 318 324 324
297 297 297 298 300 301 303 305 306 307 307 307 308 308 307 309 309 304 303 301 301 302 303 303 305 309 310 309 307 306 306 306 306 306 307 309 310 310 310 311 314 322 324
295 295 296 298 299 301 303 303 305 306 307 307 306 306 307 305 302 301 305 302 298 298 300 303 305 305 306 310 311 307 307 307 307 307 307 308 309 310 311 312 314 319 320
294 294 295 295 297 299 301 303 305 305 306 306 304 305 304 301 300 300 307 307 305 298 301 305 306 307 307 307 310 312 311 308 306 307 307 308 309 311 313 315 312 319 321
294 293 293 294 296 299 300 299 299 300 300 301 302 302 299 298 297 298 302 306 308 303 307 310 312 313 310 308 307 308 309 306 305 305 306 308 310 311 314 320 318 320 321
296 294 292 293 295 297 297 297 295 295 296 297 299 295 295 295 294 294 295 299 303 306 311 315 315 316 313 310 306 308 309 308 306 307 309 310 311 313 318 321 322 323 325
296 294 293 292 293 293 295 295 294 293 293 293 294 292 292 292 292 292 293 298 302 305 311 312 315 315 315 314 312 312 311 311 308 310 311 312 313 314 317 318 321 324 324
296 295 295 294 293 292 292 293 294 293 292 292 292 291 291 292 292 292 300 301 300 303 305 308 310 310 313 317 317 317 317 314 312 311 312 313 316 318 319 320 322 324 324
297 294 295 295 294 293 293 293 293 293 292 291 291 291 291 291 291 291 295 297 296 299 300 303 306 306 308 310 315 316 316 317 317 313 313 314 317 319 319 322 323 324 324
294 294 294 296 295 294 294 294 293 293 293 292 290 290 291 290 290 290 291 293 294 295 296 298 300 302 303 305 305 309 314 316 318 318 318 318 319 321 321 324 324 324 323
294 294 294 295 295 294 295 295 294 294 293 291 290 289 290 290 289 289 289 290 291 292 293 294 296 297 301 299 300 299 300 302 313 316 317 317 318 321 323 324 324 322 322
293 293 292 293 292 292 293 292 292 293 293 291 290 289 289 289 289 288 289 289 289 290 290 292 293 294 297 295 295 295 294 296 300 306 315 316 315 319 323 324 322 321 322
291 291 290 291 291 291 291 290 290 291 291 291 291 290 289 289 289 288 288 288 288 289 289 290 291 292 292 292 290 291 291 291 293 297 301 313 315 316 318 322 324 324 324
290 290 289 289 289 289 289 289 288 289 290 289 289 289 289 287 288 287 287 287 288 288 288 289 289 289 290 290 288 288 289 289 290 291 293 303 316 315 317 316 322 324 324
289 288 288 288 287 287 287 287 286 286 287 288 287 288 288 286 286 286 286 286 287 287 288 288 289 288 288 288 286 286 287 286 287 289 293 301 311 317 317 317 315 324 322
289 288 286 286 286 285 285 285 284 284 286 285 285 285 286 285 285 285 285 285 285 286 286 287 287 287 287 287 285 285 286 287 290 291 300 303 309 315 321 320 318 323 321
288 287 286 285 285 285 285 284 283 283 284 283 284 284 285 285 284 284 283 284 284 284 285 285 285 286 285 285 284 284 285 290 293 302 300 302 305 309 316 322 323 323 322
288 288 287 286 285 285 285 284 283 283 283 283 283 283 283 283 283 283 282 282 283 283 283 283 284 283 283 284 284 285 285 287 290 296 299 303 301 305 307 321 323 322 321

GFSGL_925_thetae_114.txt.gz
Theta_e
317 317 318 317 317 316 316 315 314 313 312 311 309 309 308 308 309 309 308 308 308 308 308 307 307 306 306 306 306 306 307 307 309 310 313 317 319 321 323 324 327 327 329
316 317 317 316 316 315 314 313 312 312 311 310 309 309 310 309 309 309 309 308 308 308 308 308 307 307 307 307 307 306 306 305 306 307 308 311 314 317 319 321 326 327 327
314 315 315 315 315 314 313 312 312 311 310 310 310 310 310 309 309 309 309 309 308 308 307 307 307 307 308 307 307 306 306 306 305 307 308 307 310 312 313 316 323 325 328
312 312 312 313 314 313 312 311 310 311 309 308 308 307 307 308 308 307 308 307 307 307 306 306 305 306 307 306 306 306 306 305 306 305 306 307 308 310 312 313 317 324 327
310 310 309 310 310 310 310 310 309 308 307 307 307 306 307 307 308 308 308 308 308 308 308 308 307 307 307 306 306 307 307 305 305 305 304 304 305 306 307 309 315 317 325
306 305 305 306 306 306 306 307 306 306 306 306 306 306 307 308 309 309 309 309 308 308 307 307 307 307 307 307 307 307 308 307 306 305 304 303 304 304 305 306 309 315 323
302 302 302 302 302 303 304 305 306 306 306 306 306 308 308 309 309 309 309 306 305 306 306 307 307 307 307 307 307 307 307 306 305 305 305 304 305 304 305 307 309 313 315
299 299 299 299 300 301 303 304 306 306 306 307 307 307 307 307 308 308 304 303 304 305 306 306 306 307 308 308 307 307 307 306 306 305 305 304 304 304 305 306 307 310 313
296 296 296 297 299 300 302 304 305 305 306 307 307 306 305 306 306 302 301 299 301 302 303 306 304 304 306 306 306 307 307 307 306 307 306 305 305 306 307 307 308 313 319
295 294 295 297 298 300 301 302 303 305 305 306 306 304 305 305 300 299 298 296 298 300 307 308 308 306 307 308 305 305 307 307 307 306 306 306 306 306 306 306 307 312 314
294 294 294 295 297 299 300 301 302 304 304 302 301 302 301 298 298 297 295 294 296 297 299 303 307 311 313 311 308 304 306 308 308 307 307 307 307 307 309 309 309 309 311
295 293 293 295 296 298 299 299 299 299 298 299 299 297 296 296 296 294 295 296 299 297 301 305 310 312 314 313 310 307 304 305 306 307 308 307 308 308 308 308 309 311 311
295 294 293 294 295 297 296 295 295 295 295 296 296 293 293 294 294 293 295 299 303 300 305 308 309 309 311 314 312 309 308 303 304 306 307 307 308 308 309 309 310 310 312
295 294 294 294 293 294 295 294 293 292 292 293 293 292 291 293 292 291 292 297 297 302 304 305 306 306 307 310 313 314 311 309 307 306 306 306 307 308 309 310 312 314 317
295 295 294 295 295 294 294 294 293 292 291 291 292 291 291 291 290 290 292 295 295 299 301 301 302 304 303 304 305 307 313 313 309 308 307 309 310 311 312 314 317 319 319
296 294 294 295 294 294 293 294 293 292 291 290 290 291 290 290 290 290 292 294 294 296 298 299 299 299 301 299 301 300 302 305 311 311 310 310 311 314 315 317 318 321 321
294 293 294 295 295 294 294 293 293 293 292 290 289 290 290 289 289 290 291 293 292 293 294 295 296 296 298 296 297 297 297 299 302 313 311 311 312 313 315 317 319 320 321
293 293 293 294 293 293 294 293 293 292 291 290 289 289 289 289 289 289 289 290 291 291 291 293 293 293 295 293 292 293 294 295 296 302 314 315 315 316 318 318 318 321 321
291 291 291 291 291 291 290 290 291 290 291 290 289 288 288 288 288 288 288 289 289 290 290 291 290 291 292 291 290 291 291 292 293 295 298 305 315 318 319 320 322 322 321
290 290 290 289 289 289 288 288 289 289 288 288 288 286 286 287 286 287 287 288 288 288 289 289 289 289 290 289 288 289 289 290 291 292 294 297 303 315 321 322 322 321 321
289 288 288 288 287 287 287 286 286 287 287 286 287 286 285 285 285 285 285 286 287 287 288 288 288 288 288 288 287 287 287 288 288 289 291 294 300 311 317 322 321 322 321
288 287 286 286 286 285 285 284 284 285 285 285 285 285 284 284 284 283 284 284 284 285 286 286 287 286 287 286 285 286 286 286 286 287 290 293 299 312 317 319 323 322 320
286 286 285 285 285 284 283 283 283 283 283 283 283 283 284 283 283 282 282 282 283 283 284 284 285 284 284 285 283 284 284 284 284 286 288 292 302 306 316 317 322 320 319
286 285 285 285 285 284 283 282 282 282 282 282 282 282 283 282 282 281 281 281 281 281 282 282 283 282 282 283 282 282 283 283 285 287 291 295 299 303 315 316 319 317 314
286 285 285 285 285 284 283 282 282 282 282 282 282 282 282 281 281 280 280 280 280 280 280 281 281 281 281 282 281 282 282 284 285 289 291 294 297 300 308 316 320 318 315
287 286 285 285 285 283 282 282 282 282 282 282 282 282 282 280 280 279 279 279 279 279 279 279 279 280 280 281 281 281 281 282 286 290 291 292 294 296 299 311 320 319 317

GFSGL_925_thetae_117.txt.gz
Theta_e
317 317 317 317 316 316 315 314 313 312 311 310 309 309 309 310 310 309 309 308 308 308 308 308 308 308 307 307 307 306 306 306 305 305 305 305 306 308 310 312 315 318 319
316 317 317 316 315 315 314 312 312 312 311 309 310 310 310 308 309 308 308 308 308 308 308 308 308 307 307 307 306 306 305 306 305 304 304 305 306 307 308 311 313 312 317
314 314 314 314 314 314 313 312 312 311 310 310 309 308 307 307 307 307 307 307 307 307 307 307 308 307 306 306 306 306 306 305 305 304 305 305 305 305 305 309 312 313 313
311 311 311 311 312 312 312 310 310 309 309 308 307 307 306 307 307 308 308 308 309 309 308 308 308 307 306 306 306 306 306 305 305 305 305 305 305 305 306 306 307 307 308
308 307 306 307 308 309 308 308 307 307 307 307 306 306 306 307 308 308 308 308 308 308 308 308 308 308 308 308 307 307 306 305 306 306 306 305 305 304 303 303 304 304 305
303 303 303 304 304 304 305 305 306 306 306 306 306 307 308 308 307 308 308 307 305 305 306 307 307 307 308 308 308 308 308 308 307 307 307 306 305 304 303 303 303 304 305
300 300 300 300 301 302 303 304 305 305 306 306 307 307 307 305 306 307 302 302 303 303 304 305 305 306 307 307 308 308 308 307 307 308 308 306 305 304 304 304 303 304 306
297 297 297 298 299 300 301 303 304 304 305 306 306 307 305 305 305 301 300 301 301 302 304 302 303 304 305 305 305 306 306 307 307 307 307 307 306 305 304 304 303 304 305
295 295 296 297 298 300 301 302 303 303 304 305 305 304 303 303 299 299 298 298 299 302 300 301 303 303 306 308 305 304 304 305 307 307 307 307 307 306 305 304 304 305 306
294 294 295 296 297 298 299 300 301 302 303 302 301 302 300 299 299 296 295 295 295 296 298 304 305 306 307 308 309 305 304 304 306 308 307 307 307 306 305 304 305 307 306
294 294 294 295 296 297 298 298 298 298 299 299 299 298 297 297 296 295 295 294 294 294 296 300 304 306 306 308 312 310 306 306 305 307 308 307 307 307 307 307 306 305 306
295 294 294 295 296 297 297 295 295 295 296 297 296 296 295 295 294 293 295 294 295 295 298 301 304 304 303 305 305 306 310 308 303 304 307 308 308 308 308 308 308 308 308
295 296 295 294 295 295 295 293 293 292 293 295 293 293 292 292 292 293 295 294 296 299 299 302 301 302 301 301 301 301 304 306 305 304 305 306 308 308 308 308 308 309 309
295 294 295 295 295 294 294 293 292 291 291 291 291 291 291 291 290 290 293 293 295 298 298 300 299 298 299 297 298 299 299 301 303 306 306 307 307 307 308 308 309 310 310
295 294 294 294 293 293 293 293 292 290 289 290 290 290 290 290 289 290 292 292 293 295 296 296 296 296 296 296 295 295 296 297 298 303 308 308 308 308 308 309 309 311 311
293 293 293 295 294 293 293 293 293 292 290 289 289 289 289 289 289 290 291 291 291 293 294 293 294 293 294 293 293 293 293 294 295 297 304 310 310 311 312 314 314 312 313
293 294 294 293 293 293 292 293 292 291 291 289 287 288 287 288 288 288 289 290 290 291 291 291 291 292 292 291 291 291 291 292 292 294 297 303 310 311 312 313 315 317 316
291 292 291 290 290 290 290 290 289 289 289 288 286 286 286 286 286 286 288 289 289 289 289 290 290 290 290 289 289 289 289 290 290 291 293 296 300 307 313 315 317 318 319
290 290 289 289 289 288 288 288 288 287 287 287 285 284 285 284 284 284 285 286 287 287 288 288 288 288 288 288 287 287 288 288 289 289 291 293 295 300 307 317 318 319 320
289 288 288 287 287 287 286 286 286 285 285 285 285 284 283 283 282 283 283 283 284 285 286 286 286 286 286 286 285 286 286 287 287 288 289 291 293 296 304 318 320 320 320
287 287 286 286 285 284 284 284 284 283 283 283 283 283 282 282 282 281 282 281 282 283 283 284 284 284 284 285 284 284 284 285 285 286 288 289 291 296 305 319 321 321 320
286 285 284 284 283 283 283 283 282 282 282 282 282 282 281 281 281 280 280 280 280 281 281 281 283 282 282 283 282 282 283 283 283 284 286 288 292 298 303 316 321 320 318
285 285 284 283 283 282 282 282 282 282 282 282 282 281 281 280 280 279 279 279 279 280 280 280 281 280 281 281 281 281 281 281 282 283 284 288 292 297 302 314 321 319 316
285 285 285 284 283 282 282 282 282 282 281 281 281 281 280 280 279 279 279 278 278 279 279 279 279 279 280 280 280 280 280 281 282 283 285 289 292 295 299 310 315 314 312
285 285 285 284 282 282 282 281 282 282 281 280 281 281 280 279 279 278 278 278 278 278 278 279 279 279 279 280 280 280 280 280 282 284 285 288 291 293 296 306 314 313 312
285 284 284 283 282 282 282 281 280 280 281 280 279 280 280 279 279 278 278 278 279 278 278 279 279 279 279 279 279 279 279 281 281 284 285 287 290 292 293 298 307 314 312

GFSGL_925_thetae_120.txt.gz
Theta_e
317 317 316 316 316 315 314 313 312 312 311 310 309 309 310 309 308 308 308 308 308 307 307 307 307 307 307 307 306 306 306 306 306 306 306 306 305 304 305 305 306 308 309
316 316 316 315 315 314 313 312 312 312 311 309 310 310 308 307 306 307 307 307 307 308 308 308 308 308 307 307 306 306 306 306 305 306 306 306 305 304 305 305 306 306 307
315 315 314 314 314 313 312 312 311 311 310 310 309 308 307 306 306 307 308 308 308 308 308 308 308 308 308 307 306 306 306 306 306 306 306 306 305 305 305 305 305 306 307
312 311 311 311 312 312 311 310 309 309 308 308 307 306 306 306 307 308 308 308 308 308 308 307 307 307 307 307 307 306 307 306 307 306 306 306 306 306 306 305 305 305 305
307 306 306 306 307 308 307 307 307 307 306 306 306 306 307 307 306 307 307 306 304 303 304 305 306 306 308 308 308 309 309 308 308 307 307 307 307 307 307 306 304 304 304
303 302 302 303 304 304 305 305 305 305 306 306 306 307 306 305 305 306 304 302 302 302 302 305 306 305 305 306 306 307 307 308 309 309 308 308 308 307 307 306 305 304 306
300 299 300 300 301 301 302 303 304 304 304 305 306 306 306 304 304 303 302 301 302 301 301 302 303 303 304 306 306 305 305 306 307 307 308 308 308 308 307 306 306 305 305
297 297 298 298 299 300 301 302 302 303 304 304 305 304 303 302 300 300 301 301 300 300 299 300 301 304 306 305 304 303 304 306 307 307 307 308 308 308 307 306 305 305 304
295 295 297 298 299 300 300 300 301 302 303 302 302 302 300 299 298 298 297 298 298 299 301 301 302 303 303 304 302 303 305 308 309 307 306 306 307 308 308 305 304 304 305
294 294 295 296 297 298 299 299 298 299 299 299 300 299 297 297 296 297 295 296 295 295 299 301 302 302 302 302 301 302 303 303 306 306 306 307 308 307 307 306 305 305 306
294 294 295 296 296 297 297 296 296 296 297 298 297 296 295 294 293 293 295 293 293 294 297 300 301 300 300 300 299 300 299 302 304 305 305 306 308 307 307 307 306 305 305
296 295 295 295 296 296 294 293 293 293 295 295 293 293 292 292 291 292 294 294 295 294 297 298 299 298 298 298 296 296 298 299 300 303 304 305 307 308 308 307 307 307 307
295 295 295 294 294 294 293 292 291 291 291 291 291 292 292 291 290 291 293 294 296 295 297 297 297 296 296 296 295 295 295 296 297 299 302 305 306 307 308 308 308 308 308
294 294 294 294 294 293 292 291 290 289 290 290 290 291 290 290 289 289 291 292 293 294 295 295 295 294 295 294 294 293 293 294 294 295 297 304 307 307 307 307 308 309 309
293 293 294 294 293 293 293 293 291 289 288 289 289 289 289 288 288 288 290 290 290 292 293 292 292 292 293 292 292 292 292 292 292 292 294 297 305 309 309 308 308 308 309
294 293 294 293 293 293 292 292 292 289 288 286 287 287 286 286 286 288 289 290 289 290 291 291 290 290 291 290 290 290 290 290 290 291 292 294 297 302 310 311 311 310 310
292 291 291 291 291 292 291 290 290 289 287 285 285 285 284 285 285 286 287 288 288 288 289 289 288 288 289 289 288 288 288 289 289 289 290 292 294 296 300 309 312 313 312
290 290 289 289 289 288 288 287 287 287 287 286 284 283 284 283 284 283 284 285 286 286 286 287 286 286 286 287 286 286 286 287 287 288 289 290 292 294 296 302 312 315 314
289 288 288 288 287 287 286 286 285 285 284 284 284 283 282 282 282 282 282 282 283 283 283 284 285 284 284 284 284 284 284 285 285 286 287 288 290 291 293 298 307 317 317
287 287 287 286 285 285 284 284 284 283 283 283 282 282 281 281 281 281 281 281 281 281 281 282 283 283 282 283 283 283 283 284 284 284 285 286 288 290 294 300 304 319 319
286 285 284 284 284 283 283 282 282 282 282 282 282 281 280 280 280 280 280 280 280 280 280 280 281 281 281 282 282 281 282 282 282 283 284 285 287 290 294 299 307 320 318
284 284 283 283 282 282 282 282 282 282 282 282 281 281 280 280 280 280 280 279 279 279 279 279 280 280 280 280 281 280 281 281 281 282 283 284 287 290 295 298 307 318 316
284 283 283 282 282 282 282 282 282 281 281 281 281 281 280 279 279 279 279 279 279 279 279 279 279 279 279 280 280 280 280 280 280 281 282 284 287 291 293 299 317 317 315
284 284 283 282 282 281 281 281 281 281 281 280 281 281 280 279 279 279 279 279 279 279 279 279 279 279 279 279 279 279 279 279 279 280 282 285 287 290 292 299 312 314 311
284 283 283 282 282 281 281 280 280 280 281 280 279 280 280 279 279 279 278 278 279 279 279 279 279 279 279 279 279 279 278 279 279 280 282 284 287 290 291 295 300 311 309
284 283 282 282 281 280 280 280 279 279 279 279 278 278 279 279 278 278 278 278 278 279 279 278 278 279 279 279 278 278 278 278 279 281 282 283 285 287 290 292 295 301 310

GFSGL_925_thetae_123.txt.gz
Theta_e
318 318 318 317 315 315 314 313 312 311 311 311 311 312 312 311 311 310 310 310 310 311 311 311 311 311 311 311 311 311 311 311 312 311 311 312 311 311 311 310 310 310 310
316 316 316 316 316 315 313 313 312 312 311 310 311 311 310 310 310 309 310 310 311 311 311 311 312 312 312 312 312 311 311 311 310 310 309 309 309 310 311 310 310 310 310
316 315 315 315 315 314 314 313 313 312 312 311 310 310 309 309 308 309 310 311 311 311 311 310 310 311 311 312 311 310 311 311 310 310 309 309 308 309 309 310 311 311 310
313 312 312 312 312 312 311 311 310 310 310 310 309 308 308 308 309 310 310 310 309 309 308 307 309 310 310 310 310 310 309 309 309 309 309 309 309 308 309 310 311 312 311
309 308 307 308 308 309 309 308 308 308 308 308 308 308 309 309 308 307 306 306 307 306 306 307 308 307 306 307 307 307 307 307 308 309 309 310 310 309 309 309 310 311 311
306 305 305 305 305 305 306 306 307 307 307 307 307 308 309 307 304 303 301 303 304 304 306 307 307 307 307 305 305 305 304 305 306 307 308 309 309 310 309 309 309 310 312
303 302 302 303 303 303 304 305 305 306 306 307 308 308 307 306 301 301 300 301 302 303 304 305 305 306 304 305 303 303 305 305 306 305 306 307 308 308 309 309 309 309 310
300 301 301 302 303 303 304 304 304 305 306 307 307 305 303 301 298 298 299 301 302 303 301 303 303 302 303 301 300 303 305 306 307 306 307 308 308 308 308 309 308 308 308
299 299 300 301 301 302 302 302 302 303 304 304 303 301 301 300 296 295 297 299 301 300 299 299 300 302 301 299 300 301 302 304 304 301 303 306 307 307 306 306 308 307 307
297 298 298 299 300 301 299 300 300 300 300 301 299 298 297 297 295 293 294 297 298 297 298 300 302 300 297 297 298 298 297 297 297 299 302 304 306 308 307 307 307 307 307
297 297 298 299 300 298 298 297 296 297 297 297 297 297 297 295 294 293 293 293 294 296 299 302 302 297 296 296 296 296 294 295 296 297 300 303 305 308 308 308 307 306 307
298 298 298 298 298 297 295 294 293 293 293 294 295 297 296 294 291 291 292 292 293 295 298 298 298 295 296 296 295 294 293 294 295 296 297 298 302 306 307 308 308 307 307
297 298 298 297 297 295 294 292 291 291 291 291 293 294 294 293 290 290 291 291 292 294 295 294 293 294 296 296 294 293 293 293 293 293 294 295 297 301 308 308 308 308 307
297 296 296 296 296 295 294 293 292 291 292 293 293 292 291 291 289 288 290 290 291 292 293 294 292 292 293 292 295 294 292 291 292 291 292 293 295 298 302 309 309 309 309
295 296 296 296 296 296 295 293 292 288 288 289 289 289 289 288 287 286 288 289 289 290 292 292 291 289 291 291 291 290 289 289 289 289 290 291 292 295 297 300 308 309 310
296 296 295 296 295 295 294 293 289 288 285 285 285 285 286 285 284 285 287 287 286 288 290 289 289 288 288 289 290 290 289 287 287 288 289 289 290 292 294 296 300 310 311
294 293 293 293 294 293 292 292 291 290 288 285 283 283 283 283 283 283 285 286 285 287 287 289 288 288 287 286 288 288 286 286 286 286 287 288 288 290 292 295 299 303 313
291 291 292 291 291 291 290 290 289 288 288 287 285 283 283 283 282 282 284 286 287 286 286 287 287 287 287 286 286 286 286 286 285 285 285 286 287 289 290 293 296 300 311
291 290 290 290 289 288 288 288 287 286 286 286 285 284 283 283 283 283 283 284 285 285 285 285 285 285 285 285 285 285 284 284 285 284 284 285 286 287 289 292 296 300 306
288 287 288 288 287 287 286 286 285 285 285 285 284 283 282 284 284 284 284 283 284 284 283 283 284 284 284 284 284 284 283 284 284 283 283 284 285 286 289 292 296 300 308
287 286 285 286 286 285 285 285 285 285 285 285 284 282 281 283 283 283 283 283 283 282 282 282 283 283 283 283 283 283 282 283 282 282 282 283 284 287 290 293 296 303 314
286 286 285 285 285 285 285 285 285 285 284 284 284 283 282 283 283 283 283 282 282 282 282 282 283 283 283 283 283 282 282 282 281 281 282 282 284 287 289 293 299 308 318
286 285 285 285 285 284 285 284 284 284 284 284 284 284 283 283 283 283 283 282 283 283 282 282 282 282 282 283 282 282 281 280 280 281 281 282 285 287 289 292 298 315 317
285 285 285 284 284 284 284 284 284 283 283 283 283 283 283 283 282 282 282 282 282 282 283 282 282 282 282 282 282 281 281 279 279 280 281 283 284 286 288 292 296 304 310
285 285 285 284 284 284 284 283 283 283 283 282 282 282 282 282 282 282 282 282 282 282 282 282 282 282 282 282 281 280 279 279 279 279 281 283 284 285 287 290 293 298 304
285 285 284 283 283 282 282 282 282 281 282 282 281 281 281 281 281 281 281 281 281 281 281 281 281 281 282 282 280 279 279 278 279 279 283 283 284 284 285 288 291 293 298

GFSGL_925_thetae_126.txt.gz
Theta_e
325 324 322 320 319 320 320 319 319 318 317 316 316 316 316 315 316 315 315 314 315 316 315 315 315 315 314 315 315 315 315 316 317 315 314 313 313 313 313 313 314 314 314
322 321 319 319 319 319 318 318 318 317 316 316 316 315 315 314 314 314 314 315 315 315 314 314 315 314 314 314 315 315 315 314 314 314 313 312 312 313 314 314 313 314 313
319 319 319 319 319 318 318 318 317 317 316 315 315 314 314 313 313 314 314 314 314 313 314 313 313 313 314 314 313 314 313 313 312 312 312 311 311 312 312 312 313 313 314
319 319 319 319 318 318 317 317 316 315 315 314 314 313 313 313 313 313 312 312 312 312 312 312 311 313 313 312 311 311 311 311 310 310 310 311 311 312 312 311 312 313 314
316 316 315 315 315 315 315 314 314 313 313 313 313 313 313 312 308 306 307 308 309 310 310 311 312 312 309 308 307 308 308 308 308 308 308 309 311 312 312 312 311 311 310
312 312 312 312 312 312 312 312 312 312 312 312 312 311 311 309 306 304 302 304 307 309 310 311 311 311 310 307 306 304 303 305 306 307 308 309 309 311 311 311 311 310 311
309 309 309 309 309 309 310 310 310 310 310 310 310 309 309 307 303 300 300 301 306 308 309 309 308 308 306 304 305 304 308 308 308 308 309 308 308 308 309 309 310 310 310
307 307 307 308 308 309 309 308 308 308 308 308 308 307 306 303 300 298 299 303 306 308 307 304 304 305 305 300 301 306 308 309 308 306 304 304 303 304 304 306 307 307 308
305 305 306 307 308 307 307 307 306 307 307 307 305 305 304 302 298 295 296 302 305 305 304 302 303 303 298 297 300 305 305 305 303 301 301 301 302 304 307 308 306 307 309
303 304 305 306 306 305 305 305 305 305 305 304 303 303 301 299 296 293 293 298 301 300 302 304 302 301 297 296 299 301 301 300 299 300 301 302 302 304 307 309 307 307 309
302 303 304 304 303 303 302 301 300 299 299 298 299 301 299 296 295 292 292 294 295 299 301 301 303 297 297 297 297 298 295 294 298 298 297 298 299 303 303 307 309 308 308
303 303 303 303 302 301 300 299 297 296 295 295 296 299 299 297 292 290 291 291 292 297 297 299 298 294 296 296 296 295 294 297 297 295 294 296 296 296 298 300 306 310 308
302 302 302 301 300 299 299 299 298 297 298 299 299 299 297 296 293 289 289 290 291 293 294 294 293 292 294 294 294 294 294 295 294 292 292 292 292 293 294 299 302 309 310
300 300 300 300 300 300 299 297 294 293 294 295 295 296 296 294 291 288 289 290 289 291 292 294 293 293 292 293 297 298 297 294 290 289 290 290 290 291 292 296 297 300 308
300 300 300 300 299 299 295 293 293 288 287 289 289 291 291 290 286 285 287 288 288 290 293 295 295 295 294 294 295 296 295 294 292 288 288 288 289 289 290 292 294 297 302
299 298 297 298 298 297 297 296 290 289 287 285 284 285 288 284 284 285 286 287 288 290 293 293 294 294 293 293 293 293 293 293 292 288 287 287 287 288 289 290 293 296 302
297 297 297 296 296 295 295 294 294 289 288 288 285 284 283 284 284 285 287 288 288 291 292 292 292 292 291 291 291 291 291 291 291 289 287 286 286 287 288 290 292 294 298
294 293 295 295 294 294 293 293 292 292 292 291 288 286 285 285 285 286 287 289 290 289 289 290 290 290 290 290 290 290 290 290 290 289 286 285 285 286 287 289 291 294 297
294 294 294 293 291 291 291 291 291 290 290 290 289 287 286 287 287 287 288 289 289 289 288 289 289 289 289 289 289 289 289 289 289 288 285 284 285 285 286 289 291 294 297
290 289 291 291 291 290 290 290 290 290 290 290 289 286 286 288 288 288 288 288 288 288 288 288 288 288 288 288 289 288 288 289 288 285 284 284 284 284 287 289 291 294 298
290 289 289 290 290 290 290 290 290 289 289 289 289 286 285 287 288 288 288 288 288 288 288 288 288 288 288 288 288 288 288 288 286 284 283 283 283 285 287 289 292 298 303
290 290 290 289 289 289 289 289 289 289 289 289 289 288 286 288 288 288 288 288 288 288 288 287 287 287 287 287 287 287 287 286 284 283 283 283 284 286 287 289 292 297 304
290 289 289 289 288 288 289 289 288 288 288 288 288 288 288 287 287 287 287 287 287 287 287 287 287 287 287 287 286 285 285 283 281 283 282 284 286 286 287 288 291 294 299
289 289 289 288 288 289 288 288 288 287 287 287 287 287 287 287 287 287 286 286 286 286 286 286 286 286 286 286 285 284 283 281 281 282 283 287 287 287 287 287 290 292 296
288 288 288 288 288 288 288 287 287 287 287 286 286 286 286 286 286 286 286 285 285 285 285 285 285 285 286 286 284 282 281 279 280 282 283 287 288 288 286 286 288 290 293
288 288 287 287 286 286 286 286 286 285 285 285 286 285 285 285 285 285 285 285 285 285 285 285 285 285 285 285 282 280 280 280 280 283 285 287 288 288 286 286 287 289 291

GFSGL_925_thetae_129.txt.gz
Theta_e
331 329 328 327 326 325 324 322 321 319 319 319 319 319 319 319 319 320 320 319 318 319 318 318 317 316 316 316 316 316 317 317 319 318 316 316 316 315 316 316 316 315 315
329 328 327 325 324 322 321 321 320 320 319 319 319 318 318 317 318 318 318 318 317 317 316 315 315 315 315 315 316 316 317 316 315 316 314 315 314 314 315 315 315 314 314
326 324 323 323 322 322 321 320 320 319 319 318 318 317 317 317 317 317 316 315 315 315 315 314 315 314 314 315 314 314 314 313 313 314 313 313 313 314 314 314 314 314 314
322 323 322 322 322 321 321 320 319 318 318 317 317 316 316 316 316 314 312 312 312 313 313 313 314 314 314 314 312 312 311 311 310 311 311 311 311 311 312 313 314 313 313
321 321 321 320 319 319 318 318 317 317 316 316 315 315 315 313 306 306 306 307 308 310 312 313 313 313 311 310 308 309 308 308 308 309 310 310 310 310 311 311 312 312 312
317 317 317 316 316 316 316 315 315 315 315 314 313 312 312 305 305 304 303 302 305 309 311 312 311 311 310 308 306 305 305 306 308 309 310 311 310 310 309 308 307 308 311
314 313 313 313 313 313 313 314 313 312 312 311 311 310 308 303 301 302 302 301 306 309 310 310 308 308 307 303 304 304 310 311 310 309 309 308 307 306 305 304 305 306 309
311 311 311 311 312 312 311 310 309 309 310 310 309 308 305 300 299 299 299 303 307 308 307 307 306 307 304 300 300 308 309 309 308 304 304 303 303 302 302 303 304 305 308
308 309 309 310 310 310 309 308 308 308 308 308 307 306 304 299 298 296 296 301 304 304 304 305 305 302 300 298 300 306 306 306 302 302 303 303 302 303 304 306 307 308 309
307 308 308 308 308 307 307 306 306 306 306 305 304 303 300 300 296 293 293 297 299 298 303 303 302 300 298 297 297 303 301 300 299 303 304 303 302 302 302 303 302 304 309
306 307 307 306 306 306 304 304 304 303 302 301 300 300 300 298 296 292 291 292 293 295 301 301 300 296 296 295 295 297 296 297 301 301 301 301 300 300 299 298 297 298 302
306 306 306 305 304 304 304 303 303 303 304 303 303 302 301 299 296 291 290 291 290 293 296 297 295 293 294 296 296 296 297 298 299 297 296 297 296 296 295 293 293 297 299
305 305 304 303 303 302 302 300 298 298 299 299 300 301 300 299 296 290 290 291 289 291 293 294 295 295 295 296 297 299 299 299 298 298 295 294 293 292 291 290 291 294 297
304 303 302 303 302 300 299 297 293 292 293 294 295 297 296 294 290 288 290 291 291 292 293 296 297 298 298 297 298 297 298 297 297 297 294 291 291 290 289 289 291 292 295
303 303 303 302 302 300 297 295 294 289 288 289 289 292 290 288 286 286 287 288 289 291 293 297 297 296 295 295 295 295 295 295 295 296 292 290 289 288 288 288 290 292 295
301 300 301 301 300 299 298 294 291 289 288 287 286 286 288 286 286 287 289 289 290 292 295 294 294 294 294 294 294 294 294 294 294 294 290 288 287 287 287 288 290 292 294
300 300 299 299 298 298 297 297 296 289 287 287 287 287 287 287 288 289 290 291 290 292 293 293 293 293 293 293 293 293 293 293 293 292 288 286 286 286 286 287 289 291 293
297 296 297 297 297 296 296 295 295 295 295 292 289 289 288 289 289 289 290 292 292 292 292 292 292 292 292 292 293 292 292 292 292 291 287 286 286 285 286 287 290 291 293
297 297 296 294 294 294 294 294 294 294 294 293 291 290 290 290 291 291 291 291 292 292 292 292 291 291 291 292 292 292 291 291 290 289 287 286 286 285 287 289 289 291 293
292 292 294 294 294 294 294 294 293 293 293 293 292 289 289 292 292 291 291 291 291 291 291 291 291 291 291 291 291 290 290 290 289 288 287 287 286 286 288 289 290 291 295
293 293 293 293 293 293 293 293 293 293 292 293 292 289 289 290 291 291 291 291 291 291 291 291 291 290 290 290 290 289 289 288 286 286 288 287 287 288 289 289 289 291 294
294 293 293 293 292 292 292 292 292 292 292 291 291 291 290 291 291 291 290 290 290 290 290 290 290 290 290 290 289 287 287 285 284 285 286 286 289 290 289 289 289 291 292
293 293 293 292 292 292 292 292 291 291 291 291 291 290 290 290 290 290 290 289 289 289 289 289 289 289 289 289 288 286 285 283 282 284 284 287 290 291 290 288 289 290 292
293 292 292 291 290 291 291 291 291 290 290 290 290 290 290 290 289 289 289 289 288 289 288 288 288 288 288 288 287 284 283 281 281 283 284 287 291 291 290 288 289 289 291
292 292 291 291 290 290 290 290 290 289 289 289 289 289 289 289 288 288 288 288 287 288 288 288 288 288 287 287 285 282 281 281 281 284 284 287 290 290 289 289 289 288 289
291 291 290 290 290 290 290 289 289 288 288 288 288 288 288 288 287 287 287 286 286 287 286 287 286 286 286 285 282 280 280 281 281 284 287 288 289 289 288 290 288 288 288